[[{"header":{"parameterUnit":"m.s-1","parameterCategory":1,"la1":30.6,"la2":29.2853,"lo1":-89.7004,"lo2":-87.6739,"dy":0.0162,"dx":0.0183,"nx":112,"ny":82,"refTime":"2026-05-11T00:00:00:Z","depth":0,"parameterNumber":2,"parameterNumberName":"U-component_of_WINDS"},"data":[0.0,0.0,0.0,0.0,0.0,0.0,0.0,0.0,0.0,0.0,0.0,0.0,0.0,0.0,0.0,0.0,0.0,0.0,0.0,0.0,0.0,0.0,0.0,0.0,0.0,0.0,0.0,0.0,0.0,0.0,0.0,0.0,0.0,0.0,0.0,0.0,0.0,0.0,0.0,0.0,0.0,0.0,0.0,0.0,0.0,0.0,0.0,0.0,0.0,0.0,0.0,0.0,0.0,0.0,0.0,0.0,0.0,0.0,0.0,0.0,0.0,0.0,0.0,0.0,0.0,0.0,0.0,0.0,0.0,0.0,0.0,0.0,0.0,0.0,0.0,0.0,0.0,0.0,0.0,0.0,0.0,0.0,0.0,0.0,0.0,0.0,0.0,0.0,0.0,0.0,0.1354,0.2024,0.21,0.21,0.21,0.21,0.2756,0.4337,0.0,0.0,0.0,0.0,0.0,0.0,0.0,0.0,0.0,0.0,0.0,0.0,0.0,0.0,0.0,0.0,0.0,0.0,0.0,0.0,0.0,0.0,0.0,0.0,0.0,0.0,0.0,0.0,0.0,0.0,0.0,0.0,0.0,0.0,0.0,0.0,0.0,0.0,0.0,0.0,0.0,0.0,0.0,0.0,0.0,0.0,0.0,0.0,0.0,0.0,0.0,0.0,0.0,0.0,0.0,0.0,0.0,0.0,0.0,0.0,0.0,0.0,0.0,0.0,0.0,0.0,0.0,0.0,0.0,0.0,0.0,0.0,0.0,0.0,0.0,0.0,0.0,0.0,0.0,0.0,0.0,0.0,0.0,0.0,0.0,0.0,0.0,0.0,0.0,0.0,0.0,0.0,0.0,0.0,0.0,0.0,0.0,0.0,0.0,0.0,0.0,0.0,0.0,0.0,0.1354,0.2024,0.21,0.21,0.21,0.21,0.2292,0.2737,0.0,0.0,0.0,0.0,0.0,0.0,0.0,0.0,0.0,0.0,0.0,0.0,0.0,0.0,0.0,0.0,0.0,0.0,0.0,0.0,0.0,0.0,0.0,0.0,0.0,0.0,0.0,0.0,0.0,0.0,0.0,0.0,0.0,0.0,0.0,0.0,0.0,0.0,0.0,0.0,0.0,0.0,0.0,0.0,0.0,0.0,0.0,0.0,0.0,0.0,0.0,0.0,0.0,0.0,0.0,0.0,0.0,0.0,0.0,0.0,0.0,0.0,0.0,0.0,0.0,0.0,0.0,0.0,0.0,0.0,0.0,0.0,0.0,0.0,0.0,0.0,0.0,0.0,0.0,0.0,0.0,0.0,0.0,0.0,0.0,0.0,0.0,0.0,0.0,0.0,0.0,0.0,0.0,0.0,0.0,0.0,0.0,0.0,0.0,0.0,0.0,0.0,0.0,0.1424,0.176,0.2064,0.21,0.21,0.21,0.21,0.2177,0.2391,0.2017,0.0,0.0,0.0,0.0,0.0,0.0,0.0,0.0,0.0,0.0,0.0,0.0,0.0,0.0,0.0,0.0,0.0,0.0,0.0,0.0,0.0,0.0,0.0,0.0,0.0,0.0,0.0,0.0,0.0,0.0,0.0,0.0,0.0,0.0,0.0,0.0,0.0,0.0,0.0,0.0,0.0,0.0,0.0,0.0,0.0,0.0,0.0,0.0,0.0,0.0,0.0,0.0,0.0,0.0,0.0,0.0,0.0,0.0,0.0,0.0,0.0,0.0,0.0,0.0,0.0,0.0,0.0,0.0,0.0,0.0,0.0,0.0,0.0,0.0,0.0,0.0,0.0,0.0,0.0,0.0,0.0,0.0,0.0,0.0,0.0,0.0,0.0,0.0,0.0,0.0,0.0,0.0,0.0,0.0,0.0,0.0,0.0,0.0,0.0,0.0,0.0,0.0,0.175,0.21,0.21,0.21,0.21,0.21,0.1949,0.2059,0.2507,0.2452,0.0,0.0,0.0,0.0,0.0,0.0,0.0,0.0,0.0,0.0,0.0,0.0,0.0,0.0,0.0,0.0,0.0,0.0,0.0,0.0,0.0,0.0,0.0,0.0,0.0,0.0,0.0,0.0,0.0,0.0,0.0,0.0,0.0,0.0,0.0,0.0,0.0,0.0,0.0,0.0,0.0,0.0,0.0,0.0,0.0,0.0,0.0,0.0,0.0,0.0,0.0,0.0,0.0,0.0,0.0,0.0,0.0,0.0,0.0,0.0,0.0,0.0,0.0,0.0,0.0,0.0,0.0,0.0,0.0,0.0,0.0,0.0,0.0,0.0,0.0,0.0,0.0,0.0,0.0,0.0,0.0,0.0,0.0,0.0,0.0,0.0,0.0,0.0,0.0,0.0,0.0,0.0,0.0,0.0,0.0,0.0,0.0,0.0,0.0,0.0,0.0,0.0,0.1953,0.21,0.21,0.21,0.21,0.21,0.1527,0.1686,0.2883,0.2607,0.0,0.0,0.0,0.0,0.0,0.0,0.0,0.0,0.0,0.0,0.0,0.0,0.0,0.0,0.0,0.0,0.0,0.0,0.0,0.0,0.0,0.0,0.0,0.0,0.0,0.0,0.0,0.0,0.0,0.0,0.0,0.0,0.0,0.0,0.0,0.0,0.0,0.0,0.0,0.0,0.0,0.0,0.0,0.0,0.0,0.0,0.0,0.0,0.0,0.0,0.0,0.0,0.0,0.0,0.0,0.0,0.0,0.0,0.0,0.0,0.0,0.0,0.0,0.0,0.0,0.0,0.0,0.0,0.0,0.0,0.0,0.0,0.0,0.0,0.0,0.0,0.0,0.0,0.0,0.0,0.0,0.0,0.0,0.0,0.0,0.0,0.0,0.0,0.0,0.0,0.0,0.0,0.0,0.0,0.0,0.0,0.0,0.0,0.0,0.0,0.0,0.0,0.2132,0.21,0.0,0.21,0.21,0.21,0.1988,0.2218,0.2957,0.0,0.0,0.0,0.0,0.0,0.0,0.0,0.0,0.0,0.0,0.0,0.0,0.0,0.0,0.0,0.0,0.0,0.0,0.0,0.0,0.0,0.0,0.0,0.0,0.0,0.0,0.0,0.0,0.0,0.0,0.0,0.0,0.0,0.0,0.0,0.0,0.0,0.0,0.0,0.0,0.0,0.0,0.0,0.0,0.0,0.0,0.0,0.0,0.0,0.0,0.0,0.0,0.0,0.0,0.0,0.0,0.0,0.0,0.0,0.0,0.0,0.0,0.0,0.0,0.0,0.0,0.0,0.0,0.0,0.0,0.0,0.0,0.0,0.0,0.0,0.0,0.0,0.0,0.0,0.0,0.0,0.0,0.0,0.0,0.0,0.0,0.0,0.0,0.0,0.0,0.0,0.0,0.0,0.0,0.0,0.0,0.0,0.0,0.0,0.0,0.0,0.0,0.2253,0.204,0.1869,0.0,0.21,0.2333,0.2901,0.2733,0.2702,0.2985,0.0,0.0,0.0,0.0,0.0,0.0,0.0,0.0,0.0,0.0,0.0,0.0,0.0,0.0,0.0,0.0,0.0,0.0,0.0,0.0,0.0,0.0,0.0,0.0,0.0,0.0,0.0,0.0,0.0,0.0,0.0,0.0,0.0,0.0,0.0,0.0,0.0,0.0,0.0,0.0,0.0,0.0,0.0,0.0,0.0,0.0,0.0,0.0,0.0,0.0,0.0,0.0,0.0,0.0,0.0,0.0,0.0,0.0,0.0,0.0,0.0,0.0,0.0,0.0,0.0,0.0,0.0,0.0,0.0,0.0,0.0,0.0,0.0,0.0,0.0,0.0,0.0,0.0,0.0,0.0,0.0,0.0,0.0,0.0,0.0,0.0,0.0,0.0,0.0,0.0,0.0,0.0,0.0,0.0,0.0,0.0,0.0,0.0,0.0,0.0,0.0,0.0,0.22,0.1636,0.1368,0.2067,0.2144,0.2858,0.4637,0.3678,0.2994,0.0,0.0,0.0,0.0,0.0,0.0,0.0,0.0,0.0,0.0,0.0,0.0,0.0,0.0,0.0,0.0,0.0,0.0,0.0,0.0,0.0,0.0,0.0,0.0,0.0,0.0,0.0,0.0,0.0,0.0,0.0,0.0,0.0,0.0,0.0,0.0,0.0,0.0,0.0,0.0,0.0,0.0,0.0,0.0,0.0,0.0,0.0,0.0,0.0,0.0,0.0,0.0,0.0,0.0,0.0,0.0,0.0,0.0,0.0,0.0,0.0,0.0,0.0,0.0,0.0,0.0,0.0,0.0,0.0,0.0,0.0,0.0,0.0,0.0,0.0,0.0,0.0,0.0,0.0,0.0,0.0,0.0,0.0,0.0,0.0,0.0,0.0,0.0,0.0,0.0,0.0,0.0,0.0,0.0,0.0,0.0,0.0,0.0,0.0,0.0,0.0,0.0,0.0,0.2579,0.1816,0.206,0.4576,0.4847,0.4484,0.3607,0.3211,0.3073,0.3272,0.0,0.0,0.0,0.0,0.0,0.0,0.0,0.0,0.0,0.0,0.0,0.0,0.0,0.0,0.0,0.0,0.0,0.0,0.0,0.0,0.0,0.0,0.0,0.0,0.0,0.0,0.0,0.0,0.0,0.0,0.0,0.0,0.0,0.0,0.0,0.0,0.0,0.0,0.0,0.0,0.0,0.0,0.0,0.0,0.0,0.0,0.0,0.0,0.0,0.0,0.0,0.0,0.0,0.0,0.0,0.0,0.0,0.0,0.0,0.0,0.0,0.0,0.0,0.0,0.0,0.0,0.0,0.0,0.0,0.0,0.0,0.0,0.0,0.0,0.0,0.0,0.0,0.0,0.0,0.0,0.0,0.0,0.0,0.0,0.0,0.0,0.0,0.0,0.0,0.0,0.0,0.0,0.0,0.0,0.0,0.0,0.0,0.0,0.0,0.0,0.0,0.0,0.2818,0.2336,0.262,0.4585,0.5528,0.5196,0.3174,0.3091,0.3229,0.3386,0.0,0.0,0.0,0.0,0.0,0.0,0.0,0.0,0.0,0.0,0.0,0.0,0.0,0.0,0.0,0.0,0.0,0.0,0.0,0.0,0.0,0.0,0.0,0.0,0.0,0.0,0.0,0.0,0.0,0.0,0.0,0.0,0.0,0.0,0.0,0.0,0.0,0.0,0.0,0.0,0.0,0.0,0.0,0.0,0.0,0.0,0.0,0.0,0.0,0.0,0.0,0.0,0.0,0.0,0.0,0.0,0.0,0.0,0.0,0.0,0.0,0.0,0.0,0.0,0.0,0.0,0.0,0.0,0.0,0.0,0.0,0.0,0.0,0.0,0.0,0.0,0.0,0.0,0.0,0.0,0.0,0.0,0.0,0.0,0.0,0.0,0.0,0.0,0.0,0.0,0.0,0.0,0.0,0.0,0.0,0.0,0.0,0.0,0.0,0.0,0.0,0.0,0.2957,0.2994,0.2994,0.2994,0.4633,0.4975,0.3163,0.3246,0.3403,0.3403,0.0,0.0,0.0,0.0,0.0,0.0,0.0,0.0,0.0,0.0,0.0,0.0,0.0,0.0,0.0,0.0,0.0,0.0,0.0,0.0,0.0,0.0,0.0,0.0,0.0,0.0,0.0,0.0,0.0,0.0,0.0,0.0,0.0,0.0,0.0,0.0,0.0,0.0,0.0,0.0,0.0,0.0,0.0,0.0,0.0,0.0,0.0,0.0,0.0,0.0,0.0,0.0,0.0,0.0,0.0,0.0,0.0,0.0,0.0,0.0,0.0,0.0,0.0,0.0,0.0,0.0,0.0,0.0,0.0,0.0,0.0,0.0,0.0,0.0,0.0,0.0,0.0,0.0,0.0,0.0,0.0,0.0,0.0,0.0,0.0,0.0,0.0,0.0,0.0,0.0,0.0,0.0,0.0,0.0,0.0,0.0,0.0,0.0,0.0,0.0,0.0,0.0,0.3091,0.2994,0.2994,0.2994,0.339,0.347,0.3028,0.3246,0.3403,0.3403,0.3403,0.0,0.0,0.0,0.0,0.0,0.0,0.0,0.0,0.0,0.0,0.0,0.0,0.0,0.0,0.0,0.0,0.0,0.0,0.0,0.0,0.0,0.0,0.0,0.0,0.0,0.0,0.0,0.0,0.0,0.0,0.0,0.0,0.0,0.0,0.0,0.0,0.0,0.0,0.0,0.0,0.0,0.0,0.0,0.0,0.0,0.0,0.0,0.0,0.0,0.0,0.0,0.0,0.0,0.0,0.0,0.0,0.0,0.0,0.0,0.0,0.0,0.0,0.0,0.0,0.0,0.0,0.0,0.0,0.0,0.0,0.0,0.0,0.0,0.0,0.0,0.0,0.0,0.0,0.0,0.0,0.0,0.0,0.0,0.0,0.0,0.0,0.0,0.0,0.0,0.0,0.0,0.0,0.0,0.0,0.0,0.0,0.0,0.0,0.0,0.0,0.0,0.2936,0.2994,0.2994,0.2994,0.2994,0.2994,0.2994,0.3246,0.3403,0.3403,0.3706,0.0,0.0,0.0,0.0,0.0,0.0,0.0,0.0,0.0,0.0,0.0,0.0,0.0,0.0,0.0,0.0,0.0,0.0,0.0,0.0,0.0,0.0,0.0,0.0,0.0,0.0,0.0,0.0,0.0,0.0,0.0,0.0,0.0,0.0,0.0,0.0,0.0,0.0,0.0,0.0,0.0,0.0,0.0,0.0,0.0,0.0,0.0,0.0,0.0,0.0,0.0,0.0,0.0,0.0823,0.0403,0.0403,0.0403,0.041,0.0424,0.0424,0.0258,0.0101,0.1436,0.0,0.0,0.0,0.0,0.0,0.0,0.0,0.0,0.0,0.0,0.0,0.0,0.0,0.0,0.0,0.0,0.0,0.0,0.0,0.0,0.0,0.0,0.0,0.0,0.5118,0.4956,0.0,0.0,0.0,0.0,0.0,0.0,0.0,0.0,0.0,0.0,0.0,0.0,0.2855,0.3064,0.3058,0.3003,0.3049,0.3064,0.3064,0.3272,0.3452,0.3567,0.4091,0.4396,0.0,0.0,0.0,0.0,0.0,0.0,0.0,0.0,0.0,0.0,0.0,0.0,0.0,0.0,0.0,0.0,0.0,0.0,0.0,0.0,0.0,0.0,0.0,0.0,0.0,0.0,0.0,0.0,0.0,0.0,0.0,0.0,0.0,0.0,0.0,0.0,0.0,0.0,0.0,0.0,0.0,0.0,0.0,0.0,0.0,0.0,0.0,0.0174,0.0174,0.0984,0.1661,0.2211,0.2064,0.2004,0.2004,0.2004,0.203,0.209,0.209,0.0,0.0018,0.023,0.0,0.0,0.0,0.0,0.0,0.0,0.0,0.0,0.0,0.0,0.0,0.0,0.0,0.0,0.0,0.0,0.0,0.0,0.0,0.0,0.0,0.0,0.5087,0.7389,0.7955,0.7286,0.0,0.424,0.4134,0.38,0.3497,0.0,0.0,0.0,0.0,0.0,0.0,0.0,0.3281,0.3344,0.3264,0.3022,0.3203,0.3344,0.3344,0.3378,0.3653,0.423,0.4355,0.4396,0.4396,0.4675,0.0,0.0,0.0,0.0,0.0,0.0,0.0,0.0,0.0,0.0,0.0,0.0,0.0,0.0,0.0,0.0,0.0,0.0,0.0,0.0,0.0,0.0,0.0,0.0,0.0,0.0,0.0,0.0,0.0,0.0,0.0,0.0,0.0,0.0,0.0,0.0,0.0,0.0,0.0,0.0,0.0,0.0,0.0,0.0,0.0057,0.0087,0.0087,0.0496,0.0844,0.1114,0.1114,0.153,0.2292,0.2028,0.2061,0.2343,0.2343,0.1942,0.1312,0.1574,0.22,0.2985,0.0,0.0,0.0,0.0,0.2397,0.3393,0.3624,0.3884,0.0,0.4094,0.0,0.0,0.0,0.0,0.0,0.0,0.0,0.0,0.0,0.0,0.7284,0.8532,0.884,0.8432,0.6977,0.6651,0.6183,0.0,0.547,0.6038,0.4743,0.0,0.0,0.0,0.0,0.4744,0.3502,0.3336,0.3311,0.3229,0.3328,0.3924,0.5253,0.4128,0.363,0.4293,0.4389,0.4396,0.4396,0.4684,0.4857,0.0,0.0,0.0,0.0,0.0,0.0,0.0,0.0,0.0,0.0,0.0,0.0,0.0,0.0,0.0,0.0,0.0,0.0,0.0,0.0,0.0,0.0,0.0,0.0,0.0,0.0,0.0,0.0,0.0,0.0,0.0,0.0,0.0,0.0,0.0,0.0,0.0,0.0,0.0,0.0,-0.031,-0.0489,-0.0489,-0.0173,-0.0158,-0.0482,-0.0129,0.0225,0.0553,0.0553,0.1101,0.2118,0.2046,0.2198,0.2531,0.2531,0.266,0.2862,0.2827,0.2992,0.3229,0.3229,0.3047,0.29,0.3894,0.4593,0.5072,0.5072,0.5099,0.5134,0.5134,0.6636,0.844,0.8345,0.0,0.0,0.0,0.0,0.8891,0.8891,0.8891,0.8925,0.9028,0.9088,0.9007,0.8712,0.8652,0.7764,0.0,0.6525,0.7604,0.4793,0.0,0.0,0.0,0.0,0.5319,0.3526,0.3306,0.3311,0.3369,0.3879,0.5051,0.7132,0.501,0.3773,0.4265,0.4365,0.4431,0.4498,0.4693,0.453,0.3964,0.0,0.0,0.0,0.0,0.0,0.0,0.0,0.0,0.0,0.0,0.0,0.0,0.0,0.0,0.0,0.0,0.0,0.0,0.0,0.0,0.0,0.0,0.0,0.0,0.0,0.0,0.0,0.0,0.0,0.0,0.0,0.0,0.0,0.0,0.0,0.0,0.0,0.0,0.0,-0.1152,-0.1807,-0.1807,-0.0633,-0.0583,-0.1792,-0.0477,0.064,0.1523,0.1523,0.1566,0.1667,0.2661,0.3123,0.3144,0.3144,0.3624,0.4283,0.2906,0.2935,0.3847,0.3847,0.384,0.4134,0.6711,0.7676,0.7704,0.7704,0.7787,0.7894,0.7894,0.8594,0.935,0.8973,0.8768,0.0,0.0,0.8773,0.8891,0.8891,0.8891,0.8902,0.8902,0.9007,0.9099,0.9078,0.9078,0.805,0.0,0.6399,0.7604,0.4793,0.0,0.4793,0.778,0.5523,0.3441,0.3319,0.3306,0.3306,0.3315,0.5185,0.6976,0.8306,0.5865,0.4265,0.4307,0.4365,0.452,0.4765,0.4785,0.3723,0.1435,0.1223,0.0,0.0,0.0,0.0,0.0,0.0,0.0,0.0,0.0,0.0,0.0,0.0,0.0,0.0,0.0,0.0,0.0,0.0,0.0,0.0,0.0,0.0,0.0,0.0,0.0,0.0,0.0,0.0,0.0,0.0,0.0,-0.1269,-0.0535,0.0,0.0,0.0,-0.036,-0.118,-0.1737,-0.1618,-0.0705,-0.0238,-0.0216,-0.0677,-0.0993,-0.0982,-0.0648,-0.0606,-0.0967,-0.1579,0.1712,0.3208,0.3208,0.3208,0.3372,0.3626,0.3096,0.4225,0.628,0.628,0.628,0.6409,0.7498,0.7899,0.7899,0.7899,0.7928,0.797,0.797,0.8198,0.8514,0.8708,0.9022,0.9208,0.8858,0.884,0.8891,0.8891,0.8891,0.8891,0.8891,0.8925,0.8974,0.8974,0.8974,0.8629,0.7474,0.7918,0.8185,0.7168,0.6901,0.7203,0.8322,0.7442,0.6652,0.6652,0.5059,0.3949,0.3949,0.6265,0.8008,0.8454,0.5838,0.4176,0.4176,0.4476,0.4693,0.4802,0.331,0.2073,0.1216,0.1362,0.0982,0.0,0.0,0.0,0.0,0.0,0.0,0.0,0.0,0.0,0.0,0.0,0.0,0.0,0.0,0.0,0.0,0.0,0.0,0.0,0.0,0.0,0.0,0.0,0.0,0.0,0.0,0.0,0.0,0.0,-0.0367,-0.1301,-0.0551,0.0,0.0,0.0,-0.0367,-0.1216,-0.1342,-0.1337,-0.1221,-0.1213,-0.1213,-0.1213,-0.2054,-0.2875,-0.3656,-0.361,-0.36,-0.3528,-0.0549,0.0805,0.0805,0.0895,0.094,0.1048,0.2576,0.4361,0.6213,0.7213,0.7605,0.762,0.7753,0.7797,0.7812,0.787,0.735,0.665,0.665,0.665,0.6725,0.7082,0.7422,0.7847,0.8518,0.8032,0.7554,0.8562,0.884,0.884,0.884,0.884,0.8852,0.888,0.9011,0.9136,0.9224,0.9015,0.8761,0.853,0.8508,0.8508,0.8508,0.8508,0.8508,0.8508,0.6877,0.5673,0.5587,0.7255,0.8488,0.8807,0.6078,0.4332,0.4332,0.3873,0.3588,0.3588,0.213,0.1188,0.0867,0.0989,0.0711,0.0,0.0,0.0,0.0,0.0,0.0,0.0,0.0,0.0,0.0,0.0,0.0,0.0,0.0,0.0,0.0,0.0,0.0,0.0,0.0,0.0,0.0,0.0,0.0,0.0,0.0,0.0,0.0,0.0,0.0,0.0,0.0,0.0,0.0,-0.008,-0.0126,-0.0123,-0.0123,-0.1196,-0.353,-0.3606,-0.3614,-0.3614,-0.368,-0.4844,-0.7107,-0.7107,-0.6024,-0.404,-0.404,-0.404,-0.4019,-0.3661,-0.3506,-0.3166,0.1424,0.3317,0.3633,0.6491,0.7605,0.7605,0.7605,0.7548,0.7498,0.7706,0.621,0.4228,0.4228,0.4207,0.4207,0.4207,0.4207,0.4814,0.7729,0.6452,0.4881,0.7807,0.8549,0.8549,0.8549,0.8549,0.8593,0.8713,0.9064,0.9362,0.9481,0.95,0.9294,0.8636,0.8517,0.8517,0.8517,0.8521,0.0,0.8533,0.8517,0.8428,0.8176,0.8149,0.8464,0.9268,0.6492,0.4746,0.4797,0.254,0.1199,0.1166,0.1416,0.1136,0.0222,0.0085,0.0014,0.0,0.0,0.0,0.0,0.0,0.0,0.0,0.0,0.0,0.0,0.0,0.0,0.0,0.0,0.0,0.0,0.0,0.0,0.0,0.0,0.0,0.0,0.0,0.0,0.0,0.0,0.0,0.0,0.0,0.0,0.0,0.0,0.0,0.0,-0.1892,-0.3024,-0.2975,-0.297,-0.3175,-0.3592,-0.3839,-0.3958,-0.3958,-0.541,-0.6471,-0.7107,-0.7107,-0.7039,-0.6933,-0.6933,-0.6933,-0.6838,-0.4713,-0.3786,-0.3292,0.3304,0.6166,0.6474,0.7289,0.7605,0.7605,0.7605,0.6335,0.4639,0.4692,0.467,0.4633,0.4633,0.4431,0.4207,0.4207,0.4207,0.4373,0.5214,0.4845,0.4394,0.5228,0.5442,0.5442,0.5442,0.5442,0.5445,0.5489,0.558,0.642,0.8995,0.95,0.9439,0.9257,0.9228,0.9228,0.9228,0.8807,0.0,0.9169,0.9228,0.9191,0.9124,0.9114,0.8173,0.5848,0.3938,0.3408,0.4724,0.2711,0.1184,0.05,0.0542,0.0509,0.0346,0.0448,0.034,0.0,0.0,0.0,0.0,0.0,0.0,0.0,0.0,0.0,0.0,0.0,0.0,0.0,0.0,0.0,0.0,0.0,0.0,0.0,0.0,0.0,0.0,0.0,-0.0506,-0.1928,-0.0896,0.0,0.0,0.0,-0.0461,-0.1654,-0.1765,-0.1834,-0.2002,-0.3377,-0.4252,-0.4392,-0.4398,-0.4301,-0.4099,-0.4293,-0.4832,-0.5766,-0.7336,-0.7916,-0.7515,-0.7515,-0.7724,-0.8094,-0.8094,-0.8094,-0.8009,-0.6361,-0.5655,-0.5237,0.0239,0.2608,0.0,0.0,0.0,0.0,0.0,0.488,0.3506,0.3506,0.3835,0.4321,0.4684,0.4653,0.437,0.3918,0.3793,0.3793,0.3793,0.3793,0.3793,0.3793,0.3793,0.3793,0.3793,0.3793,0.3793,0.3793,0.3793,0.4922,0.8765,0.7914,0.0,0.6559,0.8196,0.8832,0.6864,0.6234,0.6136,0.6527,0.6985,0.7273,0.7273,0.7273,0.6202,0.3538,0.2445,0.0,0.0,0.0,0.0794,0.03,0.0368,0.0,0.0,0.0,0.0,0.0,0.0,0.0,0.0,0.0028,0.0,0.0,0.0,0.0,0.0,0.0,0.0,0.0,0.0,0.0,0.0,0.0,0.0,0.0,0.0,0.0,0.0,0.0,-0.1188,-0.4615,-0.2494,-0.0429,-0.0039,-0.0332,-0.1551,-0.4033,-0.4265,-0.442,-0.4769,-0.4464,-0.4415,-0.4777,0.0,0.0,0.0,0.0,-0.6302,-0.8274,-0.9114,-0.9104,-0.8267,-0.8267,-0.8267,-0.8267,-0.8267,-0.82,-0.8094,-0.8094,-0.8094,-0.7895,-0.5396,-0.3678,-0.192,0.4883,0.7552,0.7191,0.4259,0.3175,0.3217,0.3415,0.0,0.0,0.4155,0.4329,0.4195,0.345,0.3229,0.3229,0.3229,0.3208,0.3208,0.3208,0.3208,0.3208,0.3208,0.3208,0.3208,0.3208,0.3208,0.431,0.8068,0.5426,0.2512,0.2294,0.5716,0.7131,0.318,0.2403,0.2267,0.2267,0.3135,0.3792,0.3813,0.0,0.0,0.2012,0.1626,0.1067,0.0178,0.0189,0.029,0.0424,0.0604,0.0682,0.0648,0.0233,0.0078,0.02,0.02,0.02,0.02,0.0078,0.0022,0.0,0.0,0.0,0.0,0.0,0.0,0.0,0.0,0.0,0.0,0.0,0.0,0.0,0.0,0.0,0.0,0.0,-0.1188,-0.4615,-0.4524,-0.3084,-0.0332,-0.244,-0.4257,-0.465,-0.4675,-0.4723,-0.4785,-0.4732,-0.4723,-0.4789,-0.4793,-0.4793,-0.4793,-0.7372,-0.8964,-0.9385,-0.9575,-0.9507,-0.9239,0.0,0.0,-0.9239,-0.9239,-0.8824,-0.8094,-0.8094,-0.8094,-0.8066,-0.7519,-0.2291,0.5497,0.6713,0.7195,0.6712,0.2715,0.125,0.1449,0.2977,0.3506,0.3281,0.192,0.1482,0.1745,0.3041,0.3442,0.0,0.3442,0.3336,0.3208,0.3208,0.3208,0.3208,0.3208,0.3208,0.3208,0.3208,0.3208,0.3448,0.4258,0.3674,0.2589,0.1072,0.1562,0.2373,0.2983,0.1777,0.0806,0.0806,0.1001,0.1198,0.1355,0.1377,0.1192,0.077,0.0568,0.0233,-0.0335,0.0089,0.0446,0.0637,0.0682,0.057,0.0301,0.0211,0.0178,0.02,0.02,0.02,0.02,0.0178,0.0156,0.0,0.0,0.0,0.0,0.0,0.0,0.0,0.0,0.0,0.0,0.0,0.0,0.0,0.0,0.0,0.0,-0.1441,-0.3154,-0.4868,-0.3626,-0.2556,-0.2552,-0.4057,-0.5058,-0.4966,-0.4956,-0.4956,-0.4956,-0.4956,-0.5624,-0.7163,-0.7244,-0.7244,-0.7244,-0.8853,-0.9698,-0.9698,-0.9698,-0.9675,-0.9601,-0.9601,-0.9601,-0.9601,-0.9601,-0.9341,-0.8908,-0.9117,-0.8784,-0.8156,-0.8902,-0.2565,0.7589,0.7407,0.4989,0.1554,0.1183,0.1056,0.1098,0.1435,0.1785,0.1949,0.1007,0.0698,0.0875,0.1818,0.2102,0.2102,0.2102,0.2015,0.1953,0.1953,0.1953,0.1953,0.1953,0.1953,0.1931,0.1818,0.1796,0.1796,0.1796,0.1386,0.0747,-0.0178,-0.0157,0.0403,0.162,0.1003,0.0427,0.054,0.054,0.0585,0.0698,0.036,0.0112,0.0,0.0,0.0033,0.01,0.0379,0.049,0.0357,0.0413,0.0368,0.02,0.0267,0.0301,0.0301,0.0301,0.02,0.0,0.0,-0.0056,0.0,0.0,0.0,0.0,0.0,0.0,0.0,0.0,-0.071,-0.0118,0.0,0.0,0.0,0.0,0.0,0.0,-0.2317,-0.4108,-0.4108,-0.1733,-0.1012,-0.3777,-0.4115,-0.4118,-0.4118,-0.4703,-0.5092,-0.5092,-0.5092,-0.6177,-0.8679,-0.8811,-0.8805,-0.879,-0.8805,-0.9101,-0.9698,-0.9698,-0.9698,-0.9706,-0.9768,-0.9781,-0.9706,-0.9775,-0.9819,-0.9829,-1.0169,-0.9629,-0.8613,-0.9802,-0.4594,0.4203,0.5089,0.165,-0.3487,-0.0673,0.0797,0.1254,0.0291,0.0225,0.0585,0.0787,0.0764,0.0698,0.0698,0.0698,0.0674,0.0517,0.0495,0.0517,0.0652,0.0698,0.0698,0.0698,0.0698,0.0652,0.0495,0.045,0.0405,0.027,-0.0403,-0.0962,-0.0962,-0.065,-0.0247,0.018,0.0247,0.0292,0.0472,0.0495,0.0495,0.0495,-0.0045,-0.0394,-0.0367,-0.0234,0.0044,0.0537,0.0479,0.0312,0.0044,0.0145,0.0211,0.0233,0.0346,0.0401,0.0401,0.0324,0.0111,-0.02,-0.02,-0.0298,-0.3986,-0.3945,-0.3992,-0.3992,-0.2233,-0.0423,0.0,0.0,-0.3231,-0.0558,0.0,0.0,0.0,0.0,0.0,0.0,-0.0312,-0.0565,-0.0565,-0.0234,-0.0136,-0.0526,-0.0566,-0.0566,-0.0566,-0.3312,-0.5103,-0.5103,-0.5103,-0.525,-0.5602,-0.5621,-0.5597,-0.5524,-0.5592,-0.6935,-0.9669,-0.9698,-0.9698,-0.9713,-1.0052,-1.0058,-0.971,-1.0076,-1.0234,-1.0234,-1.027,-1.0214,-1.0073,-1.0232,-0.9507,-0.789,-0.3842,-0.2792,-0.352,-0.3376,-0.1317,0.1388,0.1254,0.0717,0.0225,0.1054,0.1031,0.0698,0.0698,0.0698,0.0562,-0.009,-0.027,-0.0135,0.054,0.0698,0.0698,0.0698,0.0698,0.0698,0.0674,0.0674,0.0472,-0.018,-0.0404,-0.0471,-0.0471,-0.0427,-0.0382,-0.0315,-0.0315,-0.0292,-0.027,-0.027,-0.027,-0.027,-0.036,-0.0356,-0.0234,-0.0105,0.0011,0.0078,-0.0312,-0.0324,0.0156,0.0189,0.0256,0.0379,0.039,0.0401,0.0401,0.0044,-0.0156,-0.02,-0.02,-0.028,-0.2334,-0.2973,-0.4208,0.0,-0.2233,-0.0457,-0.2216,-0.3603,-0.3637,-0.0626,-0.1404,-0.265,-0.2776,-0.1271,0.0,0.0,0.0,0.0,0.0,-0.161,-0.2104,-0.022,-0.1752,-0.2181,-0.0195,-0.1285,-0.296,-0.4946,-0.5101,-0.5103,-0.5107,-0.5108,-0.5096,-0.5054,-0.705,-0.8748,-1.0044,-1.0042,-1.0042,-1.0044,-1.0214,-1.0213,-1.0047,-1.0214,-1.0305,-1.0305,-1.0305,-0.9942,-0.9375,-0.9375,-0.9375,-0.9177,-0.7279,-0.5286,-0.3506,-0.3626,-0.1427,0.1541,0.0827,0.0337,0.0067,0.0448,0.0449,0.0292,0.0292,0.018,0.0,-0.0315,-0.0405,-0.0337,-0.0022,0.0067,0.0067,0.0067,0.0067,0.0067,0.0067,0.0405,0.0472,-0.0247,-0.0405,-0.0405,-0.0405,-0.0405,-0.0405,-0.0405,-0.0405,-0.0405,-0.0405,-0.0405,-0.0405,-0.0405,-0.027,-0.0136,-0.0094,-0.0279,-0.0413,-0.0413,-0.0513,-0.0346,0.0178,0.0278,0.0346,0.0401,0.0401,0.029,0.0056,-0.0122,-0.0156,-0.0079,-0.0078,-0.0117,-0.1964,-0.2073,0.0,-0.4132,-0.2752,-0.1722,-0.3994,-0.4499,-0.3873,-0.1691,-0.2977,-0.4281,-0.3596,-0.158,0.0,0.0,0.0,0.0,0.0,-0.2781,-0.3933,-0.161,-0.3511,-0.4039,-0.1558,-0.1382,-0.2434,-0.4907,-0.5101,-0.5101,-0.5101,-0.6019,-0.6525,-0.6525,-0.899,-1.0302,-1.0302,-1.0304,-1.0305,-1.0305,-1.0305,-1.0305,-1.0305,-1.0305,-1.0305,-1.0283,-0.998,-0.94,-0.8645,-0.8645,-0.8645,-0.8551,-0.7629,-0.5723,-0.3506,-0.3506,-0.1865,0.0306,0.0156,0.0112,0.0067,-0.0224,-0.0336,-0.0381,-0.0381,-0.0516,-0.0628,-0.0359,-0.0292,-0.0315,-0.0382,-0.0405,-0.0405,-0.0405,-0.0405,-0.0405,-0.0405,0.0022,0.0247,-0.0292,-0.0405,-0.0405,-0.0405,-0.0405,-0.0405,-0.0405,-0.0405,-0.0405,-0.0405,-0.0337,-0.0292,-0.0292,-0.0337,-0.0329,-0.02,-0.0468,-0.0648,-0.0648,-0.0559,-0.029,0.0178,0.0167,0.0211,0.0346,0.0267,0.0089,-0.02,-0.02,-0.0145,-0.0056,-0.0283,-0.0381,0.0,0.0,-0.0768,-0.3444,-0.4039,-0.4066,-0.4425,-0.4499,-0.4482,-0.4381,-0.4432,-0.3603,-0.0687,-0.0073,0.0,0.0,0.0,0.0,0.0,-0.2781,-0.4757,-0.4665,-0.4746,-0.4764,0.0,-0.4835,-0.4985,-0.5101,-0.5101,-0.5101,-0.5101,-0.83,-1.0133,-1.0133,-1.023,-1.0308,-1.0308,-1.0301,-1.0305,-1.0305,-1.0305,-1.0305,-1.0305,-1.0305,-1.0305,-1.0237,-0.9205,-0.8648,-0.8508,-0.8508,-0.8508,-0.818,-0.4932,-0.3598,-0.3506,-0.3506,-0.3436,-0.2987,-0.0488,0.0382,0.0225,-0.076,-0.1208,-0.1366,-0.1366,-0.1366,-0.1188,-0.0269,-0.0022,-0.0067,-0.0337,-0.0405,-0.0405,-0.0405,-0.0405,-0.0405,-0.0405,-0.0382,-0.0382,-0.0405,-0.0405,-0.0405,-0.0405,-0.0405,-0.0405,-0.0405,-0.0405,-0.0405,-0.0405,-0.018,-0.0022,-0.0022,-0.0828,-0.1179,-0.072,-0.057,-0.0502,-0.0502,-0.0502,-0.029,0.0178,-0.0233,-0.0256,0.02,-0.0044,-0.0189,-0.02,-0.02,-0.02,-0.0215,-0.1,-0.1366,-0.4209,0.0,-0.6036,-0.662,-0.7023,-0.6796,-0.492,-0.4499,-0.4499,-0.4499,-0.4499,-0.3586,-0.0558,0.0,0.0,0.0,-0.1797,-0.3177,-0.3177,-0.4124,-0.4793,-0.4793,-0.4793,0.0,0.0,0.0,0.0,-0.4902,-0.5022,-0.5033,-0.4911,-0.8089,-1.0019,-1.0286,-1.0036,-0.9908,-0.9908,-0.9906,-0.9775,-0.9496,-0.9496,-0.9496,-0.9496,-0.9496,-0.9411,-0.9212,-0.8857,-0.862,-0.8508,-0.8508,-0.8008,-0.6978,-0.4339,-0.3294,-0.3315,-0.3442,-0.3506,-0.3372,-0.25,-0.1479,-0.0648,-0.0983,-0.1141,-0.123,-0.1366,-0.141,-0.1208,-0.0269,0.0,-0.0022,-0.0112,-0.0135,-0.0135,-0.0135,-0.027,-0.0405,-0.0405,-0.0405,-0.0584,-0.1205,-0.0828,-0.0606,-0.1227,-0.1338,-0.1272,-0.1098,-0.0539,-0.0359,-0.0987,-0.0985,-0.094,-0.094,-0.1096,-0.1023,-0.0603,-0.0526,-0.0502,-0.0502,-0.0502,-0.0424,-0.0267,-0.029,-0.0222,-0.0067,-0.0156,-0.02,-0.02,-0.0513,-0.0782,-0.1008,-0.1272,-0.141,-0.5893,-0.7739,-0.8945,-0.8267,-0.8497,-0.84,-0.6503,-0.526,-0.4499,-0.4499,-0.3637,-0.2622,-0.1759,-0.0727,-0.0355,-0.1438,-0.3342,-0.4687,-0.4687,-0.4697,-0.4684,-0.4684,-0.4684,-0.5118,0.0,0.0,0.0,-0.4785,-0.4925,-0.4943,-0.4801,-0.6804,-0.8601,-1.0048,-0.9844,-0.9129,-0.7965,-0.911,-0.9491,-0.9109,-0.9109,-0.9109,-0.9109,-0.9109,-0.8919,-0.8608,-0.8142,-0.7909,-0.781,-0.781,-0.7334,-0.6383,-0.409,-0.3208,-0.3208,-0.3336,-0.34,-0.34,-0.3485,-0.245,-0.1094,-0.1094,-0.1272,-0.1474,-0.161,-0.1655,-0.1408,-0.0202,0.0135,0.0112,0.0022,0.0,0.0,0.0,-0.0382,-0.0763,-0.0763,-0.0763,-0.094,-0.1541,-0.1163,-0.0942,-0.1563,-0.1651,-0.1585,-0.1319,-0.0784,-0.0627,-0.1321,-0.1343,-0.1296,-0.1296,-0.1185,-0.0998,-0.0732,-0.0585,-0.0502,-0.0502,-0.0502,-0.0502,-0.0502,-0.0312,-0.0279,-0.0446,-0.0446,-0.0424,-0.0379,-0.0682,-0.1025,-0.141,-0.141,-0.141,-0.9581,-0.95,-0.9286,-0.839,-0.8559,-0.8913,-0.8869,-0.6605,-0.4499,-0.4494,-0.2095,-0.088,0.0,0.0,-0.093,-0.3806,-0.442,-0.4578,-0.4755,-0.4628,-0.4559,0.0,0.0,0.0,0.0,0.0,0.0,-0.5011,0.0,-0.5024,-0.5024,-0.5024,-0.6447,-0.9565,-0.9675,-0.8191,-0.5086,-0.8104,-0.9448,-0.9078,-0.9078,-0.9078,-0.9078,-0.9078,-0.8812,-0.8335,-0.7128,-0.6599,-0.6599,-0.6599,-0.6599,-0.6383,-0.409,-0.3208,-0.3208,-0.3208,-0.3208,-0.3229,-0.3421,-0.2428,-0.1116,-0.1139,-0.1585,-0.21,-0.21,-0.21,-0.1762,-0.0179,0.0292,0.0269,0.0,-0.0067,-0.0067,-0.0067,-0.0739,-0.1388,-0.1388,-0.1388,-0.141,-0.141,-0.141,-0.141,-0.141,-0.1388,-0.1321,-0.1139,-0.1094,-0.1163,-0.1366,-0.1189,-0.1073,-0.1092,-0.1094,-0.1094,-0.1094,-0.0728,-0.049,-0.0479,-0.0479,-0.049,-0.0524,-0.0335,-0.0453,-0.092,-0.0923,-0.0861,-0.0741,-0.073,-0.0956,-0.1388,-0.1388,-0.1388,-0.9534,-0.95,-0.9439,-0.9193,-0.9239,-0.9161,-0.8468,-0.6333,-0.4488,-0.4437,-0.2073,-0.0237,0.0,0.0,0.0,-0.1015,-0.3235,0.0,-0.824,-0.6242,0.0,-0.7514,0.0,-0.8092,-0.8867,-0.8325,0.0,0.0,-0.8005,-0.8005,-0.8005,-0.8005,-0.8399,-0.9236,-0.9253,-0.8984,-0.8461,-0.8689,-0.8766,-0.8652,-0.8652,-0.8652,-0.8652,-0.8652,-0.8088,-0.7064,-0.674,-0.6599,-0.6599,-0.6599,-0.6599,-0.6383,-0.409,-0.3208,-0.3208,-0.3208,-0.3208,-0.3208,-0.3251,-0.2324,-0.1183,-0.1673,-0.1964,-0.21,-0.21,-0.21,-0.2012,-0.1582,-0.1094,-0.0738,-0.0805,-0.0827,-0.0827,-0.0827,-0.1005,-0.1185,-0.1185,-0.1296,-0.141,-0.141,-0.141,-0.141,-0.141,-0.1274,-0.1163,-0.1116,-0.1094,-0.1116,-0.1163,-0.0874,-0.0776,-0.1065,-0.1094,-0.1094,-0.1094,-0.0728,-0.0435,-0.029,-0.0279,-0.0435,-0.0784,-0.0751,-0.09,-0.1264,-0.127,-0.125,-0.1212,-0.1173,-0.1147,-0.1185,-0.1185,-0.1185,-0.95,-0.95,-0.95,-0.95,-0.9367,-0.8771,-0.6934,-0.5464,-0.4117,-0.2755,-0.1149,0.0,0.0,0.0,0.0,0.0,0.0,0.0,-0.8761,-0.7596,-0.7045,0.0,-0.8691,0.0,-0.888,-0.8974,-0.9007,0.0,-0.906,-0.9109,-0.9109,-0.9109,-0.9109,-0.9109,-0.9109,-0.9204,-0.943,-0.8824,-0.8508,-0.8508,-0.8508,-0.8508,-0.8508,-0.8508,-0.7796,-0.6599,0.0,-0.6413,-0.6111,-0.6111,-0.6111,-0.5925,-0.3963,-0.3208,-0.3208,-0.3208,-0.3208,-0.3208,-0.3208,-0.2676,-0.2019,-0.1982,-0.1964,-0.1986,-0.2078,-0.21,-0.21,-0.21,-0.1607,-0.1094,-0.1094,-0.1094,-0.1094,-0.1094,-0.1094,-0.1094,-0.1094,-0.1185,-0.1274,-0.1274,-0.1274,-0.1274,-0.1274,-0.1185,-0.1094,-0.1094,-0.1094,-0.1094,-0.1094,-0.0896,-0.0849,-0.1073,-0.1094,-0.1094,-0.1094,-0.0704,-0.0404,-0.029,-0.0377,-0.0537,-0.0796,-0.092,-0.1078,-0.1267,-0.1335,-0.1366,-0.1366,-0.1321,-0.123,-0.1094,-0.125,-0.1294,-0.943,-0.9447,-0.9465,-0.935,-0.905,-0.803,-0.5106,-0.4174,-0.3163,-0.0541,0.0,0.0,0.0,0.0,-0.0893,-0.3648,0.0,-0.534,-0.7763,-0.8497,-0.8801,-0.8801,-0.8383,-0.828,-0.8738,-0.8801,-0.8801,-0.8801,-0.8902,-0.8985,-0.9007,-0.9018,-0.9018,-0.9018,-0.9018,-0.8936,-0.8722,-0.8377,-0.8214,-0.8214,-0.8214,-0.8214,-0.8214,-0.8214,-0.7562,-0.646,-0.646,-0.6093,-0.5492,-0.5473,-0.5454,-0.531,-0.3855,-0.3223,-0.3144,-0.3187,-0.3208,-0.3208,-0.3208,-0.3208,-0.3052,-0.211,-0.1803,-0.1828,-0.2008,-0.2056,-0.2037,-0.1922,-0.1573,-0.1205,-0.1116,-0.1094,-0.1094,-0.1094,-0.1094,-0.1082,-0.1032,-0.1061,-0.1094,-0.1094,-0.1094,-0.1094,-0.1094,-0.1094,-0.1094,-0.1094,-0.1094,-0.1094,-0.1094,-0.1094,-0.1094,-0.1094,-0.105,-0.1005,-0.1005,-0.0739,-0.0584,-0.0584,-0.066,-0.0706,-0.0706,-0.0943,-0.1074,-0.1101,-0.1231,-0.1296,-0.1296,-0.1274,-0.123,-0.1141,-0.1424,-0.1516,-0.9088,-0.9237,-0.9322,-0.8534,-0.8293,-0.752,-0.4781,-0.2417,0.0,0.0,0.0,0.0,0.0,0.0,-0.0893,-0.3648,-0.4332,-0.534,-0.7763,-0.8176,-0.8243,0.0,-0.8162,-0.8135,-0.8229,0.0,0.0,0.0,0.0,-0.8374,-0.8592,-0.8604,-0.8604,-0.8604,-0.8604,-0.8017,-0.6799,-0.6709,-0.6689,-0.6689,-0.6689,-0.6689,-0.6689,-0.6689,-0.6324,-0.5689,-0.5689,0.0,-0.5492,-0.5272,-0.5166,-0.5069,-0.415,-0.3408,-0.2902,-0.3122,-0.3208,-0.3208,-0.3208,-0.3208,-0.3052,-0.211,-0.1803,-0.1803,-0.185,-0.185,-0.17,-0.0978,-0.1335,-0.1809,-0.1252,-0.1094,-0.1094,-0.1094,-0.1094,-0.1011,-0.0678,-0.0862,-0.1094,-0.1094,-0.1094,-0.1094,-0.1094,-0.1094,-0.1094,-0.1094,-0.1094,-0.1094,-0.1094,-0.1094,-0.1094,-0.1094,-0.0761,-0.0516,-0.0516,-0.1161,-0.156,-0.156,-0.1024,-0.0706,-0.0706,-0.0845,-0.0986,-0.1096,-0.1173,-0.1252,-0.1296,-0.1139,-0.1163,-0.1343,-0.1296,-0.1427,-0.9011,-0.9054,-0.9009,-0.8293,-0.8094,-0.74,-0.471,0.0,0.0,0.0,0.0,0.0,0.0,0.0,0.0,-0.3843,-0.4307,-0.4698,-0.5863,-0.7215,0.0,-0.8094,-0.8094,-0.8094,0.0,0.0,0.0,0.0,0.0,-0.8149,-0.8285,-0.704,-0.699,-0.846,-0.7766,-0.7007,-0.6295,-0.6295,-0.6295,-0.6295,-0.6295,-0.6295,-0.6295,-0.6295,-0.5936,-0.5291,-0.5291,0.0,-0.5253,-0.4706,-0.4466,-0.4406,-0.3626,-0.3111,-0.2816,-0.2945,-0.2988,-0.3009,-0.3144,-0.3208,-0.3052,-0.211,-0.1803,-0.1803,-0.1803,-0.1586,-0.1246,-0.0829,-0.1306,-0.1734,-0.0859,-0.0681,-0.0739,-0.0739,-0.0918,-0.1046,-0.0851,-0.0971,-0.1094,-0.1094,-0.1094,-0.1094,-0.1094,-0.1094,-0.1094,-0.1094,-0.0895,-0.0739,-0.0739,-0.1161,-0.1272,-0.0784,-0.0539,-0.0606,-0.1094,-0.1408,-0.1488,-0.124,-0.0895,-0.0682,-0.0648,-0.0781,-0.0888,-0.099,-0.1058,-0.1163,-0.1296,-0.1139,-0.1163,-0.1343,-0.1388,-0.1477,-0.899,-0.8891,-0.8778,-0.8243,-0.8082,-0.735,-0.467,-0.1957,0.0,0.0,0.0,0.0,0.0,0.0,-0.1014,0.0,-0.4373,-0.417,-0.4101,-0.6413,-0.8094,0.0,-0.8094,0.0,-0.8094,0.0,0.0,0.0,0.0,0.0,-0.8094,-0.5652,-0.541,-0.7957,-0.6907,-0.6295,-0.6295,-0.6295,-0.6295,-0.6295,-0.6295,-0.6295,-0.6278,-0.595,-0.544,-0.4853,-0.4853,0.0,0.0,-0.4171,-0.3807,-0.3612,-0.3025,-0.2794,-0.2794,-0.2794,-0.2794,-0.2837,-0.3031,-0.3122,-0.2966,-0.2022,-0.1759,-0.1803,-0.1803,-0.1384,-0.0899,-0.0899,-0.1343,-0.156,-0.0483,-0.0302,-0.0405,-0.0405,-0.0672,-0.094,-0.094,-0.094,-0.094,-0.094,-0.094,-0.094,-0.094,-0.094,-0.094,-0.094,-0.0806,-0.0696,-0.0696,-0.1294,-0.1427,-0.0696,-0.0606,-0.0918,-0.1651,-0.142,-0.11,-0.0728,-0.0706,-0.0693,-0.0668,-0.0758,-0.0831,-0.0922,-0.1013,-0.1141,-0.1296,-0.1185,-0.1208,-0.1343,-0.1455,-0.1457,-0.8902,-0.8891,-0.8778,-0.8243,-0.8012,-0.7208,-0.4527,0.0,0.0,0.0,0.0,0.0,0.0,0.0,-0.1094,-0.4415,0.0,-0.4382,-0.4135,-0.6413,-0.8094,-0.8094,0.0,0.0,-0.8094,0.0,0.0,0.0,0.0,0.0,-0.8066,-0.5575,-0.4849,-0.6452,-0.6383,-0.6295,-0.6295,-0.6295,-0.6295,-0.6295,-0.6295,-0.6295,-0.6242,-0.4777,-0.4089,-0.4007,-0.4007,0.0,0.0,-0.3931,-0.3507,-0.2896,-0.2837,-0.2794,-0.2794,-0.2794,-0.2794,-0.2816,-0.2837,-0.2837,-0.2681,-0.174,-0.1607,-0.1803,-0.1803,-0.1384,-0.0899,-0.0899,-0.1343,-0.156,-0.0483,-0.0302,-0.0405,-0.0405,-0.0427,-0.0471,-0.0471,-0.0471,-0.0471,-0.0471,-0.0471,-0.0471,-0.0471,-0.0471,-0.0471,-0.0471,-0.1161,-0.167,-0.167,-0.1541,-0.141,-0.1321,-0.1299,-0.1343,-0.1433,-0.1017,-0.0752,-0.0709,-0.0706,-0.0752,-0.0875,-0.0833,-0.0863,-0.098,-0.1171,-0.1274,-0.1296,-0.123,-0.1296,-0.148,-0.1252,-0.123,-0.8417,-0.7417,-0.584,-0.5623,-0.5531,-0.5222,-0.4144,0.0,0.0,0.0,0.0,0.0,0.0,0.0,-0.0437,-0.1766,-0.1871,-0.2385,-0.4089,-0.6262,-0.768,-0.768,-0.768,0.0,0.0,0.0,0.0,0.0,0.0,0.0,-0.7034,-0.6001,-0.5689,-0.6271,-0.6295,-0.6295,-0.6295,-0.6295,-0.5811,-0.4855,-0.4855,-0.4855,-0.4836,-0.4203,-0.3911,-0.3911,-0.3911,0.0,0.0,-0.3911,-0.3465,-0.2794,-0.2794,-0.2794,-0.2794,-0.2794,-0.2794,-0.2794,-0.2794,-0.2794,-0.2637,-0.1696,-0.1477,-0.1563,-0.1563,-0.1498,-0.1373,-0.1001,-0.1343,-0.1705,-0.1283,-0.0785,-0.036,-0.0202,-0.0157,-0.0157,-0.0157,-0.0157,-0.0157,-0.0157,-0.0292,-0.0405,-0.0405,-0.074,-0.1054,-0.1227,-0.143,-0.1563,-0.1563,-0.1477,-0.141,-0.141,-0.141,-0.1295,-0.1012,-0.0814,-0.0706,-0.0706,-0.0626,-0.0707,-0.1015,-0.1102,-0.1117,-0.1005,-0.1167,-0.1274,-0.1366,-0.1296,-0.1343,-0.1502,-0.1343,-0.1296,-0.6939,-0.573,-0.4084,-0.4884,-0.4495,-0.3697,0.0,-0.1327,0.0,0.0,0.0,0.0,0.0,0.0,0.0,0.0,0.0,-0.0744,-0.2875,-0.5118,-0.6551,0.0,0.0,-0.7392,0.0,0.0,0.0,0.0,0.0,0.0,-0.6313,-0.6081,-0.6063,-0.6295,-0.6295,-0.6295,-0.6295,-0.6295,-0.5486,-0.3911,-0.3911,-0.3911,-0.3911,-0.3911,-0.3911,-0.3911,-0.3911,0.0,0.0,-0.3507,-0.3062,-0.2599,-0.2599,-0.2599,-0.2599,-0.2599,-0.2686,-0.2794,-0.2794,-0.2794,-0.2637,-0.1696,-0.141,-0.141,-0.141,-0.1544,-0.1591,-0.1168,-0.1353,-0.1626,-0.1336,-0.0782,-0.0225,-0.0045,0.0,-0.0067,-0.0359,-0.0403,-0.0403,-0.0403,-0.0561,-0.0696,-0.0696,-0.1098,-0.1455,-0.1651,-0.1519,-0.141,-0.141,-0.141,-0.1388,-0.1321,-0.1321,-0.1193,-0.0927,-0.0915,-0.0884,-0.0826,-0.0723,-0.0808,-0.1084,-0.1096,-0.11,-0.1126,-0.1202,-0.1274,-0.141,-0.1366,-0.1388,-0.148,-0.141,-0.1296,-0.4214,-0.4022,-0.454,-0.7195,-0.5865,-0.322,-0.0626,-0.0015,0.0,0.0,0.0,0.0,0.0,0.0,0.0,0.0,0.0,-0.0017,-0.0051,-0.2632,0.0,0.0,0.0,-0.7392,-0.7392,0.0,0.0,0.0,0.0,0.0,-0.626,-0.5537,-0.548,-0.6278,-0.6295,-0.6295,-0.6295,-0.6295,-0.5486,-0.3911,-0.3911,-0.3911,-0.3911,-0.3911,-0.3911,-0.3911,0.0,0.0,0.0,-0.2616,-0.2122,-0.21,-0.21,-0.21,-0.21,-0.21,-0.2403,-0.2794,-0.2794,-0.2794,-0.2637,-0.1696,-0.141,-0.141,-0.141,-0.141,-0.141,-0.1405,-0.1408,-0.1185,-0.0269,-0.0022,0.0,0.0,0.0,-0.0247,-0.1188,-0.1388,-0.1388,-0.1388,-0.1388,-0.1388,-0.1388,-0.1388,-0.141,-0.141,-0.141,-0.141,-0.141,-0.141,-0.1321,-0.1116,-0.1094,-0.1183,-0.138,-0.1405,-0.1314,-0.1112,-0.109,-0.109,-0.1094,-0.065,-0.0718,-0.1385,-0.1341,-0.1343,-0.141,-0.1457,-0.1457,-0.1388,-0.1343,-0.1163,-0.361,-0.4,-0.4099,-0.4958,-0.3181,-0.1491,-0.2445,-0.1282,0.0,0.0,0.0,0.0,0.0,0.0,0.0,0.0,0.0,0.0,0.0,0.0,0.0,-0.4494,-0.6499,-0.7753,0.0,0.0,0.0,0.0,0.0,0.0,-0.3686,-0.3397,-0.3546,-0.4161,-0.5426,-0.5834,-0.5281,-0.5281,-0.4726,-0.3626,-0.3626,-0.3626,-0.3626,-0.3626,-0.3626,0.0,0.0,0.0,0.0,-0.2534,-0.21,-0.21,-0.21,-0.21,-0.21,-0.21,-0.2188,-0.232,-0.232,-0.232,-0.2206,-0.1449,-0.1185,-0.1185,-0.1185,-0.1296,-0.141,-0.141,-0.141,-0.1188,-0.0247,-0.0471,-0.0806,-0.0157,-0.0493,-0.1029,-0.1343,-0.141,-0.141,-0.141,-0.1296,-0.1185,-0.1185,-0.1185,-0.1185,-0.1185,-0.1185,-0.1185,-0.1185,-0.1185,-0.1163,-0.1116,-0.1094,-0.1116,-0.1185,-0.1185,-0.1163,-0.1094,-0.1094,-0.125,-0.156,-0.1427,-0.1361,-0.1388,-0.148,-0.148,-0.141,-0.1366,-0.1321,-0.1252,-0.1141,-0.1036,0.0,-0.3284,-0.243,-0.243,-0.1207,-0.0432,-0.2057,-0.1163,0.0,0.0,0.0,0.0,0.0,0.0,-0.0366,-0.1482,-0.1665,0.0,0.0,0.0,0.0,-0.5001,0.0,0.0,0.0,-0.6341,-0.5667,-0.4863,0.0,0.0,-0.3351,-0.2732,-0.2549,-0.2882,-0.4621,-0.5156,-0.4321,-0.4624,-0.4362,-0.3506,-0.3506,-0.3506,-0.3506,-0.3506,-0.3506,0.0,0.0,0.0,0.0,-0.2337,-0.21,-0.21,-0.21,-0.21,-0.21,-0.21,-0.21,-0.21,-0.21,-0.1946,-0.1651,-0.123,-0.1094,-0.1094,-0.1094,-0.1185,-0.1296,-0.1296,-0.1296,-0.1141,-0.056,-0.0851,-0.1141,-0.056,-0.0918,-0.141,-0.141,-0.141,-0.141,-0.141,-0.123,-0.1094,-0.1094,-0.1094,-0.1094,-0.1094,-0.1094,-0.1094,-0.1094,-0.1094,-0.1094,-0.1094,-0.1094,-0.1161,-0.1361,-0.1205,-0.1205,-0.1452,-0.1405,-0.1493,-0.1781,-0.1692,-0.1563,-0.141,-0.148,-0.148,-0.141,-0.1343,-0.1274,-0.123,-0.1094,-0.0963,0.0,-0.1939,0.0,0.0,0.0,0.0,0.0,0.0,0.0,0.0,0.0,0.0,0.0,0.0,-0.0899,-0.3647,-0.4246,0.0,0.0,-0.4186,0.0,0.0,-0.6171,0.0,-0.6016,-0.5943,-0.5611,-0.4843,0.0,0.0,-0.4793,-0.331,-0.2437,-0.2374,-0.3876,-0.4292,-0.3506,-0.4301,-0.4301,-0.3506,-0.3506,-0.3506,-0.3506,-0.3506,-0.3506,0.0,0.0,0.0,0.0,-0.21,-0.21,-0.21,-0.21,-0.21,-0.21,-0.21,-0.21,-0.21,-0.2034,-0.1629,-0.1094,-0.1094,-0.1094,-0.1094,-0.1094,-0.1094,-0.1094,-0.1094,-0.1094,-0.1094,-0.1094,-0.1094,-0.1094,-0.1094,-0.1252,-0.1388,-0.1388,-0.1388,-0.1388,-0.1388,-0.123,-0.1094,-0.1094,-0.1094,-0.1094,-0.1094,-0.1094,-0.1116,-0.1161,-0.1161,-0.1161,-0.1161,-0.1161,-0.1316,-0.1736,-0.1383,-0.1385,-0.2034,-0.1894,-0.1784,-0.1784,-0.1544,-0.141,-0.141,-0.141,-0.1388,-0.1388,-0.1321,-0.1274,-0.1274,-0.1163,-0.0952,-0.0785,0.0,0.0,0.0,0.0,0.0,0.0,0.0,0.0,0.0,0.0,0.0,0.0,0.0,-0.0233,-0.0916,0.0,0.0,-0.4026,0.0,0.0,-0.5958,-0.6034,-0.6052,-0.5998,-0.5442,-0.5,-0.4812,-0.4793,-0.4793,-0.4793,-0.3702,-0.28,-0.2187,-0.2989,-0.3441,-0.3499,-0.371,-0.371,-0.3506,-0.3506,-0.3506,-0.3506,-0.3506,-0.3506,0.0,0.0,0.0,-0.21,-0.21,-0.21,-0.21,-0.21,-0.21,-0.21,-0.21,-0.21,-0.2034,-0.1519,-0.123,-0.1094,-0.1094,-0.1094,-0.1094,-0.1094,-0.1094,-0.1094,-0.1094,-0.1094,-0.1094,-0.1094,-0.1094,-0.1094,-0.1094,-0.1139,-0.1163,-0.1163,-0.1163,-0.1163,-0.1163,-0.1139,-0.1094,-0.1094,-0.1094,-0.1094,-0.1094,-0.1094,-0.1294,-0.1809,-0.174,-0.1626,-0.1626,-0.1626,-0.1607,-0.1496,-0.1388,-0.1474,-0.185,-0.1629,-0.1499,-0.1499,-0.1433,-0.141,-0.141,-0.141,-0.1321,-0.1163,-0.1163,-0.1141,-0.1141,-0.1116,-0.0993,0.0,0.0,0.0,0.0,0.0,0.0,0.0,0.0,0.0,0.0,0.0,-0.0416,-0.1765,-0.2015,-0.2015,0.0,-0.32,0.0,0.0,0.0,-0.5998,-0.5998,-0.5998,-0.5852,0.0,0.0,-0.4793,-0.4793,-0.4793,-0.4793,-0.4793,-0.3939,-0.3277,-0.293,-0.2915,-0.2959,-0.3082,-0.3373,-0.3506,-0.3506,-0.3436,-0.3302,-0.3132,-0.3393,-0.3506,0.0,0.0,0.0,-0.21,-0.21,-0.21,-0.21,-0.2008,-0.1964,-0.1964,-0.1964,-0.1964,-0.192,-0.1538,-0.1272,-0.1094,-0.1094,-0.1094,-0.1094,-0.1094,-0.094,-0.0828,-0.1027,-0.1094,-0.1094,-0.1094,-0.1094,-0.1094,-0.1094,-0.1094,-0.1094,-0.1094,-0.1094,-0.1094,-0.1094,-0.1094,-0.1094,-0.1094,-0.1094,-0.1094,-0.1094,-0.1361,-0.1696,-0.2056,-0.1916,-0.1803,-0.1803,-0.1696,-0.1563,-0.141,-0.141,-0.1455,-0.1607,-0.1477,-0.141,-0.141,-0.141,-0.141,-0.141,-0.1321,-0.1208,-0.1094,-0.1094,-0.1094,-0.1098,-0.1267,-0.1085,0.0,0.0,0.0,0.0,0.0,0.0,0.0,0.0,0.0,0.0,0.0,0.0,0.0,-0.3974,0.0,0.0,0.0,0.0,-0.6003,-0.6141,-0.6141,-0.6141,-0.6052,0.0,-0.4882,-0.4793,-0.4812,-0.4843,-0.4812,-0.4765,-0.4682,-0.3964,-0.3615,-0.3723,-0.3094,-0.2713,-0.2647,-0.3155,-0.3425,-0.3485,-0.3366,-0.3126,-0.2789,-0.3089,-0.3245,-0.3245,0.0,0.0,-0.2056,-0.2056,-0.2056,-0.2034,-0.1872,-0.1803,-0.1781,-0.1648,-0.1582,-0.1604,-0.1759,-0.1449,-0.0985,-0.0985,-0.0985,-0.0985,-0.0985,-0.0717,-0.0471,-0.0873,-0.105,-0.1094,-0.1094,-0.1094,-0.1094,-0.1094,-0.1094,-0.1094,-0.1094,-0.1094,-0.1072,-0.1005,-0.0985,-0.0985,-0.0985,-0.0985,-0.0985,-0.0985,-0.1474,-0.1898,-0.2034,-0.1894,-0.1803,-0.1803,-0.1563,-0.141,-0.141,-0.141,-0.1388,-0.1366,-0.1388,-0.141,-0.141,-0.1366,-0.1343,-0.1343,-0.1185,-0.1094,-0.1094,-0.1094,-0.1123,-0.1186,-0.1344,-0.1107,0.0,0.0,0.0,0.0,0.0,0.0,0.0,0.0,0.0,0.0,0.0,0.0,0.0,-0.2068,-0.322,0.0,0.0,-0.5998,0.0,0.0,-0.6761,-0.6761,0.0,-0.5686,-0.4882,-0.4793,-0.4863,-0.503,-0.4902,-0.4599,-0.4158,-0.3623,-0.3225,-0.2981,-0.27,-0.2643,-0.2861,-0.2953,-0.3136,-0.3415,-0.3338,-0.3239,-0.3095,-0.2394,-0.2066,-0.2066,0.0,-0.1978,-0.185,-0.185,-0.185,-0.185,-0.1803,-0.1803,-0.1714,-0.0918,-0.0606,-0.0739,-0.1516,-0.1227,-0.0516,-0.0516,-0.0516,-0.0516,-0.0516,-0.0449,-0.0405,-0.0494,-0.0784,-0.1094,-0.1094,-0.1094,-0.1094,-0.1094,-0.1094,-0.1094,-0.1094,-0.1094,-0.0985,-0.0584,-0.0516,-0.0516,-0.0516,-0.0516,-0.0516,-0.0516,-0.0606,-0.094,-0.1736,-0.1825,-0.1803,-0.1803,-0.1563,-0.141,-0.141,-0.141,-0.1321,-0.1163,-0.1299,-0.141,-0.141,-0.123,-0.1141,-0.1141,-0.1116,-0.1094,-0.1094,-0.1094,-0.1255,-0.1495,-0.0924,-0.0605,0.0,0.0,0.0,0.0,0.0,0.0,0.0,0.0,0.0,0.0,0.0,0.0,0.0,0.0,-0.3467,-0.4871,0.0,-0.6088,-0.6371,-0.6406,-0.6406,0.0,0.0,-0.5204,-0.4832,-0.4793,-0.4843,-0.4922,-0.4724,-0.4466,-0.4181,-0.3744,-0.3446,-0.3285,-0.305,-0.3001,-0.3108,-0.3109,-0.3193,-0.3338,-0.3163,-0.3041,-0.2966,-0.242,-0.2048,-0.1803,0.0,-0.1803,-0.1803,-0.1803,-0.1803,-0.1803,-0.1803,-0.1493,-0.0985,-0.0561,-0.0405,-0.0471,-0.0895,-0.0761,-0.0405,-0.0405,-0.0405,-0.0405,-0.0405,-0.0405,-0.0405,-0.0405,-0.0561,-0.0717,-0.0717,-0.0717,-0.0717,-0.0717,-0.0717,-0.0717,-0.0717,-0.0717,-0.065,-0.0449,-0.0405,-0.0405,-0.0405,-0.0405,-0.0561,-0.1072,-0.1161,-0.1316,-0.1736,-0.1803,-0.1736,-0.1607,-0.1477,-0.141,-0.141,-0.1296,-0.1208,-0.1116,-0.1185,-0.123,-0.123,-0.1141,-0.1094,-0.1094,-0.1094,-0.1094,-0.1094,-0.1292,-0.1235,-0.1007,-0.0672,-0.0504,0.0,0.0,0.0,0.0,0.0,-0.0125,-0.059,0.0,0.0,0.0,0.0,0.0,0.0,-0.2994,0.0,-0.6178,-0.6177,-0.5881,-0.5881,-0.5881,-0.5881,-0.5881,-0.5243,-0.4793,-0.4793,-0.4684,-0.4644,-0.4684,-0.4443,-0.422,-0.4051,-0.3752,-0.3556,-0.3502,-0.329,-0.3212,-0.3275,-0.3275,-0.3254,-0.3205,-0.2987,-0.2848,-0.2729,-0.2577,-0.225,-0.1803,-0.1803,-0.1803,-0.1803,-0.1803,-0.1803,-0.1781,-0.156,-0.1005,-0.0337,-0.0627,-0.0539,-0.0315,-0.0315,-0.0315,-0.0315,-0.0315,-0.0315,-0.0315,-0.0315,-0.0315,-0.0315,-0.0382,-0.036,-0.0315,-0.0382,-0.0405,-0.0405,-0.0405,-0.0405,-0.0405,-0.0405,-0.0405,-0.0405,-0.0405,-0.0405,-0.0471,-0.0694,-0.0673,-0.0873,-0.1607,-0.1759,-0.1803,-0.1803,-0.1736,-0.1629,-0.1433,-0.141,-0.1388,-0.1343,-0.1185,-0.1094,-0.1094,-0.1094,-0.1094,-0.1094,-0.1094,-0.1094,-0.1094,-0.0985,-0.0985,-0.1096,-0.1255,-0.104,-0.0504,-0.0504,-0.0504,0.0,0.0,0.0,0.0,0.0,0.0,-0.2359,-0.1338,0.0,-0.2153,0.0,0.0,0.0,-0.2972,-0.3356,-0.5297,-0.5568,-0.553,-0.553,0.0,-0.553,-0.553,-0.5098,-0.4793,-0.4793,-0.4345,-0.4142,-0.4333,-0.4142,-0.3802,-0.3306,-0.3255,-0.3132,-0.2881,-0.2844,-0.2959,-0.3202,-0.3208,-0.3111,-0.2923,-0.2901,-0.2762,-0.2517,-0.2517,-0.225,-0.1803,-0.1803,-0.1803,-0.1803,-0.1803,-0.1803,-0.1714,-0.0851,-0.0314,-0.0157,-0.1292,-0.0981,-0.0022,-0.0022,-0.0022,-0.0022,-0.0022,-0.0022,-0.0022,-0.0022,-0.0022,-0.009,-0.0337,-0.0225,-0.009,-0.0337,-0.0405,-0.0405,-0.0405,-0.0405,-0.0405,-0.0405,-0.0405,-0.0405,-0.0405,-0.0405,-0.0672,-0.1538,-0.1496,-0.1343,-0.141,-0.1651,-0.1803,-0.1803,-0.1585,-0.1433,-0.141,-0.141,-0.1321,-0.1139,-0.1116,-0.1094,-0.1094,-0.1094,-0.1094,-0.1094,-0.1094,-0.1094,-0.1094,-0.0672,-0.0672,-0.1096,-0.0747,-0.0538,-0.0504,-0.0504,-0.0504,0.0,0.0,0.0,0.0,0.0,0.0,0.0,-0.2217,-0.1868,-0.2561,-0.2694,0.0,0.0,0.0,-0.3172,-0.3454,-0.4627,-0.5349,-0.4932,-0.4873,-0.4873,-0.4873,-0.4715,-0.4615,-0.4615,-0.4426,-0.4264,-0.4122,-0.4032,-0.3836,-0.3467,-0.3286,-0.3158,-0.3056,-0.3056,-0.3105,-0.3208,-0.3031,-0.2859,-0.2659,-0.2659,-0.2599,-0.2495,-0.2202,-0.196,-0.1803,-0.1803,-0.1803,-0.1803,-0.1803,-0.1803,-0.1714,-0.0761,-0.0337,-0.0359,-0.123,-0.0894,0.0,0.0,0.0,0.0,0.0,0.0,0.0,0.0,0.0,-0.0022,-0.0112,-0.0067,-0.0022,-0.0135,-0.0157,-0.0157,-0.0157,-0.0157,-0.0157,-0.0157,-0.0157,-0.0202,-0.036,-0.074,-0.1141,-0.1496,-0.1477,-0.141,-0.141,-0.1477,-0.1541,-0.1541,-0.1455,-0.141,-0.141,-0.1296,-0.1185,-0.1116,-0.0868,-0.0724,-0.0724,-0.0969,-0.0962,-0.0672,-0.0938,-0.1094,-0.1094,-0.0628,-0.052,-0.0734,-0.058,-0.0504,-0.0504,-0.0504,-0.0504,0.0,0.0,-0.0133,-0.0704,0.0,0.0,-0.2451,-0.2799,-0.2694,-0.2694,-0.2694,0.0,0.0,0.0,0.0,0.0,-0.3832,-0.4495,-0.4506,-0.4507,-0.4507,-0.4507,-0.4507,-0.4386,-0.4122,-0.4081,-0.3999,-0.3772,-0.3751,-0.3675,-0.3493,-0.3287,-0.3181,-0.3208,-0.3095,-0.3052,-0.3074,-0.2816,-0.2555,-0.2337,-0.2337,-0.2315,-0.2272,-0.1938,-0.1803,-0.1803,-0.1714,-0.1673,-0.1673,-0.1759,-0.1579,-0.1203,-0.0938,-0.0784,-0.074,-0.0895,-0.056,0.0,0.0,0.0,0.0,0.0,0.0,0.0,0.0,0.0,0.0,0.0,0.0,0.0,0.0,0.0,0.0,0.0,0.0,-0.009,-0.0381,-0.0448,-0.0493,-0.0673,-0.1076,-0.141,-0.141,-0.141,-0.141,-0.141,-0.141,-0.141,-0.141,-0.141,-0.1333,-0.1126,-0.0998,-0.0902,-0.0902,-0.0782,-0.0633,-0.0471,-0.0723,-0.0739,-0.0405,-0.0718,-0.0893,-0.0904,-0.0598,-0.0438,-0.0481,-0.0487,-0.0504,-0.0504,-0.0504,-0.0504,0.0,0.0,-0.0439,0.0,0.0,0.0,-0.2794,-0.2981,-0.2694,-0.2694,0.0,-0.2617,-0.2379,0.0,0.0,-0.4606,-0.3274,-0.2829,-0.43,-0.4486,-0.4486,-0.4486,-0.4486,-0.4142,-0.3287,-0.3208,-0.3208,-0.3208,-0.3208,-0.3208,-0.3208,-0.3138,-0.3138,-0.3187,-0.2875,-0.2745,-0.2794,-0.2534,-0.2267,-0.2008,-0.2008,-0.1916,-0.1803,-0.1803,-0.1803,-0.1781,-0.1519,-0.141,-0.141,-0.1673,-0.107,-0.0112,-0.1314,-0.1629,-0.1277,-0.0337,0.0,0.0,0.0,0.0,0.0,0.0,0.0,0.0,0.0,0.0,0.0,0.0,0.0,-0.0023,-0.0023,-0.0023,-0.0023,-0.0022,-0.0022,-0.0269,-0.1208,-0.141,-0.141,-0.141,-0.141,-0.141,-0.141,-0.141,-0.1388,-0.1388,-0.1388,-0.1388,-0.141,-0.1388,-0.117,-0.0562,-0.0502,-0.0503,-0.0507,-0.0868,-0.0895,-0.0427,-0.0405,-0.0405,-0.0405,-0.0405,-0.0442,-0.0502,-0.0504,-0.0479,-0.0407,-0.048,-0.0504,-0.0504,-0.0504,-0.0504,0.0,0.0,0.0,-0.2245,0.0,0.0,0.0,-0.2789,0.0,0.0,-0.2412,-0.285,-0.4285,0.0,0.0,-0.4527,-0.4137,-0.3999,-0.4446,-0.3965,-0.3598,-0.3598,-0.3598,-0.3493,-0.3229,-0.3208,-0.3208,-0.3208,-0.3208,-0.3208,-0.3208,-0.3089,-0.3046,-0.3064,-0.2961,-0.2848,-0.2724,-0.2611,-0.2389,-0.2062,-0.1832,-0.1743,-0.1803,-0.1803,-0.1696,-0.1519,-0.1433,-0.141,-0.1366,-0.0782,-0.0314,-0.0045,-0.0403,-0.0492,-0.0381,-0.0112,0.0,0.0,0.0,0.0,0.0,0.0,0.0,0.0,0.0,0.0,0.0,0.0,-0.0726,-0.1484,-0.1484,-0.1484,-0.1388,-0.1064,-0.0985,-0.1052,-0.1343,-0.141,-0.141,-0.141,-0.141,-0.141,-0.141,-0.141,-0.1343,-0.1208,-0.1185,-0.123,-0.1388,-0.1274,-0.1013,-0.055,-0.0502,-0.0612,-0.0892,-0.1032,-0.0895,-0.0427,-0.0405,-0.0405,-0.0405,-0.0405,-0.0442,-0.0502,-0.0504,-0.0488,-0.0485,-0.0488,-0.0504,-0.0504,-0.0504,-0.0504,0.0,-0.0446,0.0,-0.2271,-0.2549,-0.2549,-0.2549,0.0,0.0,0.0,0.0,-0.2871,-0.476,-0.4765,0.0,-0.404,-0.3986,-0.3986,-0.3986,-0.3535,-0.3208,-0.3208,-0.3208,-0.3208,-0.3208,-0.3208,-0.3208,-0.3208,-0.3208,-0.3165,-0.3052,-0.2961,-0.2945,-0.3005,-0.2837,-0.2719,-0.2654,-0.235,-0.211,-0.1891,-0.1632,-0.1566,-0.1651,-0.1759,-0.1718,-0.1563,-0.1455,-0.141,-0.1321,-0.0381,0.0,0.0,0.0,0.0,0.0,0.0,0.0,0.0,0.0,0.0,0.0,0.0,0.0,0.0,0.0,-0.0403,-0.0834,-0.0839,-0.1442,-0.2081,-0.1947,-0.1911,-0.1881,-0.1703,-0.1665,-0.1665,-0.1665,-0.1544,-0.141,-0.141,-0.141,-0.141,-0.141,-0.1343,-0.123,-0.1116,-0.1094,-0.1141,-0.1274,-0.1185,-0.1011,-0.0772,-0.0734,-0.0837,-0.1075,-0.1094,-0.0895,-0.0427,-0.0405,-0.0405,-0.0429,-0.0431,-0.0464,-0.0503,-0.0504,-0.0504,-0.0504,-0.0504,-0.0504,-0.0504,-0.0504,-0.0504,0.0,0.0,0.0,-0.2302,-0.2302,0.0,-0.2302,-0.249,-0.2598,-0.2352,0.0,-0.2707,-0.4051,-0.4309,-0.403,-0.3239,-0.3162,-0.3229,-0.3309,-0.3251,-0.3208,-0.3208,-0.3208,-0.3208,-0.3208,-0.3208,-0.3208,-0.3208,-0.3208,-0.3095,-0.2859,-0.2816,-0.2864,-0.2978,-0.2621,-0.2485,-0.2562,-0.1982,-0.1658,-0.1569,-0.1457,-0.141,-0.141,-0.1651,-0.1759,-0.1759,-0.1496,-0.141,-0.1321,-0.0381,0.0,0.0,-0.009,-0.008,0.0,0.0,0.0,0.0,0.0,0.0,-0.0025,-0.0157,-0.0201,-0.0201,-0.0201,-0.1074,-0.2117,-0.2117,-0.2083,-0.1981,-0.1676,-0.1609,-0.1676,-0.1981,-0.2047,-0.2047,-0.2047,-0.1749,-0.1461,-0.1418,-0.141,-0.1401,-0.142,-0.1263,-0.1134,-0.11,-0.1123,-0.1132,-0.1098,-0.1094,-0.1094,-0.1094,-0.1094,-0.1094,-0.1094,-0.1052,-0.0851,-0.0427,-0.0416,-0.0425,-0.05,-0.0504,-0.0504,-0.0504,-0.0504,-0.0504,-0.0504,-0.0504,-0.0504,-0.0504,-0.0504,-0.0504,0.0,-0.1129,0.0,0.0,-0.2302,-0.2302,-0.2302,-0.2342,-0.2362,-0.2312,-0.2302,-0.2397,-0.2716,-0.2768,-0.2707,-0.2522,-0.2895,-0.3429,-0.4122,-0.364,-0.3208,-0.3208,-0.3208,-0.3208,-0.3208,-0.3208,-0.3208,-0.3208,-0.3208,-0.3187,-0.3122,-0.2923,-0.2816,-0.2837,-0.2751,-0.2546,-0.2211,-0.2437,-0.218,0.0,-0.141,-0.141,-0.141,-0.1455,-0.1477,-0.1477,-0.1433,-0.141,-0.1321,-0.0381,0.0,-0.0067,-0.0806,-0.0655,0.0,0.0,0.0,0.0,0.0,0.0,-0.0189,-0.1288,-0.1644,-0.1644,-0.1644,-0.1847,-0.2117,-0.2117,-0.1911,-0.1676,-0.1609,-0.1609,-0.1609,-0.1676,-0.1709,-0.1709,-0.1709,-0.1839,-0.1854,-0.1483,-0.141,-0.1429,-0.1535,-0.1523,-0.1396,-0.1138,-0.1313,-0.139,-0.1132,-0.1094,-0.1094,-0.1094,-0.1094,-0.1094,-0.1094,-0.0761,-0.0516,-0.0405,-0.0448,-0.0479,-0.0503,-0.0504,-0.0504,-0.0504,-0.0504,-0.0504,-0.0504,-0.0504,-0.0504,-0.0504,-0.0504,-0.0504,0.0,0.0,0.0,-0.2302,0.0,-0.2242,-0.2017,-0.214,-0.2232,-0.2007,-0.1966,-0.2038,-0.2262,-0.2302,-0.2302,-0.2302,-0.2811,-0.318,-0.312,-0.316,-0.3144,-0.3031,-0.3122,-0.3208,-0.3208,-0.3208,-0.3208,-0.3208,-0.3208,-0.3144,-0.3009,-0.288,-0.2794,-0.2794,-0.2794,-0.2681,-0.2437,-0.2241,-0.1894,-0.141,-0.141,-0.141,-0.141,-0.141,-0.141,-0.141,-0.141,-0.141,-0.1366,-0.0873,-0.0672,-0.0672,-0.0717,-0.0426,-0.0092,-0.0767,-0.081,-0.0545,-0.071,-0.0771,-0.0871,-0.1609,-0.1845,-0.1845,-0.1845,-0.1845,-0.1845,-0.1845,-0.1742,-0.1609,-0.1609,-0.1609,-0.1609,-0.1609,-0.1609,-0.1609,-0.1609,-0.1742,-0.1782,-0.1538,-0.1497,-0.1506,-0.1576,-0.1609,-0.1545,-0.1358,-0.1341,-0.1311,-0.1119,-0.1094,-0.1094,-0.1094,-0.1094,-0.1094,-0.1094,-0.0873,-0.0646,-0.0469,-0.0472,-0.0504,-0.0504,-0.0504,-0.0504,-0.0504,-0.0504,-0.0504,-0.0504,-0.0504,-0.0504,-0.0504,0.0034,0.0269,0.0,0.0,-0.1908,-0.1908,-0.1908,0.0,-0.1645,-0.1758,-0.1799,-0.1404,-0.1476,-0.1715,-0.211,-0.2161,-0.2142,-0.2142,-0.2696,-0.2815,-0.1938,-0.2572,-0.3052,-0.2837,-0.2988,-0.3144,-0.3144,-0.3144,-0.3144,-0.3144,-0.3144,-0.3031,-0.2816,-0.2794,-0.2794,-0.2794,-0.2794,-0.2729,-0.2551,-0.1784,-0.141,-0.141,-0.141,-0.141,-0.141,-0.141,-0.141,-0.141,-0.141,-0.141,-0.141,-0.141,-0.141,-0.1306,-0.0357,-0.0094,-0.0397,-0.1634,-0.1671,-0.1146,-0.1482,-0.1609,-0.1609,-0.1609,-0.1609,-0.1609,-0.1609,-0.1609,-0.1609,-0.1609,-0.1609,-0.1609,-0.1609,-0.1609,-0.1609,-0.1609,-0.1609,-0.1609,-0.1609,-0.1609,-0.1609,-0.1609,-0.1609,-0.1609,-0.1609,-0.1609,-0.1609,-0.1609,-0.1356,-0.119,-0.119,-0.119,-0.119,-0.119,-0.119,-0.119,-0.119,-0.1067,-0.0862,-0.0532,-0.0504,-0.0504,-0.0504,-0.0336,-0.0235,-0.0235,-0.0235,-0.0235,-0.0235,-0.0403,-0.0403,-0.0202,0.0672,0.111,0.0,0.0,-0.0305,0.0,-0.0305,-0.0534,0.0,0.0,-0.0289,0.0,-0.0954,-0.1615,-0.1689,-0.1603,-0.1522,-0.1522,-0.2274,-0.2815,-0.2665,-0.2756,-0.2837,-0.2816,-0.2837,-0.2859,-0.2859,-0.2859,-0.2859,-0.2859,-0.2859,-0.2837,-0.2794,-0.2794,-0.2794,-0.2794,-0.2794,-0.242,-0.1588,-0.1455,-0.141,-0.141,-0.141,-0.141,-0.141,-0.141,-0.141,-0.141,-0.141,-0.141,-0.141,-0.141,-0.141,-0.1313,-0.0355,-0.0505,-0.1281,-0.1879,-0.1671,-0.1146,-0.1482,-0.1609,-0.1609,-0.1609,-0.1609,-0.1609,-0.1609,-0.1609,-0.1609,-0.1609,-0.1609,-0.1609,-0.1609,-0.1609,-0.1609,-0.1609,-0.1609,-0.1609,-0.1609,-0.1609,-0.1609,-0.1609,-0.1609,-0.1609,-0.1609,-0.1609,-0.1609,-0.1609,-0.1568,-0.1537,-0.1537,-0.1537,-0.1537,-0.1537,-0.1537,-0.1537,-0.1537,-0.0962,-0.0553,-0.0503,-0.0504,-0.0504,-0.0504,0.0403,0.0875,0.0875,0.0875,0.0875,0.0875,-0.0034,-0.0034,0.0875,0.1043,0.111,0.0,0.0,0.0,0.0,0.0,-0.0122,-0.0595,0.0,0.0,0.0,-0.0794,-0.1485,-0.1485,-0.1437,-0.1405,-0.1405,-0.219,-0.2794,-0.2794,-0.2794,-0.2794,-0.2794,-0.2794,-0.2794,-0.2794,-0.2794,-0.2794,-0.2794,-0.2794,-0.2794,-0.2794,-0.2794,-0.2794,-0.2794,-0.2794,-0.2355,-0.141,-0.141,-0.141,-0.141,-0.141,-0.141,-0.141,-0.141,-0.141,-0.141,-0.141,-0.141,-0.141,-0.141,-0.141,-0.1387,-0.1226,-0.1188,-0.1279,-0.1662,-0.1634,-0.1394,-0.1554,-0.1609,-0.1609,-0.1609,-0.1609,-0.1609,-0.1609,-0.1609,-0.1609,-0.1609,-0.1609,-0.1609,-0.1609,-0.1609,-0.1609,-0.1609,-0.1609,-0.1609,-0.1609,-0.1609,-0.1609,-0.1609,-0.1609,-0.1609,-0.1609,-0.1609,-0.1609,-0.1609,-0.1609,-0.1609,-0.1609,-0.1609,-0.1609,-0.1609,-0.1609,-0.1442,-0.1007,-0.0671,-0.0504,-0.0504,-0.0504,-0.0504,-0.0504,0.0538,0.111,0.111,0.111,0.111,0.111,0.0639,0.0639,0.111,0.111,0.111,0.0,0.0,0.0,0.0,0.0,0.0,0.0,0.0,-0.0355,0.0,-0.0915,-0.1405,-0.1405,-0.1405,-0.1475,-0.1715,-0.2351,-0.2794,-0.2794,-0.2794,-0.2794,-0.2794,-0.2794,-0.2794,-0.2794,-0.2794,-0.2794,-0.2794,-0.2794,-0.2794,-0.2794,-0.2794,-0.2794,-0.2794,-0.2794,-0.2464,-0.1762,-0.1519,-0.141,-0.141,-0.141,-0.141,-0.1388,-0.1343,-0.1321,-0.1321,-0.1388,-0.141,-0.141,-0.141,-0.141,-0.1435,-0.1838,-0.1658,-0.1267,-0.1509,-0.1609,-0.1609,-0.1609,-0.1609,-0.1609,-0.1609,-0.1609,-0.1609,-0.1609,-0.1609,-0.1609,-0.1609,-0.1609,-0.1609,-0.1609,-0.1609,-0.1609,-0.1609,-0.1609,-0.1609,-0.1609,-0.1609,-0.1609,-0.1609,-0.1609,-0.1609,-0.1609,-0.1609,-0.1542,-0.134,-0.1475,-0.1609,-0.1609,-0.1609,-0.1609,-0.1609,-0.1609,-0.1375,-0.0839,-0.0772,-0.0705,-0.0504,-0.0504,-0.0504,-0.0504,0.0538,0.111,0.111,0.111,0.111,0.111,0.111,0.111,0.111,0.111,0.111,0.0,0.0,0.0,0.0,0.0,0.0,0.0,0.0,0.0,-0.133,-0.1373,-0.1405,-0.1405,-0.1405,-0.1688,-0.2571,-0.2762,-0.2794,-0.2794,-0.2794,-0.2794,-0.2794,-0.2794,-0.2794,-0.2794,-0.2794,-0.2794,-0.2794,-0.2794,-0.2794,-0.2794,-0.2794,-0.2794,-0.2794,-0.2794,-0.2772,-0.2729,-0.185,-0.141,-0.141,-0.141,-0.141,-0.1388,-0.1208,-0.1116,-0.1116,-0.1321,-0.141,-0.141,-0.141,-0.141,-0.141,-0.1559,-0.1597,-0.1582,-0.1601,-0.1609,-0.1609,-0.1609,-0.1609,-0.1609,-0.1609,-0.1609,-0.1609,-0.1609,-0.1609,-0.1609,-0.1609,-0.1609,-0.1609,-0.1609,-0.1609,-0.1609,-0.1609,-0.1609,-0.1609,-0.1609,-0.1609,-0.1609,-0.1609,-0.1609,-0.1609,-0.1609,-0.1609,-0.1373,-0.0672,-0.1141,-0.1609,-0.1609,-0.1609,-0.1609,-0.1609,-0.1609,-0.1575,-0.154,-0.1542,-0.1239,-0.0538,-0.0504,-0.0504,-0.0504,0.0538,0.111,0.111,0.111,0.111,0.111,0.111,0.111,0.111,0.111,0.111,0.0,0.0,0.0,0.0,0.0,0.0,0.0,-0.0258,-0.0673,-0.1281,-0.1405,-0.1405,-0.1405,-0.1405,-0.1704,-0.264,-0.2794,-0.2794,-0.2794,-0.2794,-0.2794,-0.2794,-0.2794,-0.2794,-0.2794,-0.2794,-0.2794,-0.2794,-0.2794,-0.2794,-0.2794,-0.2794,-0.2794,-0.2794,-0.2794,-0.2507,-0.1916,-0.1563,-0.141,-0.141,-0.141,-0.1343,-0.1208,-0.1139,-0.1094,-0.1094,-0.1185,-0.1208,-0.1208,-0.1208,-0.1208,-0.1221,-0.1265,-0.1405,-0.1609,-0.1609,-0.1609,-0.1609,-0.1609,-0.1609,-0.1609,-0.1609,-0.1609,-0.1609,-0.1609,-0.1609,-0.1609,-0.1609,-0.1274,-0.1007,-0.1475,-0.1609,-0.1609,-0.1609,-0.1609,-0.1609,-0.1609,-0.1609,-0.1609,-0.1609,-0.1609,-0.144,-0.0973,-0.0906,-0.0805,-0.0538,-0.0738,-0.0906,-0.0906,-0.0906,-0.0906,-0.0906,-0.0906,-0.0906,-0.0906,-0.0268,-0.0034,-0.0471,-0.0504,-0.0504,-0.0504,0.0538,0.111,0.111,0.111,0.111,0.111,0.111,0.111,0.1111,0.1546,0.1142,0.0,0.0,0.0,0.0,0.0,0.0,0.0,0.0,-0.0178,-0.0802,-0.1184,-0.1405,-0.1405,-0.1656,-0.2078,-0.2693,-0.2794,-0.2794,-0.2794,-0.2794,-0.2794,-0.2794,-0.2794,-0.2794,-0.2794,-0.2794,-0.2794,-0.2794,-0.2794,0.0,-0.2794,-0.2794,-0.2794,-0.2794,-0.2485,-0.2022,-0.141,-0.141,-0.141,-0.1388,-0.1343,-0.123,-0.1094,-0.1094,-0.1094,-0.1094,-0.1094,-0.1094,-0.1094,-0.1094,-0.1094,-0.1094,-0.1094,-0.1244,-0.1443,-0.1564,-0.1609,-0.1609,-0.1609,-0.1609,-0.1609,-0.1609,-0.1609,-0.1609,-0.1609,-0.1609,-0.154,-0.1308,-0.0873,-0.0605,-0.1107,-0.1239,-0.1308,-0.1542,-0.1609,-0.1609,-0.1609,-0.1609,-0.1609,-0.1609,-0.1408,-0.1074,-0.0571,-0.0504,-0.0504,-0.0504,-0.0504,-0.0504,-0.0504,-0.0504,-0.0504,-0.0504,-0.0504,-0.0504,-0.0504,0.0471,0.0639,-0.0437,-0.0504,-0.0336,0.0034,0.0706,0.111,0.111,0.111,0.111,0.111,0.111,0.0908,0.0571,0.1007,0.0603,0.0,0.0,0.0,0.0,0.0,0.0,0.0,0.0,-0.0005,-0.0038,-0.077,-0.1405,-0.1405,-0.2174,-0.2783,-0.2757,-0.2773,-0.2794,-0.2794,-0.2794,-0.2794,-0.2794,-0.2767,-0.2762,-0.2789,-0.2794,-0.2794,-0.2794,-0.2794,-0.2794,-0.2794,-0.2772,-0.2751,-0.2751,-0.1872,-0.141,-0.141,-0.1388,-0.1388,-0.1388,-0.1185,-0.1094,-0.1094,-0.1094,-0.1094,-0.1094,-0.1094,-0.1094,-0.1094,-0.1094,-0.1094,-0.1094,-0.1094,-0.11,-0.1155,-0.148,-0.1609,-0.1609,-0.1609,-0.1609,-0.1609,-0.1609,-0.1609,-0.1609,-0.1609,-0.1575,-0.1408,-0.0705,-0.0504,-0.0504,-0.0504,-0.0504,-0.0671,-0.1408,-0.1573,-0.1573,-0.1573,-0.1573,-0.1573,-0.1573,-0.0973,-0.0504,-0.0504,-0.0504,-0.0504,-0.0504,-0.0504,-0.0504,-0.0504,-0.0504,-0.0504,-0.0504,-0.0504,-0.0504,-0.0504,0.0471,0.0605,-0.0437,-0.0471,0.0,0.1043,0.111,0.111,0.111,0.111,0.111,0.111,0.111,0.0538,-0.0504,-0.0504,-0.0506,0.0,0.0,0.0,0.0,0.0,0.0,0.0,0.0,0.0,-0.0878,-0.1222,-0.1405,-0.1405,-0.2174,-0.2571,-0.1897,-0.2367,-0.2794,-0.2794,-0.2794,-0.2794,-0.2794,-0.2206,-0.2057,-0.2725,-0.2794,-0.2794,0.0,-0.2794,-0.2794,-0.2794,-0.2158,-0.1784,-0.1784,-0.1544,-0.141,-0.141,-0.1252,-0.1185,-0.1185,-0.1116,-0.1094,-0.1094,-0.1094,-0.1094,-0.1094,-0.1094,-0.1094,-0.1094,-0.1094,-0.1094,-0.1094,-0.1094,-0.1257,-0.1472,-0.1572,-0.1609,-0.1609,-0.1609,-0.1609,-0.1609,-0.1609,-0.1609,-0.1609,-0.1609,-0.1239,-0.0772,-0.0571,-0.0504,-0.0504,-0.0504,-0.0504,-0.0538,-0.0772,-0.0805,-0.0805,-0.0805,-0.0805,-0.0805,-0.0805,-0.0639,-0.0504,-0.0504,-0.0504,-0.0504,-0.0504,-0.0504,-0.0504,-0.0504,-0.0504,-0.0504,-0.0504,-0.0504,-0.0504,-0.0504,-0.0235,-0.0168,-0.0471,0.0235,0.0808,0.1076,0.111,0.111,0.111,0.111,0.111,0.111,0.111,0.0538,-0.0504,-0.0504,-0.0548,0.0,0.0,0.0,0.0,0.0,0.0,0.0,0.0,0.0,0.0,-0.1131,-0.1405,-0.1405,-0.1849,-0.2169,-0.2014,-0.2121,-0.2361,-0.2736,-0.2794,-0.2794,-0.2794,-0.2324,-0.2206,-0.2741,-0.2794,-0.2794,-0.2794,-0.2794,-0.2637,-0.2245,-0.1696,-0.141,-0.141,-0.141,-0.141,-0.141,-0.1208,-0.1094,-0.1094,-0.1094,-0.1094,-0.1094,-0.1094,-0.1094,-0.1094,-0.1094,-0.1094,-0.1107,-0.1259,-0.1234,-0.1109,-0.1263,-0.1425,-0.1609,-0.1609,-0.1609,-0.1609,-0.1609,-0.1609,-0.1609,-0.1609,-0.1609,-0.1542,-0.1239,-0.0839,-0.0504,-0.0504,-0.0504,-0.0504,-0.0504,-0.0504,-0.0504,-0.0504,-0.0504,-0.0504,-0.0504,-0.0504,-0.0504,-0.0504,-0.0504,-0.0504,-0.0504,-0.0504,-0.0504,-0.0504,-0.0504,-0.0504,-0.0504,-0.0504,-0.0504,-0.0504,-0.0504,-0.0504,-0.0504,-0.0504,-0.0303,0.0134,0.0336,0.0639,0.1076,0.111,0.111,0.111,0.0672,0.0422,0.0345,0.0422,0.007,-0.0575,0.0,0.0487,0.0,-0.0137,0.0,0.0,0.0,0.0,0.0,0.0,0.0,0.0,-0.0668,-0.1249,-0.1249,-0.1315,-0.1647,-0.2502,-0.1945,-0.1688,-0.2518,-0.2635,-0.2677,-0.2778,-0.2794,-0.2794,-0.2794,-0.2794,-0.2745,-0.2616,-0.2724,-0.2398,-0.1455,-0.1388,-0.1366,-0.1366,-0.1366,-0.1366,-0.1366,-0.1185,-0.1094,-0.1094,-0.1094,-0.1094,-0.1094,-0.1094,-0.1094,-0.1094,-0.1094,-0.1094,-0.1121,-0.1417,-0.1384,-0.1188,-0.1482,-0.1609,-0.1609,-0.1609,-0.1609,-0.1609,-0.1609,-0.1609,-0.1609,-0.1609,-0.1542,-0.134,-0.0705,-0.0504,-0.0504,-0.0504,-0.0504,-0.0504,-0.0504,-0.0504,-0.0504,-0.0504,-0.0504,-0.0504,-0.0504,-0.0504,-0.0504,-0.0504,-0.0504,-0.0504,-0.0504,-0.0504,-0.0504,-0.0504,-0.0504,-0.0504,-0.0504,-0.0504,-0.0504,-0.0504,-0.0504,-0.0504,-0.0504,-0.0504,-0.0101,0.0875,0.0,-0.0035,0.1082,0.1117,0.1117,0.1117,0.0035,-0.0573,-0.0719,-0.0573,-0.0575,-0.0674,0.0583,0.1791,0.0,-0.1025,-0.1758,-0.0352,0.0,0.0,0.0,0.0,0.0,0.0,-0.0145,-0.0275,-0.0275,-0.0757,-0.1267,-0.1615,-0.1517,-0.1459,-0.1646,-0.1672,-0.1955,-0.2704,-0.2794,-0.2794,-0.2794,-0.2794,-0.2415,-0.1491,-0.2285,-0.2398,-0.1455,-0.1252,-0.1163,-0.1163,-0.1163,-0.1163,-0.1163,-0.1116,-0.1094,-0.1094,-0.1094,-0.1094,-0.1094,-0.1094,-0.1094,-0.1094,-0.1094,-0.1094,-0.11,-0.1171,-0.1305,-0.1511,-0.158,-0.1609,-0.1609,-0.1609,-0.1609,-0.1609,-0.1609,-0.1609,-0.1609,-0.1609,-0.1208,-0.0671,-0.0538,-0.0504,-0.0504,-0.0504,-0.0504,-0.0504,-0.0504,-0.0504,-0.0504,-0.0504,-0.0504,-0.0504,-0.0504,-0.0504,-0.0504,-0.0504,-0.0504,-0.0504,-0.0504,-0.0504,-0.0504,-0.0504,-0.0504,-0.0504,-0.0504,-0.0504,-0.0504,-0.0504,-0.0504,-0.0504,-0.0504,-0.0504,-0.0403,-0.0202,-0.0472,-0.0043,0.1279,0.1321,0.1321,0.1321,0.0043,-0.0695,-0.0719,-0.0652,-0.0653,-0.0674,-0.0404,0.0851,0.0,-0.0635,-0.1239,-0.0964,0.0,0.0,0.0,-0.0264,0.0,0.0,0.0,0.0,0.0,-0.0301,-0.0703,-0.1177,-0.133,-0.1476,-0.1721,-0.155,-0.1571,-0.2052,-0.2105,-0.2292,-0.2746,-0.2794,-0.2572,-0.1997,-0.1953,-0.1755,-0.1274,-0.1163,-0.1094,-0.1094,-0.1094,-0.1094,-0.1094,-0.1094,-0.1094,-0.1094,-0.1094,-0.1094,-0.1094,-0.1094,-0.1094,-0.1094,-0.1094,-0.1094,-0.1094,-0.1094,-0.1071,-0.1074,-0.144,-0.1609,-0.1609,-0.1609,-0.1609,-0.1609,-0.1609,-0.1373,-0.104,-0.104,-0.0805,-0.0504,-0.0504,-0.0504,-0.0504,-0.0504,-0.0504,-0.0504,-0.0504,-0.0504,-0.0504,-0.0504,-0.0504,-0.0504,-0.0504,-0.0504,-0.0504,-0.0504,-0.0504,-0.0504,-0.0504,-0.0504,-0.0504,-0.0504,-0.0504,-0.0504,-0.0504,-0.0504,-0.0504,-0.0504,-0.0504,-0.0527,-0.0584,-0.0589,-0.0589,-0.0589,-0.0643,-0.0404,0.0314,0.0359,0.0359,0.0359,-0.0359,-0.0719,-0.0719,-0.0719,-0.0719,-0.0719,-0.0719,0.0314,0.0,0.0,0.0,0.0,0.0,-0.0368,0.0,0.0,0.0,-0.0029,-0.0113,0.0,0.0,0.0,0.0,0.0,0.0,0.0,0.0,-0.1576,0.0,-0.1341,-0.1373,-0.1694,-0.2468,-0.2605,-0.2664,-0.2664,-0.1689,-0.1094,-0.1094,-0.1094,-0.1094,-0.1094,-0.1094,-0.1094,-0.1094,-0.1094,-0.1094,-0.1094,-0.1094,-0.1094,-0.1094,-0.1094,-0.1094,-0.1094,-0.1094,-0.1094,-0.11,-0.1028,-0.0787,-0.0571,-0.1308,-0.1609,-0.1609,-0.1609,-0.1609,-0.1609,-0.1609,-0.1106,-0.0504,-0.0504,-0.0504,-0.0504,-0.0504,-0.0504,-0.0504,-0.0504,-0.0504,-0.0504,-0.0504,-0.0504,-0.0504,-0.0504,-0.0504,-0.0504,-0.0504,-0.0504,-0.0504,-0.0504,-0.0504,-0.0504,-0.0504,-0.0504,-0.0504,-0.0504,-0.0504,-0.0504,-0.0504,-0.0504,-0.0504,-0.0504,-0.0504,-0.055,-0.0709,-0.0719,-0.0719,-0.0719,-0.0719,-0.0719,-0.0719,-0.0719,-0.0719,-0.0719,-0.0719,-0.0719,-0.0719,-0.0719,-0.0719,-0.0674,-0.0404,0.0314,0.0,0.0,0.0,0.0,-0.1075,0.0,0.0,0.0,-0.0787,-0.0134,0.0,0.0,0.0,0.0,0.0,0.0,0.0,0.0,-0.121,-0.1174,-0.1129,-0.1129,-0.1287,-0.1437,-0.1544,-0.1929,-0.2188,-0.2188,-0.1516,-0.1094,-0.1094,-0.1094,-0.1094,-0.1094,-0.1094,-0.1094,-0.1094,-0.1094,-0.1094,-0.1094,-0.1094,-0.1094,-0.1094,-0.1094,-0.1094,-0.1094,-0.1094,-0.1094,-0.1074,-0.0709,-0.0526,-0.0571,-0.1308,-0.1609,-0.1609,-0.1609,-0.1609,-0.1609,-0.1609,-0.1106,-0.0504,-0.0504,-0.0504,-0.0504,-0.0504,-0.0504,-0.0504,-0.0504,-0.0504,-0.0504,-0.0504,-0.0504,-0.0504,-0.0504,-0.0504,-0.0504,-0.0504,-0.0504,-0.0504,-0.0504,-0.0504,-0.0504,-0.0504,-0.0504,-0.0504,-0.0504,-0.0504,-0.0504,-0.0504,-0.0504,-0.0504,-0.0504,-0.0504,-0.055,-0.0709,-0.0719,-0.0719,-0.0719,-0.0719,-0.0719,-0.0719,-0.0719,-0.0719,-0.0719,-0.0719,-0.0719,-0.0719,-0.0719,-0.0719,-0.0674,0.0583,0.1254,0.0,0.0,0.0,0.0,0.0,0.0,-0.1097,0.0,-0.1009,0.0,0.0,0.0,0.0,0.0,0.0,0.0,-0.1227,0.0,0.0,0.0,-0.1097,0.0,0.0,0.0,-0.2147,-0.1794,-0.1344,-0.0911,-0.1011,-0.1094,-0.1094,-0.1094,-0.1094,-0.1094,-0.1094,-0.1094,-0.1094,-0.1094,-0.1094,-0.1094,-0.1094,-0.1094,-0.1094,-0.1094,-0.0962,-0.0696,-0.0696,-0.0696,-0.068,-0.0517,-0.0475,-0.0538,-0.0839,-0.0973,-0.0973,-0.0973,-0.0973,-0.0973,-0.0973,-0.0772,-0.0504,-0.0504,-0.0504,-0.0504,-0.0504,-0.0504,-0.0504,-0.0504,-0.0504,-0.0504,-0.0504,-0.0504,-0.0504,-0.0504,-0.0504,-0.0504,-0.0504,-0.0504,-0.0504,-0.0504,-0.0504,-0.0504,-0.0504,-0.0504,-0.0504,-0.0504,-0.0504,-0.0504,-0.0504,-0.0504,-0.0504,-0.0504,-0.0504,-0.055,-0.0709,-0.0719,-0.0719,-0.0719,-0.0719,-0.0584,-0.0315,-0.0315,-0.0315,-0.0315,-0.0315,-0.045,-0.0719,-0.0405,-0.0315,-0.027,0.0045,0.0179,-0.1097,0.0,0.0,0.0,0.0,0.0,0.0,0.0,0.0,0.0,0.0,0.0,0.0,0.0,0.0,0.0,0.0,0.0,0.0,0.0,0.0,0.0,0.0,0.0,0.0,-0.1523,-0.0791,-0.0054,0.0,-0.0988,-0.109,-0.1094,-0.1094,-0.1094,-0.1094,-0.1094,-0.1094,-0.1094,-0.1094,-0.1094,-0.1094,-0.1094,-0.1094,-0.0962,-0.0717,-0.0405,-0.0405,-0.0405,-0.0407,-0.0419,-0.0459,-0.0504,-0.0504,-0.0504,-0.0504,-0.0504,-0.0504,-0.0504,-0.0504,-0.0504,-0.0504,-0.0504,-0.0504,-0.0504,-0.0504,-0.0504,-0.0504,-0.0504,-0.0504,-0.0504,-0.0504,-0.0504,-0.0504,-0.0504,-0.0504,-0.0504,-0.0504,-0.0504,-0.0504,-0.0504,-0.0504,-0.0504,-0.0504,-0.0504,-0.0504,-0.0504,-0.0504,-0.0504,-0.0504,-0.0531,-0.0551,-0.0551,-0.0441,-0.0389,-0.0489,-0.0629,-0.0629,-0.0494,-0.0494,-0.036,0.0,0.0,0.0,0.0,0.0,-0.018,-0.0494,-0.018,0.0,0.0,-0.0494,-0.0719,0.0,0.0,0.0,-0.0814,0.0,0.0,0.0,0.0,-0.1097,0.0,0.0,0.0,0.0,0.0,0.0,0.0,0.0,0.0,0.0,0.0,0.0,0.0,0.0,0.0,0.0,-0.0888,-0.0791,0.0,-0.0322,-0.069,-0.1075,-0.1094,-0.1094,-0.1094,-0.1094,-0.1094,-0.1094,-0.1094,-0.1094,-0.1094,-0.1094,-0.1094,-0.1094,-0.0628,-0.0405,-0.0405,-0.0405,-0.0405,-0.0415,-0.0485,-0.0501,-0.0504,-0.0504,-0.0504,-0.0504,-0.0504,-0.0504,-0.0504,-0.0504,-0.0504,-0.0504,-0.0504,-0.0504,-0.0504,-0.0504,-0.0504,-0.0504,-0.0504,-0.0504,-0.0504,-0.0504,-0.0504,-0.0504,-0.0504,-0.0504,-0.0504,-0.0504,-0.0504,-0.0504,-0.0504,-0.0504,-0.0504,-0.0504,-0.0504,-0.0504,-0.0504,-0.0504,-0.0504,-0.0504,-0.0601,-0.0714,-0.0714,-0.0267,0.0,0.0,-0.045,-0.0494,-0.0045,0.0,0.0,0.0,0.0,0.0,0.0,0.0,0.0,0.0,0.0,0.0,0.0,-0.0494,-0.0719,0.0,0.0,-0.2023,-0.165,0.0,0.0,0.0,0.0,0.0,0.0,0.0,0.0,0.0,0.0,0.0,0.0,0.0,0.0,0.0,0.0,0.0,0.0,0.0,0.0,0.0,0.0,0.0,0.0,-0.0312,0.0,-0.0696,-0.0963,-0.1094,-0.1094,-0.1094,-0.1094,-0.1094,-0.1094,-0.1094,-0.1094,-0.0784,-0.0628,-0.0628,-0.0471,-0.0405,-0.0405,-0.0405,-0.0429,-0.0481,-0.0488,-0.0504,-0.0504,-0.0504,-0.0504,-0.0504,-0.0504,-0.0504,-0.0504,-0.0504,-0.0504,-0.0504,-0.0504,-0.0504,-0.0504,-0.0504,-0.0504,-0.0504,-0.0504,-0.0504,-0.0504,-0.0504,-0.0504,-0.0504,-0.0504,-0.0504,-0.0504,-0.0504,-0.0504,-0.0437,-0.0202,-0.0336,-0.0437,-0.0202,-0.0168,-0.0235,-0.0471,-0.0303,-0.0177,-0.0162,-0.0217,-0.0225,-0.0225,-0.009,0.0,0.0,-0.0135,-0.018,0.0,0.0,0.0,0.0,0.0,0.0,0.0,0.0,0.0,0.0,0.0,0.0,0.0,-0.018,-0.0225,-0.079,-0.1212,0.0,-0.1743,-0.1415,0.0,-0.1097,0.0,0.0,0.0,0.0,0.0,0.0,0.0,0.0,0.0,0.0,0.0,0.0,-0.1097,0.0,0.0,0.0,0.0,0.0,0.0,-0.0511,-0.0038,-0.0312,0.0,0.0,-0.0967,-0.1094,-0.1094,-0.1094,-0.1027,-0.0851,-0.0851,-0.0851,-0.0851,-0.0539,-0.0405,-0.0405,-0.0405,-0.0405,-0.0407,-0.043,-0.0466,-0.0504,-0.0504,-0.0504,-0.0504,-0.0504,-0.0504,-0.0504,-0.0504,-0.0504,-0.0504,-0.0504,-0.0504,-0.0504,-0.0504,-0.0504,-0.0504,-0.0504,-0.0504,-0.0504,-0.0504,-0.0504,-0.0504,-0.0504,-0.0504,-0.0504,-0.0504,-0.0504,-0.0504,-0.0504,-0.0403,-0.0269,-0.0034,-0.0179,-0.0263,-0.0038,0.0,-0.0075,-0.0301,-0.015,0.0,0.0,0.0,0.0,0.0,0.0,0.0,0.0,0.0,0.0,0.0,0.0,0.0,0.0,0.0,0.0,0.0,0.0,0.0,0.0,0.0,0.0,0.0,0.0,0.0]},{"header":{"parameterUnit":"m.s-1","parameterCategory":1,"la1":30.6,"la2":29.2853,"lo1":-89.7004,"lo2":-87.6739,"dy":0.0162,"dx":0.0183,"nx":112,"ny":82,"refTime":"2026-05-11T00:00:00:Z","depth":0,"parameterNumber":3,"parameterNumberName":"V-component_of_WINDS"},"data":[0.0,0.0,0.0,0.0,0.0,0.0,0.0,0.0,0.0,0.0,0.0,0.0,0.0,0.0,0.0,0.0,0.0,0.0,0.0,0.0,0.0,0.0,0.0,0.0,0.0,0.0,0.0,0.0,0.0,0.0,0.0,0.0,0.0,0.0,0.0,0.0,0.0,0.0,0.0,0.0,0.0,0.0,0.0,0.0,0.0,0.0,0.0,0.0,0.0,0.0,0.0,0.0,0.0,0.0,0.0,0.0,0.0,0.0,0.0,0.0,0.0,0.0,0.0,0.0,0.0,0.0,0.0,0.0,0.0,0.0,0.0,0.0,0.0,0.0,0.0,0.0,0.0,0.0,0.0,0.0,0.0,0.0,0.0,0.0,0.0,0.0,0.0,0.0,0.0,0.0,-0.6302,-0.9733,-1.0096,-1.0096,-1.0096,-1.0096,-0.9613,-0.8466,0.0,0.0,0.0,0.0,0.0,0.0,0.0,0.0,0.0,0.0,0.0,0.0,0.0,0.0,0.0,0.0,0.0,0.0,0.0,0.0,0.0,0.0,0.0,0.0,0.0,0.0,0.0,0.0,0.0,0.0,0.0,0.0,0.0,0.0,0.0,0.0,0.0,0.0,0.0,0.0,0.0,0.0,0.0,0.0,0.0,0.0,0.0,0.0,0.0,0.0,0.0,0.0,0.0,0.0,0.0,0.0,0.0,0.0,0.0,0.0,0.0,0.0,0.0,0.0,0.0,0.0,0.0,0.0,0.0,0.0,0.0,0.0,0.0,0.0,0.0,0.0,0.0,0.0,0.0,0.0,0.0,0.0,0.0,0.0,0.0,0.0,0.0,0.0,0.0,0.0,0.0,0.0,0.0,0.0,0.0,0.0,0.0,0.0,0.0,0.0,0.0,0.0,0.0,0.0,-0.6302,-0.9733,-1.0096,-1.0096,-1.0096,-1.0096,-0.8707,-0.5401,0.0,0.0,0.0,0.0,0.0,0.0,0.0,0.0,0.0,0.0,0.0,0.0,0.0,0.0,0.0,0.0,0.0,0.0,0.0,0.0,0.0,0.0,0.0,0.0,0.0,0.0,0.0,0.0,0.0,0.0,0.0,0.0,0.0,0.0,0.0,0.0,0.0,0.0,0.0,0.0,0.0,0.0,0.0,0.0,0.0,0.0,0.0,0.0,0.0,0.0,0.0,0.0,0.0,0.0,0.0,0.0,0.0,0.0,0.0,0.0,0.0,0.0,0.0,0.0,0.0,0.0,0.0,0.0,0.0,0.0,0.0,0.0,0.0,0.0,0.0,0.0,0.0,0.0,0.0,0.0,0.0,0.0,0.0,0.0,0.0,0.0,0.0,0.0,0.0,0.0,0.0,0.0,0.0,0.0,0.0,0.0,0.0,0.0,0.0,0.0,0.0,0.0,0.0,-0.6626,-0.8372,-0.9924,-1.0096,-1.0096,-1.0096,-1.0096,-0.8495,-0.4744,-0.4639,0.0,0.0,0.0,0.0,0.0,0.0,0.0,0.0,0.0,0.0,0.0,0.0,0.0,0.0,0.0,0.0,0.0,0.0,0.0,0.0,0.0,0.0,0.0,0.0,0.0,0.0,0.0,0.0,0.0,0.0,0.0,0.0,0.0,0.0,0.0,0.0,0.0,0.0,0.0,0.0,0.0,0.0,0.0,0.0,0.0,0.0,0.0,0.0,0.0,0.0,0.0,0.0,0.0,0.0,0.0,0.0,0.0,0.0,0.0,0.0,0.0,0.0,0.0,0.0,0.0,0.0,0.0,0.0,0.0,0.0,0.0,0.0,0.0,0.0,0.0,0.0,0.0,0.0,0.0,0.0,0.0,0.0,0.0,0.0,0.0,0.0,0.0,0.0,0.0,0.0,0.0,0.0,0.0,0.0,0.0,0.0,0.0,0.0,0.0,0.0,0.0,0.0,-0.7974,-1.0096,-1.0096,-1.0096,-1.0096,-1.0096,-0.937,-0.7617,-0.4617,-0.4469,0.0,0.0,0.0,0.0,0.0,0.0,0.0,0.0,0.0,0.0,0.0,0.0,0.0,0.0,0.0,0.0,0.0,0.0,0.0,0.0,0.0,0.0,0.0,0.0,0.0,0.0,0.0,0.0,0.0,0.0,0.0,0.0,0.0,0.0,0.0,0.0,0.0,0.0,0.0,0.0,0.0,0.0,0.0,0.0,0.0,0.0,0.0,0.0,0.0,0.0,0.0,0.0,0.0,0.0,0.0,0.0,0.0,0.0,0.0,0.0,0.0,0.0,0.0,0.0,0.0,0.0,0.0,0.0,0.0,0.0,0.0,0.0,0.0,0.0,0.0,0.0,0.0,0.0,0.0,0.0,0.0,0.0,0.0,0.0,0.0,0.0,0.0,0.0,0.0,0.0,0.0,0.0,0.0,0.0,0.0,0.0,0.0,0.0,0.0,0.0,0.0,0.0,-0.7907,-1.0096,-1.0096,-1.0096,-1.0096,-1.0096,-0.7183,-0.5038,-0.4275,-0.4403,0.0,0.0,0.0,0.0,0.0,0.0,0.0,0.0,0.0,0.0,0.0,0.0,0.0,0.0,0.0,0.0,0.0,0.0,0.0,0.0,0.0,0.0,0.0,0.0,0.0,0.0,0.0,0.0,0.0,0.0,0.0,0.0,0.0,0.0,0.0,0.0,0.0,0.0,0.0,0.0,0.0,0.0,0.0,0.0,0.0,0.0,0.0,0.0,0.0,0.0,0.0,0.0,0.0,0.0,0.0,0.0,0.0,0.0,0.0,0.0,0.0,0.0,0.0,0.0,0.0,0.0,0.0,0.0,0.0,0.0,0.0,0.0,0.0,0.0,0.0,0.0,0.0,0.0,0.0,0.0,0.0,0.0,0.0,0.0,0.0,0.0,0.0,0.0,0.0,0.0,0.0,0.0,0.0,0.0,0.0,0.0,0.0,0.0,0.0,0.0,0.0,0.0,-0.782,-1.0096,0.0,-1.0096,-1.0096,-1.0096,-0.6765,-0.4547,-0.4224,0.0,0.0,0.0,0.0,0.0,0.0,0.0,0.0,0.0,0.0,0.0,0.0,0.0,0.0,0.0,0.0,0.0,0.0,0.0,0.0,0.0,0.0,0.0,0.0,0.0,0.0,0.0,0.0,0.0,0.0,0.0,0.0,0.0,0.0,0.0,0.0,0.0,0.0,0.0,0.0,0.0,0.0,0.0,0.0,0.0,0.0,0.0,0.0,0.0,0.0,0.0,0.0,0.0,0.0,0.0,0.0,0.0,0.0,0.0,0.0,0.0,0.0,0.0,0.0,0.0,0.0,0.0,0.0,0.0,0.0,0.0,0.0,0.0,0.0,0.0,0.0,0.0,0.0,0.0,0.0,0.0,0.0,0.0,0.0,0.0,0.0,0.0,0.0,0.0,0.0,0.0,0.0,0.0,0.0,0.0,0.0,0.0,0.0,0.0,0.0,0.0,0.0,-0.4398,-0.6831,-0.8888,0.0,-1.0096,-1.0005,-0.9794,-0.6478,-0.4346,-0.4204,0.0,0.0,0.0,0.0,0.0,0.0,0.0,0.0,0.0,0.0,0.0,0.0,0.0,0.0,0.0,0.0,0.0,0.0,0.0,0.0,0.0,0.0,0.0,0.0,0.0,0.0,0.0,0.0,0.0,0.0,0.0,0.0,0.0,0.0,0.0,0.0,0.0,0.0,0.0,0.0,0.0,0.0,0.0,0.0,0.0,0.0,0.0,0.0,0.0,0.0,0.0,0.0,0.0,0.0,0.0,0.0,0.0,0.0,0.0,0.0,0.0,0.0,0.0,0.0,0.0,0.0,0.0,0.0,0.0,0.0,0.0,0.0,0.0,0.0,0.0,0.0,0.0,0.0,0.0,0.0,0.0,0.0,0.0,0.0,0.0,0.0,0.0,0.0,0.0,0.0,0.0,0.0,0.0,0.0,0.0,0.0,0.0,0.0,0.0,0.0,0.0,0.0,-0.4117,-0.4787,-0.6299,-0.9724,-1.0087,-0.9807,-0.9101,-0.6061,-0.4198,0.0,0.0,0.0,0.0,0.0,0.0,0.0,0.0,0.0,0.0,0.0,0.0,0.0,0.0,0.0,0.0,0.0,0.0,0.0,0.0,0.0,0.0,0.0,0.0,0.0,0.0,0.0,0.0,0.0,0.0,0.0,0.0,0.0,0.0,0.0,0.0,0.0,0.0,0.0,0.0,0.0,0.0,0.0,0.0,0.0,0.0,0.0,0.0,0.0,0.0,0.0,0.0,0.0,0.0,0.0,0.0,0.0,0.0,0.0,0.0,0.0,0.0,0.0,0.0,0.0,0.0,0.0,0.0,0.0,0.0,0.0,0.0,0.0,0.0,0.0,0.0,0.0,0.0,0.0,0.0,0.0,0.0,0.0,0.0,0.0,0.0,0.0,0.0,0.0,0.0,0.0,0.0,0.0,0.0,0.0,0.0,0.0,0.0,0.0,0.0,0.0,0.0,0.0,-0.3914,-0.47,-0.5983,-0.8561,-0.8836,-0.7965,-0.583,-0.476,-0.4116,-0.3934,0.0,0.0,0.0,0.0,0.0,0.0,0.0,0.0,0.0,0.0,0.0,0.0,0.0,0.0,0.0,0.0,0.0,0.0,0.0,0.0,0.0,0.0,0.0,0.0,0.0,0.0,0.0,0.0,0.0,0.0,0.0,0.0,0.0,0.0,0.0,0.0,0.0,0.0,0.0,0.0,0.0,0.0,0.0,0.0,0.0,0.0,0.0,0.0,0.0,0.0,0.0,0.0,0.0,0.0,0.0,0.0,0.0,0.0,0.0,0.0,0.0,0.0,0.0,0.0,0.0,0.0,0.0,0.0,0.0,0.0,0.0,0.0,0.0,0.0,0.0,0.0,0.0,0.0,0.0,0.0,0.0,0.0,0.0,0.0,0.0,0.0,0.0,0.0,0.0,0.0,0.0,0.0,0.0,0.0,0.0,0.0,0.0,0.0,0.0,0.0,0.0,0.0,-0.3987,-0.4487,-0.5197,-0.6518,-0.7644,-0.7185,-0.4429,-0.4102,-0.397,-0.3811,0.0,0.0,0.0,0.0,0.0,0.0,0.0,0.0,0.0,0.0,0.0,0.0,0.0,0.0,0.0,0.0,0.0,0.0,0.0,0.0,0.0,0.0,0.0,0.0,0.0,0.0,0.0,0.0,0.0,0.0,0.0,0.0,0.0,0.0,0.0,0.0,0.0,0.0,0.0,0.0,0.0,0.0,0.0,0.0,0.0,0.0,0.0,0.0,0.0,0.0,0.0,0.0,0.0,0.0,0.0,0.0,0.0,0.0,0.0,0.0,0.0,0.0,0.0,0.0,0.0,0.0,0.0,0.0,0.0,0.0,0.0,0.0,0.0,0.0,0.0,0.0,0.0,0.0,0.0,0.0,0.0,0.0,0.0,0.0,0.0,0.0,0.0,0.0,0.0,0.0,0.0,0.0,0.0,0.0,0.0,0.0,0.0,0.0,0.0,0.0,0.0,0.0,-0.4224,-0.4198,-0.4198,-0.4198,-0.6436,-0.6911,-0.4413,-0.3956,-0.3796,-0.3796,0.0,0.0,0.0,0.0,0.0,0.0,0.0,0.0,0.0,0.0,0.0,0.0,0.0,0.0,0.0,0.0,0.0,0.0,0.0,0.0,0.0,0.0,0.0,0.0,0.0,0.0,0.0,0.0,0.0,0.0,0.0,0.0,0.0,0.0,0.0,0.0,0.0,0.0,0.0,0.0,0.0,0.0,0.0,0.0,0.0,0.0,0.0,0.0,0.0,0.0,0.0,0.0,0.0,0.0,0.0,0.0,0.0,0.0,0.0,0.0,0.0,0.0,0.0,0.0,0.0,0.0,0.0,0.0,0.0,0.0,0.0,0.0,0.0,0.0,0.0,0.0,0.0,0.0,0.0,0.0,0.0,0.0,0.0,0.0,0.0,0.0,0.0,0.0,0.0,0.0,0.0,0.0,0.0,0.0,0.0,0.0,0.0,0.0,0.0,0.0,0.0,0.0,-0.4102,-0.4198,-0.4198,-0.4198,-0.4731,-0.4842,-0.4245,-0.3956,-0.3796,-0.3796,-0.3796,0.0,0.0,0.0,0.0,0.0,0.0,0.0,0.0,0.0,0.0,0.0,0.0,0.0,0.0,0.0,0.0,0.0,0.0,0.0,0.0,0.0,0.0,0.0,0.0,0.0,0.0,0.0,0.0,0.0,0.0,0.0,0.0,0.0,0.0,0.0,0.0,0.0,0.0,0.0,0.0,0.0,0.0,0.0,0.0,0.0,0.0,0.0,0.0,0.0,0.0,0.0,0.0,0.0,0.0,0.0,0.0,0.0,0.0,0.0,0.0,0.0,0.0,0.0,0.0,0.0,0.0,0.0,0.0,0.0,0.0,0.0,0.0,0.0,0.0,0.0,0.0,0.0,0.0,0.0,0.0,0.0,0.0,0.0,0.0,0.0,0.0,0.0,0.0,0.0,0.0,0.0,0.0,0.0,0.0,0.0,0.0,0.0,0.0,0.0,0.0,0.0,-0.395,-0.4198,-0.4198,-0.4198,-0.4198,-0.4198,-0.4198,-0.3956,-0.3796,-0.3796,-0.3471,0.0,0.0,0.0,0.0,0.0,0.0,0.0,0.0,0.0,0.0,0.0,0.0,0.0,0.0,0.0,0.0,0.0,0.0,0.0,0.0,0.0,0.0,0.0,0.0,0.0,0.0,0.0,0.0,0.0,0.0,0.0,0.0,0.0,0.0,0.0,0.0,0.0,0.0,0.0,0.0,0.0,0.0,0.0,0.0,0.0,0.0,0.0,0.0,0.0,0.0,0.0,0.0,0.0,-0.209,-0.0803,-0.0803,-0.0803,-0.08,-0.0792,-0.0792,-0.0482,-0.0189,-0.2687,0.0,0.0,0.0,0.0,0.0,0.0,0.0,0.0,0.0,0.0,0.0,0.0,0.0,0.0,0.0,0.0,0.0,0.0,0.0,0.0,0.0,0.0,0.0,0.0,-0.3198,-0.3052,0.0,0.0,0.0,0.0,0.0,0.0,0.0,0.0,0.0,0.0,0.0,0.0,-0.384,-0.4123,-0.4152,-0.4191,-0.4158,-0.4123,-0.4123,-0.3934,-0.3751,-0.3614,-0.3041,-0.2694,0.0,0.0,0.0,0.0,0.0,0.0,0.0,0.0,0.0,0.0,0.0,0.0,0.0,0.0,0.0,0.0,0.0,0.0,0.0,0.0,0.0,0.0,0.0,0.0,0.0,0.0,0.0,0.0,0.0,0.0,0.0,0.0,0.0,0.0,0.0,0.0,0.0,0.0,0.0,0.0,0.0,0.0,0.0,0.0,0.0,0.0,0.0,-0.443,-0.443,-0.4303,-0.4383,-0.4636,-0.4209,-0.3998,-0.3998,-0.3998,-0.3963,-0.391,-0.391,0.0,-0.0034,-0.0431,0.0,0.0,0.0,0.0,0.0,0.0,0.0,0.0,0.0,0.0,0.0,0.0,0.0,0.0,0.0,0.0,0.0,0.0,0.0,0.0,0.0,0.0,-0.2908,-0.4937,-0.5391,-0.4915,0.0,-0.2969,-0.2881,-0.2575,-0.2757,0.0,0.0,0.0,0.0,0.0,0.0,0.0,-0.3825,-0.3847,-0.3941,-0.4178,-0.3991,-0.3847,-0.3847,-0.3818,-0.3528,-0.288,-0.2761,-0.2694,-0.2694,-0.2081,0.0,0.0,0.0,0.0,0.0,0.0,0.0,0.0,0.0,0.0,0.0,0.0,0.0,0.0,0.0,0.0,0.0,0.0,0.0,0.0,0.0,0.0,0.0,0.0,0.0,0.0,0.0,0.0,0.0,0.0,0.0,0.0,0.0,0.0,0.0,0.0,0.0,0.0,0.0,0.0,0.0,0.0,0.0,0.0,-0.1444,-0.2225,-0.2225,-0.2171,-0.307,-0.4874,-0.4874,-0.4781,-0.4597,-0.472,-0.4684,-0.4549,-0.4549,-0.3811,-0.2576,-0.2424,-0.3085,-0.4204,0.0,0.0,0.0,0.0,-0.296,-0.3752,-0.364,-0.3421,0.0,-0.3199,0.0,0.0,0.0,0.0,0.0,0.0,0.0,0.0,0.0,0.0,-0.4142,-0.5026,-0.5233,-0.5117,-0.464,-0.4529,-0.421,0.0,-0.3902,-0.4248,-0.2683,0.0,0.0,0.0,0.0,-0.5555,-0.4047,-0.3855,-0.3876,-0.397,-0.3862,-0.4377,-0.5809,-0.4666,-0.3551,-0.2855,-0.2743,-0.2694,-0.2694,-0.2061,-0.1672,0.0,0.0,0.0,0.0,0.0,0.0,0.0,0.0,0.0,0.0,0.0,0.0,0.0,0.0,0.0,0.0,0.0,0.0,0.0,0.0,0.0,0.0,0.0,0.0,0.0,0.0,0.0,0.0,0.0,0.0,0.0,0.0,0.0,0.0,0.0,0.0,0.0,0.0,0.0,0.0,-0.0781,-0.1235,-0.1235,-0.0436,-0.0399,-0.1216,-0.1283,-0.2568,-0.5048,-0.5048,-0.4917,-0.4701,-0.5699,-0.608,-0.5927,-0.5927,-0.5871,-0.5709,-0.4704,-0.4175,-0.397,-0.397,-0.4062,-0.424,-0.4662,-0.4494,-0.4071,-0.4071,-0.4038,-0.3993,-0.3993,-0.4755,-0.572,-0.5925,0.0,0.0,0.0,0.0,-0.5108,-0.5108,-0.5108,-0.5049,-0.4902,-0.4832,-0.4941,-0.5444,-0.5539,-0.5042,0.0,-0.4506,-0.5177,-0.3233,0.0,0.0,0.0,0.0,-0.5986,-0.4129,-0.3906,-0.3876,-0.3825,-0.4443,-0.5464,-0.7009,-0.4989,-0.3427,-0.2932,-0.2781,-0.2636,-0.2481,-0.204,-0.1203,0.0061,0.0,0.0,0.0,0.0,0.0,0.0,0.0,0.0,0.0,0.0,0.0,0.0,0.0,0.0,0.0,0.0,0.0,0.0,0.0,0.0,0.0,0.0,0.0,0.0,0.0,0.0,0.0,0.0,0.0,0.0,0.0,0.0,0.0,0.0,0.0,0.0,0.0,0.0,0.0,-0.2905,-0.4557,-0.4557,-0.1598,-0.1471,-0.4521,-0.4742,-0.486,-0.4906,-0.4906,-0.4892,-0.4982,-0.813,-0.9541,-0.9534,-0.9534,-0.932,-0.8733,-0.5797,-0.4096,-0.3344,-0.3344,-0.3353,-0.361,-0.5706,-0.647,-0.6436,-0.6436,-0.6305,-0.6139,-0.6139,-0.5189,-0.4163,-0.4923,-0.5087,0.0,0.0,-0.5039,-0.5108,-0.5108,-0.5108,-0.5088,-0.5088,-0.4941,-0.4812,-0.4852,-0.4852,-0.4532,0.0,-0.4649,-0.5177,-0.3233,0.0,-0.3951,-0.5473,-0.478,-0.4047,-0.3921,-0.3906,-0.3906,-0.3898,-0.6179,-0.7192,-0.5979,-0.4087,-0.2932,-0.2905,-0.2781,-0.2441,-0.1865,-0.1813,0.0236,0.4585,0.4727,0.0,0.0,0.0,0.0,0.0,0.0,0.0,0.0,0.0,0.0,0.0,0.0,0.0,0.0,0.0,0.0,0.0,0.0,0.0,0.0,0.0,0.0,0.0,0.0,0.0,0.0,0.0,0.0,0.0,0.0,0.0,-0.2834,-0.1194,0.0,0.0,0.0,-0.0908,-0.2978,-0.4143,-0.3811,-0.1779,-0.0599,-0.0545,-0.1707,-0.3839,-0.4883,-0.484,-0.4845,-0.5937,-0.803,-0.9237,-0.9801,-0.9801,-0.9801,-0.9725,-0.9508,-0.8392,-0.7031,-0.5605,-0.5605,-0.5605,-0.5695,-0.6348,-0.6599,-0.6599,-0.6599,-0.6564,-0.6483,-0.6483,-0.6094,-0.5609,-0.5415,-0.4873,-0.4466,-0.5166,-0.5233,-0.5108,-0.5108,-0.5108,-0.5108,-0.5108,-0.5049,-0.5,-0.5,-0.5,-0.4857,-0.4359,-0.5093,-0.5573,-0.4881,-0.4855,-0.5138,-0.5719,-0.5407,-0.5127,-0.5127,-0.4024,-0.3255,-0.3255,-0.5234,-0.6341,-0.5837,-0.4126,-0.309,-0.309,-0.252,-0.2089,-0.1879,0.0996,0.3334,0.4971,0.4953,0.3315,0.0,0.0,0.0,0.0,0.0,0.0,0.0,0.0,0.0,0.0,0.0,0.0,0.0,0.0,0.0,0.0,0.0,0.0,0.0,0.0,0.0,0.0,0.0,0.0,0.0,0.0,0.0,0.0,0.0,-0.082,-0.2906,-0.123,0.0,0.0,0.0,-0.0926,-0.3068,-0.3143,-0.2541,-0.1292,-0.1245,-0.1245,-0.1245,-0.3368,-0.4857,-0.5684,-0.5667,-0.7065,-0.9628,-0.9672,-0.9693,-0.9693,-0.9744,-0.976,-0.9768,-0.9784,-0.9042,-0.7811,-0.715,-0.6908,-0.6891,-0.674,-0.6689,-0.6702,-0.6633,-0.4222,-0.1203,-0.1203,-0.1203,-0.111,-0.062,0.0016,-0.0257,-0.4363,-0.2943,-0.0978,-0.4363,-0.5233,-0.5233,-0.5233,-0.5233,-0.5214,-0.5127,-0.4893,-0.4655,-0.4524,-0.4844,-0.529,-0.5726,-0.5793,-0.5793,-0.5793,-0.5793,-0.5793,-0.5793,-0.4683,-0.3917,-0.404,-0.5199,-0.5752,-0.5214,-0.3688,-0.276,-0.276,-0.0753,0.0425,0.0425,0.3344,0.4997,0.5043,0.386,0.2172,0.0,0.0,0.0,0.0,0.0,0.0,0.0,0.0,0.0,0.0,0.0,0.0,0.0,0.0,0.0,0.0,0.0,0.0,0.0,0.0,0.0,0.0,0.0,0.0,0.0,0.0,0.0,0.0,0.0,0.0,0.0,0.0,0.0,0.0,-0.0057,-0.0092,-0.0096,-0.0096,-0.1207,-0.3623,-0.3686,-0.3678,-0.3678,-0.3777,-0.5016,-0.7392,-0.7392,-0.8104,-0.9403,-0.9403,-0.9403,-0.9412,-0.9599,-0.9698,-0.9671,-0.9385,-0.9434,-0.9526,-0.7633,-0.6908,-0.6908,-0.6908,-0.6678,-0.6348,-0.6157,0.0708,0.9385,0.9385,0.9394,0.9394,0.9394,0.9394,0.7377,-0.2308,0.1942,0.7168,-0.2518,-0.5036,-0.5036,-0.5036,-0.5036,-0.4961,-0.4706,-0.4036,-0.357,-0.3855,-0.3911,-0.4285,-0.5528,-0.5745,-0.5745,-0.5745,-0.5774,0.0,-0.5756,-0.5745,-0.5874,-0.6189,-0.6224,-0.547,-0.3651,-0.2379,-0.1751,-0.189,0.2431,0.4995,0.5003,0.4938,0.4969,0.5093,0.1854,0.0156,0.0156,0.0,0.0,0.0,0.0,0.0,0.0,0.0,0.0,0.0,0.0,0.0,0.0,0.0,0.0,0.0,0.0,0.0,0.0,0.0,0.0,0.0,0.0,0.0,0.0,0.0,0.0,0.0,0.0,0.0,0.0,0.0,0.0,0.0,-0.135,-0.2217,-0.2314,-0.2321,-0.2748,-0.3672,-0.3472,-0.3336,-0.3336,-0.5363,-0.673,-0.7392,-0.7392,-0.7321,-0.7179,-0.7179,-0.7179,-0.7269,-0.8864,-0.955,-0.8924,-0.071,-0.1424,-0.7647,-0.7101,-0.6908,-0.6908,-0.6908,-0.1787,0.5153,0.5211,0.6957,0.9191,0.9191,0.929,0.9394,0.9394,0.9394,0.8819,0.6078,0.7286,0.8765,0.6014,0.5302,0.5302,0.5302,0.5302,0.5327,0.5394,0.558,0.3839,-0.2643,-0.3911,-0.4007,-0.4366,-0.4426,-0.4426,-0.4426,-0.5214,0.0,-0.4547,-0.4426,-0.4458,-0.4549,-0.4569,-0.1756,0.5151,0.399,0.1517,-0.1696,0.2388,0.4978,0.5073,0.5049,0.5053,0.5105,0.4175,0.3695,0.0,0.0,0.0,0.0,0.0,0.0,0.0,0.0,0.0,0.0,0.0,0.0,0.0,0.0,0.0,0.0,0.0,0.0,0.0,0.0,0.0,0.0,0.0,0.004,0.0152,0.007,0.0,0.0,0.0,-0.0329,-0.118,-0.1259,-0.1119,-0.0779,-0.2151,-0.2882,-0.2626,-0.2616,-0.27,-0.2897,-0.2748,-0.3244,-0.4485,-0.5453,-0.6269,-0.6947,-0.6947,-0.6714,-0.6295,-0.6295,-0.6295,-0.6371,-0.7614,-0.8152,-0.7728,-0.2017,-0.2961,0.0,0.0,0.0,0.0,0.0,0.415,0.9698,0.9698,0.9552,0.932,0.9143,0.9181,0.9319,0.9518,0.9568,0.9568,0.9568,0.9568,0.9568,0.9568,0.9568,0.9568,0.9568,0.9568,0.9568,0.9568,0.9568,0.6901,-0.2145,-0.0745,0.0,0.1927,-0.1316,-0.2574,0.1334,0.1297,0.1082,0.1825,0.1774,0.1662,0.1662,0.1662,0.3229,0.7097,0.5794,0.0,0.0,0.0,0.5016,0.5089,0.5104,0.0,0.0,0.0,0.0,0.0,0.0,0.0,0.0,0.2129,0.2129,0.0,0.0,0.0,0.0,0.0,0.0,0.0,0.0,0.0,0.0,0.0,0.0,0.0,0.0,0.0,0.0,0.0,0.0093,0.0363,0.018,0.0017,0.0002,0.0013,-0.074,-0.2682,-0.2863,-0.2578,-0.1855,-0.2462,-0.2549,-0.1834,0.0,0.0,0.0,0.0,-0.3333,-0.5957,-0.4569,-0.4589,-0.6034,-0.6034,-0.6034,-0.6034,-0.6034,-0.6123,-0.6295,-0.6295,-0.6295,-0.6451,-0.8349,-0.856,-0.7492,-0.5897,-0.5288,-0.4068,0.6054,0.9771,0.9757,0.971,0.0,0.0,0.9332,0.9231,0.9313,0.9677,0.9794,0.9794,0.9794,0.9801,0.9801,0.9801,0.9801,0.9801,0.9801,0.9801,0.9801,0.9801,0.9801,0.739,-0.0777,0.4316,0.9982,1.0034,0.3185,0.0499,0.8736,1.0009,1.002,1.002,0.9722,0.9506,0.9497,0.0,0.0,0.5565,0.5078,0.4965,0.5095,0.5094,0.5109,0.51,0.5101,0.5091,0.5096,0.5092,0.5097,0.5094,0.5094,0.5094,0.5094,0.5097,0.5098,0.0,0.0,0.0,0.0,0.0,0.0,0.0,0.0,0.0,0.0,0.0,0.0,0.0,0.0,0.0,0.0,0.0,0.0093,0.0363,0.0257,0.0121,0.0013,0.0096,-0.0419,-0.189,-0.2033,-0.1969,-0.1813,-0.1948,-0.1969,-0.1803,-0.1792,-0.1792,-0.1792,-0.2701,-0.3463,-0.4032,-0.3723,-0.3841,-0.4357,0.0,0.0,-0.4357,-0.4357,-0.5069,-0.6295,-0.6295,-0.6295,-0.6331,-0.674,-0.2718,0.3795,0.4401,0.4628,0.5081,0.881,1.0177,1.0151,0.9812,0.9698,0.9735,0.9993,1.0067,1.0025,0.9793,0.9721,0.0,0.9721,0.9758,0.9801,0.9801,0.9801,0.9801,0.9801,0.9801,0.9801,0.9801,0.9801,0.9283,0.7487,0.8604,0.9922,1.0198,0.8748,0.8076,0.9606,1.0079,1.0242,1.0242,1.0166,1.0125,1.0124,1.0122,0.9889,0.9265,0.6656,0.5073,0.5106,0.5097,0.5098,0.5097,0.5091,0.5105,0.5108,0.5093,0.5095,0.5094,0.5094,0.5094,0.5094,0.5095,0.5095,0.0,0.0,0.0,0.0,0.0,0.0,0.0,0.0,0.0,0.0,0.0,0.0,0.0,0.0,0.0,0.0,0.0113,0.0248,0.0383,0.023,0.0123,0.019,0.0204,-0.0066,-0.0731,-0.0796,-0.0796,-0.0796,-0.0796,-0.1337,-0.259,-0.2654,-0.2654,-0.2654,-0.32,-0.3506,-0.3506,-0.3506,-0.3569,-0.371,-0.371,-0.371,-0.371,-0.371,-0.4134,-0.4837,-0.366,-0.4356,-0.6118,-0.3871,0.0946,0.6924,0.7091,0.7682,0.8591,0.9812,1.0258,1.0234,1.0054,0.9998,1.0027,1.0224,1.0308,1.0256,1.0052,0.9996,0.9996,0.9996,1.0014,1.0046,1.0046,1.0046,1.0046,1.0046,1.0046,1.0051,1.0052,1.0056,1.0056,1.0056,1.0022,1.005,1.0213,1.0272,1.0246,1.0086,1.0185,1.0304,1.0298,1.0298,1.0296,1.0308,1.0306,1.0292,1.0293,0.7109,0.5098,0.5097,0.5103,0.5094,0.5105,0.5101,0.5104,0.5094,0.5091,0.5108,0.5108,0.5108,0.5094,0.5098,0.5098,0.5097,0.0,0.0,0.0,0.0,0.0,0.0,0.0,0.0,0.041,0.0068,0.0,0.0,0.0,0.0,0.0,0.0,0.0182,0.0323,0.0323,0.0136,0.008,0.0297,0.0225,0.0162,0.0162,0.0205,0.0233,0.0233,0.0233,-0.0649,-0.2674,-0.2778,-0.2861,-0.3027,-0.2861,-0.3023,-0.3506,-0.3506,-0.3506,-0.3485,-0.2987,-0.3014,-0.3485,-0.2965,-0.2746,-0.2634,-0.0733,-0.185,-0.4725,-0.1095,0.2468,0.5758,0.6973,0.8295,0.958,0.9938,1.0125,1.0216,1.0269,1.029,1.0296,1.0282,1.0284,1.0308,1.0308,1.0308,1.029,1.0299,1.0301,1.0299,1.0292,1.0308,1.0308,1.0308,1.0308,1.0292,1.0301,1.0303,1.0305,1.0309,1.0265,1.0228,1.0228,1.0253,1.031,1.0291,1.031,1.0308,1.0302,1.0301,1.0301,1.0301,1.0293,1.0031,0.9348,0.6715,0.5097,0.5109,0.5095,0.5108,0.5097,0.5096,0.5093,0.5092,0.5105,0.5101,0.5101,0.5107,0.5096,0.5094,0.5094,0.5461,0.2467,0.2347,0.2305,0.2305,0.1289,0.0244,0.0,0.0,0.1865,0.0322,0.0,0.0,0.0,0.0,0.0,0.0,0.0025,0.0044,0.0044,0.0018,0.0011,0.0041,0.0031,0.0022,0.0022,0.0239,0.0379,0.0379,0.0379,0.0206,-0.0196,-0.0209,-0.0564,-0.1339,-0.0612,-0.127,-0.3472,-0.3506,-0.3506,-0.3464,-0.1145,-0.1257,-0.3415,-0.1104,-0.0045,-0.0022,0.0247,0.0089,-0.0308,0.0201,0.0686,0.1677,0.7226,0.9501,0.9672,0.9599,0.9834,1.0199,1.0216,1.0248,1.029,1.0239,1.0241,1.0308,1.0308,1.0308,1.0297,1.0293,1.0309,1.0292,1.0298,1.0308,1.0308,1.0308,1.0308,1.0308,1.029,1.029,1.0302,1.0291,1.0285,1.0282,1.0282,1.0304,1.0305,1.0308,1.0308,1.0308,1.0309,1.0309,1.0309,1.0309,1.0306,0.9055,0.5952,0.5331,0.5098,0.5097,0.5108,0.5107,0.5095,0.5094,0.5091,0.5103,0.5102,0.5101,0.5101,0.5097,0.5095,0.5094,0.5094,0.6752,0.1348,0.2053,0.2946,0.0,0.1289,0.0264,0.1279,0.208,0.21,0.0361,0.0811,0.1424,0.1157,0.0504,0.0,0.0,0.0,0.0,0.0,0.0602,0.0787,0.0082,0.0138,0.0172,0.0015,0.0101,0.0233,0.0389,0.0401,0.0379,0.0324,0.0312,0.0145,-0.0221,0.0123,-0.0191,-0.1211,-0.1233,-0.1233,-0.1211,-0.0111,-0.0178,-0.1189,-0.0089,0.0405,0.0405,0.0405,0.153,0.3366,0.3366,0.3366,0.3615,0.6244,0.8258,0.9698,0.9633,0.9839,1.0157,1.022,1.0287,1.0293,1.0264,1.0283,1.0308,1.0308,1.0291,1.0293,1.0308,1.0305,1.0307,1.0293,1.0293,1.0293,1.0293,1.0293,1.0293,1.0293,1.0305,1.0302,1.031,1.0305,1.0305,1.0305,1.0305,1.0305,1.0305,1.0305,1.0305,1.0305,1.0305,1.0305,1.0305,1.0309,0.8886,0.539,0.511,0.5101,0.5101,0.5091,0.5105,0.5095,0.509,0.5105,0.5101,0.5101,0.5109,0.5097,0.5096,0.5095,0.5156,0.7187,0.8905,0.0715,0.1398,0.0,0.2709,0.1822,0.1184,0.2341,0.2598,0.2236,0.0977,0.1719,0.2349,0.1526,0.0626,0.0,0.0,0.0,0.0,0.0,0.104,0.1471,0.0602,0.0667,0.0712,0.0514,0.0262,0.0192,0.0386,0.0401,0.0401,0.0401,0.0447,0.0485,0.0485,0.0491,0.0472,0.0472,0.0427,0.0405,0.0405,0.0405,0.0405,0.0405,0.0405,0.0405,0.0449,0.1403,0.3237,0.5587,0.5587,0.5587,0.5659,0.6374,0.7913,0.9698,0.9698,0.9824,1.0015,1.0233,1.0292,1.0293,1.0271,1.0268,1.0266,1.0266,1.028,1.0274,1.0287,1.0308,1.0308,1.0305,1.0305,1.0305,1.0305,1.0305,1.0305,1.0305,1.0293,1.031,1.0308,1.0305,1.0305,1.0305,1.0305,1.0305,1.0305,1.0305,1.0305,1.0305,1.0307,1.0308,1.0308,1.0287,0.8861,0.5387,0.5096,0.5096,0.5096,0.5106,0.5109,0.5095,0.5095,0.5093,0.5105,0.5091,0.5097,0.5094,0.5094,0.5096,0.5175,0.8648,1.0266,0.0,0.0,0.0603,0.2666,0.3142,0.3009,0.2685,0.2598,0.2588,0.2529,0.2559,0.208,0.0373,0.0029,0.0,0.0,0.0,0.0,0.0,0.104,0.1778,0.1744,0.1751,0.1758,0.0,0.0918,0.0392,0.0401,0.0401,0.0401,0.0401,0.058,0.0686,0.0686,0.0693,0.0698,0.0698,0.0495,0.0405,0.0405,0.0405,0.0405,0.0405,0.0405,0.0405,0.0581,0.3907,0.5509,0.5793,0.5793,0.5793,0.6053,0.8586,0.9623,0.9698,0.9698,0.9703,0.9768,1.0164,1.0305,1.029,1.0226,1.0202,1.0202,1.0202,1.0202,1.0224,1.0289,1.0293,1.0293,1.0307,1.0305,1.0305,1.0305,1.0305,1.0305,1.0305,1.0305,1.0305,1.0305,1.0305,1.0305,1.0305,1.0305,1.0305,1.0305,1.0305,1.0305,1.0305,1.0291,1.0293,1.0293,1.024,0.8808,0.5382,0.5105,0.5093,0.5093,0.5093,0.5109,0.5095,0.5092,0.5091,0.5094,0.5097,0.5094,0.5094,0.5094,0.5094,0.5191,0.8614,1.0202,0.1679,0.0,0.3681,0.4943,0.485,0.4124,0.2884,0.2598,0.2598,0.2598,0.2598,0.207,0.0322,0.0,0.0,0.0,0.0713,0.126,0.126,0.1573,0.1792,0.1792,0.1792,0.0,0.0,0.0,0.0,0.1325,0.0751,0.0674,0.1293,0.2111,0.1993,0.0742,0.1905,0.2562,0.2562,0.2493,0.2757,0.3316,0.3316,0.3316,0.3316,0.3316,0.3495,0.3839,0.5011,0.5625,0.5793,0.5793,0.6341,0.7353,0.9096,0.9772,0.9765,0.9721,0.9698,0.9725,0.9844,1.0048,1.0233,1.0207,1.021,1.02,1.0202,1.0196,1.0202,1.0289,1.0293,1.0293,1.0292,1.0292,1.0292,1.0292,1.0309,1.0305,1.0305,1.0305,1.0276,1.0183,1.024,1.0275,1.018,1.0166,1.0175,1.0234,1.0279,1.0287,1.0246,1.0226,1.023,1.023,1.0215,0.8808,0.5396,0.511,0.5093,0.5093,0.5093,0.51,0.5091,0.5109,0.5093,0.5097,0.5095,0.5094,0.5094,0.5091,0.626,0.8515,0.9663,1.0196,0.2411,0.3691,0.4933,0.6034,0.5704,0.4825,0.3736,0.3037,0.2598,0.2598,0.21,0.1514,0.1016,0.042,0.0205,0.083,0.1612,0.2148,0.2148,0.2079,0.2012,0.2012,0.2012,0.2239,0.0,0.0,0.0,0.1813,0.1239,0.1164,0.1771,0.2493,0.2527,0.1727,0.2869,0.33,0.2899,0.3293,0.3931,0.4793,0.4793,0.4793,0.4793,0.4793,0.5098,0.5644,0.6136,0.6433,0.6553,0.6553,0.7082,0.8025,0.9296,0.9801,0.9801,0.9758,0.9736,0.9736,0.9706,0.9917,1.0195,1.0195,1.0175,1.0167,1.0166,1.0159,1.0177,1.0271,1.0292,1.0292,1.0293,1.0293,1.0293,1.0293,1.0286,1.0265,1.0265,1.0265,1.023,1.0157,1.0207,1.025,1.0154,1.014,1.015,1.0188,1.0243,1.0254,1.0208,1.0205,1.0191,1.0191,1.0205,0.9302,0.7111,0.581,0.5093,0.5093,0.5093,0.5093,0.5093,0.5108,0.511,0.5098,0.5098,0.51,0.5103,0.5091,0.6857,1.0196,1.0196,1.0196,0.3654,0.3911,0.4256,0.5793,0.5611,0.5069,0.5146,0.3833,0.2598,0.2607,0.1216,0.0508,0.0,0.0,0.0537,0.2197,0.2501,0.2538,0.2581,0.2487,0.245,0.0,0.0,0.0,0.0,0.0,0.0,0.1987,0.0,0.1954,0.1954,0.1954,0.2443,0.3529,0.3569,0.3022,0.1902,0.303,0.4035,0.4852,0.4852,0.4852,0.4852,0.4852,0.5243,0.5973,0.7317,0.7899,0.7899,0.7899,0.7899,0.8025,0.9296,0.9801,0.9801,0.9801,0.9801,0.9794,0.9728,0.9922,1.0193,1.019,1.015,1.0096,1.0096,1.0096,1.0121,1.0252,1.0289,1.0289,1.0293,1.0293,1.0293,1.0293,1.0247,1.0199,1.0199,1.0199,1.0196,1.0196,1.0196,1.0196,1.0196,1.0199,1.0208,1.019,1.0195,1.0207,1.0202,1.0047,1.0001,1.0176,1.0195,1.0195,1.0195,0.7072,0.5094,0.5095,0.5095,0.5094,0.509,0.5106,0.5176,0.5351,0.537,0.5361,0.5359,0.5361,0.7025,1.0199,1.0199,1.0199,0.3828,0.3911,0.4007,0.4409,0.4357,0.4518,0.5712,0.4232,0.2617,0.2666,0.1252,0.0137,0.0,0.0,0.0,0.0586,0.1162,0.0,0.2441,0.2538,0.0,0.4251,0.0,0.4578,0.4991,0.452,0.0,0.0,0.4035,0.4035,0.4035,0.4035,0.4165,0.4455,0.4463,0.4023,0.308,0.4499,0.5319,0.5539,0.5539,0.5539,0.5539,0.5539,0.6206,0.7379,0.7753,0.7899,0.7899,0.7899,0.7899,0.8025,0.9296,0.9801,0.9801,0.9801,0.9801,0.9801,0.9787,0.9967,1.0185,1.0136,1.0104,1.0096,1.0096,1.0096,1.0114,1.0131,1.0195,1.0227,1.0222,1.022,1.022,1.022,1.0205,1.0205,1.0205,1.0191,1.0196,1.0196,1.0196,1.0196,1.0196,1.0194,1.0207,1.0193,1.0195,1.0193,1.0207,0.798,0.7381,0.9923,1.0195,1.0195,1.0195,0.7072,0.5099,0.5109,0.511,0.5099,0.5096,0.5101,0.6303,0.8856,0.8894,0.8897,0.8902,0.8907,0.9344,1.0205,1.0205,1.0205,0.3911,0.3911,0.3911,0.3911,0.4171,0.4469,0.4633,0.3599,0.2401,0.1672,0.0704,0.0,0.0,0.0,0.0,0.0,0.0,0.0,0.3947,0.3891,0.4047,0.0,0.5404,0.0,0.5127,0.5,0.4941,0.0,0.4843,0.4793,0.4793,0.4793,0.4793,0.4793,0.4793,0.4564,0.4076,0.5224,0.5793,0.5793,0.5793,0.5793,0.5793,0.5793,0.657,0.7899,0.0,0.8026,0.8258,0.8258,0.8258,0.8345,0.9393,0.9801,0.9801,0.9801,0.9801,0.9801,0.9801,0.9899,1.0033,1.008,1.0104,1.01,1.0101,1.0096,1.0096,1.0096,1.0147,1.0195,1.0195,1.0195,1.0195,1.0195,1.0195,1.0195,1.0195,1.0205,1.0194,1.0194,1.0194,1.0194,1.0194,1.0205,1.0195,1.0195,1.0195,1.0195,1.0195,0.8527,0.808,1.0001,1.0195,1.0195,1.0195,0.8467,0.7391,0.7377,0.5945,0.5109,0.5095,0.5807,0.7106,0.9013,0.9812,1.0202,1.0202,1.0208,1.02,1.0195,1.0177,1.0172,0.4027,0.3986,0.3945,0.4163,0.4736,0.4801,0.3068,0.2458,0.1826,0.0312,0.0,0.0,0.0,0.0,0.0697,0.285,0.0,0.3468,0.5957,0.5704,0.5262,0.5262,0.587,0.6016,0.5328,0.5262,0.5262,0.5262,0.5088,0.4981,0.4941,0.4922,0.4922,0.4922,0.4922,0.503,0.5241,0.5811,0.6106,0.6106,0.6106,0.6106,0.6106,0.6106,0.6809,0.8013,0.8013,0.8272,0.8705,0.8717,0.8729,0.8794,0.9481,0.9775,0.9822,0.9808,0.9801,0.9801,0.9801,0.9801,0.983,1.0034,1.0094,1.0109,1.0095,1.0105,1.001,0.9555,0.9796,1.0183,1.0193,1.0195,1.0195,1.0195,1.0195,1.0079,0.9613,0.9885,1.0195,1.0195,1.0195,1.0195,1.0195,1.0195,1.0195,1.0195,1.0195,1.0195,1.0195,1.0195,1.0195,1.0195,1.02,1.0205,1.0205,1.0247,1.0276,1.0276,0.702,0.5108,0.5108,0.6711,0.764,0.7715,0.9353,1.0191,1.0191,1.0194,1.02,1.021,1.0135,1.0141,0.4706,0.4406,0.4224,0.5542,0.5998,0.5565,0.3554,0.1724,0.0,0.0,0.0,0.0,0.0,0.0,0.0697,0.285,0.2867,0.3468,0.5957,0.6189,0.6099,0.0,0.6207,0.6242,0.6117,0.0,0.0,0.0,0.0,0.5918,0.5633,0.5614,0.5614,0.5614,0.5614,0.6235,0.7518,0.7651,0.7694,0.7694,0.7694,0.7694,0.7694,0.7694,0.8022,0.8554,0.8554,0.0,0.8705,0.8818,0.8858,0.8913,0.9376,0.9692,0.9875,0.9828,0.9801,0.9801,0.9801,0.9801,0.983,1.0034,1.0094,1.0094,1.0105,1.0105,0.9517,0.6746,0.7975,1.0133,1.0197,1.0195,1.0195,1.0195,1.0195,0.9419,0.6586,0.8197,1.0195,1.0195,1.0195,1.0195,1.0195,1.0195,1.0195,1.0195,1.0195,1.0195,1.0195,1.0195,1.0195,1.0195,1.0245,1.028,1.028,1.0188,1.0135,1.0135,0.6956,0.5108,0.5108,0.6764,0.7888,0.8327,0.9557,1.0197,1.0191,1.019,1.0207,1.0205,1.0191,1.0154,0.4893,0.4814,0.4815,0.5998,0.6295,0.5756,0.368,0.0,0.0,0.0,0.0,0.0,0.0,0.0,0.0,0.258,0.2905,0.3336,0.4519,0.5612,0.0,0.6295,0.6295,0.6295,0.0,0.0,0.0,0.0,0.0,0.6224,0.6075,0.4929,0.476,0.576,0.6575,0.7352,0.8094,0.8094,0.8094,0.8094,0.8094,0.8094,0.8094,0.8094,0.8361,0.8806,0.8806,0.0,0.8829,0.9088,0.9208,0.9237,0.9571,0.9791,0.99,0.9863,0.985,0.9843,0.9822,0.9801,0.983,1.0034,1.0094,1.0094,1.0094,0.8883,0.7158,0.5544,0.7504,0.971,0.8001,0.89,1.0247,1.0247,1.0232,0.9749,0.81,0.905,1.0195,1.0195,1.0195,1.0195,1.0195,1.0195,1.0195,1.0195,1.0234,1.0247,1.0247,1.0188,1.0175,1.0243,1.0279,1.0275,1.0195,1.0177,0.9395,0.7615,0.5988,0.5091,0.5096,0.6477,0.7506,0.8064,0.9472,1.0207,1.0191,1.019,1.0207,1.0205,1.0199,1.0186,0.4932,0.5108,0.53,0.6099,0.6343,0.582,0.3698,0.1556,0.0,0.0,0.0,0.0,0.0,0.0,0.0505,0.0,0.2732,0.3099,0.319,0.4988,0.6295,0.0,0.6295,0.0,0.6295,0.0,0.0,0.0,0.0,0.0,0.6295,0.4182,0.3985,0.6217,0.7472,0.8094,0.8094,0.8094,0.8094,0.8094,0.8094,0.8094,0.8108,0.8303,0.8622,0.9033,0.9033,0.0,0.0,0.9367,0.9542,0.9597,0.9818,0.9906,0.9906,0.9906,0.9906,0.9894,0.9837,0.9828,0.9856,1.0052,1.0102,1.0094,1.0094,0.7748,0.5097,0.5097,0.7518,0.9323,0.5977,0.7689,1.0305,1.0305,1.0251,1.023,1.023,1.023,1.023,1.023,1.023,1.023,1.023,1.023,1.023,1.023,1.0242,1.0269,1.0269,1.0172,1.0154,1.0269,1.0275,1.0232,1.014,0.9504,0.7952,0.5262,0.5108,0.5267,0.5644,0.6401,0.7159,0.7935,0.9438,1.021,1.0191,1.0205,1.0202,1.0205,1.019,1.0209,0.5088,0.5108,0.53,0.6099,0.643,0.5995,0.3782,0.0,0.0,0.0,0.0,0.0,0.0,0.0,0.0293,0.1183,0.0,0.2791,0.3145,0.4988,0.6295,0.6295,0.0,0.0,0.6295,0.0,0.0,0.0,0.0,0.0,0.6331,0.4317,0.4622,0.7793,0.8025,0.8094,0.8094,0.8094,0.8094,0.8094,0.8094,0.8094,0.8135,0.8985,0.9403,0.9439,0.9439,0.0,0.0,0.9491,0.9635,0.9857,0.9894,0.9906,0.9906,0.9906,0.9906,0.99,0.9894,0.9894,0.9918,1.0125,1.0147,1.0094,1.0094,0.7748,0.5097,0.5097,0.7518,0.9323,0.5977,0.7689,1.0305,1.0305,1.0304,1.0282,1.0282,1.0282,1.0282,1.0282,1.0282,1.0282,1.0282,1.0282,1.0282,1.0282,1.0188,1.0117,1.0117,1.0157,1.0196,1.0208,1.0211,1.0205,1.0193,0.7352,0.5437,0.5127,0.5108,0.5811,0.739,0.7041,0.7431,0.8774,0.9715,1.0194,1.0191,1.02,1.0191,1.0206,1.0197,1.02,0.4835,0.4568,0.4089,0.4413,0.4559,0.4381,0.3508,0.0,0.0,0.0,0.0,0.0,0.0,0.0,0.0105,0.0424,0.079,0.1454,0.2668,0.5116,0.6794,0.6794,0.6794,0.0,0.0,0.0,0.0,0.0,0.0,0.0,0.738,0.6607,0.675,0.8063,0.8094,0.8094,0.8094,0.8094,0.8377,0.8943,0.8943,0.8943,0.8953,0.9331,0.95,0.95,0.95,0.0,0.0,0.95,0.9651,0.9906,0.9906,0.9906,0.9906,0.9906,0.9906,0.9906,0.9906,0.9906,0.9929,1.0133,1.0186,1.0154,1.0154,0.9195,0.7691,0.5674,0.7518,0.9794,0.8458,0.9205,1.0306,1.0291,1.0292,1.0292,1.0292,1.0292,1.0292,1.0292,1.0308,1.0305,1.0305,1.0266,1.0239,1.018,1.0173,1.0154,1.0154,1.0186,1.0196,1.0196,1.0196,0.9364,0.7313,0.5881,0.5108,0.5108,0.5098,0.6328,0.9084,0.8976,0.8777,0.8653,0.9676,1.0194,1.0202,1.0191,1.0205,1.0203,1.0205,1.0191,0.419,0.3938,0.3458,0.4116,0.3789,0.313,0.0,0.1123,0.0,0.0,0.0,0.0,0.0,0.0,0.0,0.0,0.0,0.043,0.166,0.4108,0.5771,0.0,0.0,0.7107,0.0,0.0,0.0,0.0,0.0,0.0,0.808,0.8256,0.8269,0.8094,0.8094,0.8094,0.8094,0.8094,0.857,0.95,0.95,0.95,0.95,0.95,0.95,0.95,0.95,0.0,0.0,0.9635,0.9786,0.9959,0.9959,0.9959,0.9959,0.9959,0.9936,0.9906,0.9906,0.9906,0.9929,1.0133,1.0196,1.0196,1.0196,1.0177,0.9635,0.727,0.8308,1.0124,1.0147,1.0224,1.029,1.0293,1.0293,1.0293,1.0267,1.0265,1.0265,1.0265,1.0278,1.0269,1.0269,1.0234,1.019,1.014,1.0161,1.0196,1.0196,1.0196,1.0199,1.0208,1.0208,0.922,0.6812,0.6617,0.6601,0.6609,0.6601,0.7692,1.0098,1.0215,0.9841,0.9012,0.979,1.0194,1.0196,1.0202,1.0199,1.0206,1.0196,1.0191,0.3104,0.3257,0.3826,0.601,0.4921,0.2726,0.053,0.0013,0.0,0.0,0.0,0.0,0.0,0.0,0.0,0.0,0.0,0.001,0.0029,0.1535,0.0,0.0,0.0,0.7107,0.7107,0.0,0.0,0.0,0.0,0.0,0.8121,0.8607,0.8644,0.8108,0.8094,0.8094,0.8094,0.8094,0.857,0.95,0.95,0.95,0.95,0.95,0.95,0.95,0.0,0.0,0.0,0.9935,1.0092,1.0096,1.0096,1.0096,1.0096,1.0096,1.0009,0.9906,0.9906,0.9906,0.9929,1.0133,1.0196,1.0196,1.0196,1.0196,1.0196,1.0157,1.0177,1.0205,1.0289,1.0293,1.0293,1.0293,1.0293,1.027,1.0224,1.0199,1.0199,1.0199,1.0199,1.0199,1.0199,1.0199,1.0196,1.0196,1.0196,1.0196,1.0196,1.0196,1.0208,1.0193,1.0195,1.0185,1.0141,1.0157,1.015,1.0154,1.0157,1.0157,1.0195,1.0253,1.0268,1.018,1.0186,1.0205,1.0196,1.0209,1.0209,1.0199,1.0205,1.0207,0.277,0.3254,0.347,0.4179,0.2681,0.1262,0.207,0.1085,0.0,0.0,0.0,0.0,0.0,0.0,0.0,0.0,0.0,0.0,0.0,0.0,0.0,0.2607,0.4942,0.671,0.0,0.0,0.0,0.0,0.0,0.0,0.5757,0.5796,0.573,0.5374,0.7234,0.8409,0.8789,0.8789,0.9078,0.9633,0.9633,0.9633,0.9633,0.9633,0.9633,0.0,0.0,0.0,0.0,0.9976,1.0096,1.0096,1.0096,1.0096,1.0096,1.0096,1.0078,1.0048,1.0048,1.0048,1.0054,1.0151,1.0205,1.0205,1.0205,1.0191,1.0196,1.0196,1.0196,1.0224,1.027,1.0263,1.0242,1.0292,1.0262,1.0222,1.0205,1.0196,1.0196,1.0196,1.0191,1.0205,1.0205,1.0205,1.0205,1.0205,1.0205,1.0205,1.0205,1.0205,1.0207,1.0193,1.0195,1.0193,1.0205,1.0205,1.0207,1.0195,1.0195,1.0177,1.0135,1.0154,1.0163,1.0199,1.0206,1.0206,1.0196,1.0202,1.0208,1.0197,1.021,1.0516,0.0,0.2648,0.2057,0.2057,0.1022,0.0366,0.1742,0.0984,0.0,0.0,0.0,0.0,0.0,0.0,0.0225,0.0908,0.1021,0.0,0.0,0.0,0.0,0.4603,0.0,0.0,0.0,0.8008,0.8522,0.905,0.0,0.0,0.6336,0.5139,0.4415,0.4252,0.7083,0.8841,0.932,0.9174,0.9301,0.9698,0.9698,0.9698,0.9698,0.9698,0.9698,0.0,0.0,0.0,0.0,1.0024,1.0096,1.0096,1.0096,1.0096,1.0096,1.0096,1.0096,1.0096,1.0096,1.0127,1.014,1.02,1.0195,1.0195,1.0195,1.0205,1.0191,1.0191,1.0191,1.021,1.0258,1.0238,1.021,1.0258,1.0232,1.0196,1.0196,1.0196,1.0196,1.0196,1.02,1.0195,1.0195,1.0195,1.0195,1.0195,1.0195,1.0195,1.0195,1.0195,1.0195,1.0195,1.0195,1.0188,1.0163,1.0183,1.0183,1.017,1.0157,1.0145,1.0098,1.0113,1.0154,1.0196,1.0206,1.0206,1.0196,1.0205,1.0194,1.02,1.0195,1.0738,0.0,0.1515,0.0,0.0,0.0,0.0,0.0,0.0,0.0,0.0,0.0,0.0,0.0,0.0,0.0551,0.2235,0.264,0.0,0.0,0.3271,0.0,0.0,0.8189,0.0,0.828,0.8332,0.8559,0.906,0.0,0.0,0.9109,0.6292,0.4632,0.4511,0.7406,0.9205,0.9698,0.933,0.933,0.9698,0.9698,0.9698,0.9698,0.9698,0.9698,0.0,0.0,0.0,0.0,1.0096,1.0096,1.0096,1.0096,1.0096,1.0096,1.0096,1.0096,1.0096,1.011,1.0143,1.0195,1.0195,1.0195,1.0195,1.0195,1.0195,1.0195,1.0195,1.0195,1.0195,1.0195,1.0195,1.0195,1.0195,1.0197,1.0199,1.0199,1.0199,1.0199,1.0199,1.02,1.0195,1.0195,1.0195,1.0195,1.0195,1.0195,1.0193,1.0188,1.0188,1.0188,1.0188,1.0188,1.0169,1.0106,1.016,1.018,1.011,1.0097,1.0117,1.0117,1.0177,1.0196,1.0196,1.0196,1.0199,1.0199,1.0208,1.0194,1.0194,1.0207,1.0876,0.0613,0.0,0.0,0.0,0.0,0.0,0.0,0.0,0.0,0.0,0.0,0.0,0.0,0.0,0.0143,0.0561,0.0,0.0,0.3159,0.0,0.0,0.8201,0.8267,0.8253,0.8293,0.8667,0.8974,0.9099,0.9109,0.9109,0.9109,0.7386,0.587,0.4691,0.6558,0.8257,0.968,0.9601,0.9601,0.9698,0.9698,0.9698,0.9698,0.9698,0.9698,0.0,0.0,0.0,1.0096,1.0096,1.0096,1.0096,1.0096,1.0096,1.0096,1.0096,1.0096,1.011,1.0161,1.02,1.0195,1.0195,1.0195,1.0195,1.0195,1.0195,1.0195,1.0195,1.0195,1.0195,1.0195,1.0195,1.0195,1.0195,1.019,1.0207,1.0207,1.0207,1.0207,1.0207,1.019,1.0195,1.0195,1.0195,1.0195,1.0195,1.0195,1.0172,1.0133,1.0125,1.0124,1.0124,1.0124,1.0147,1.0164,1.0199,1.0167,1.0105,1.0143,1.0183,1.0183,1.0193,1.0196,1.0196,1.0196,1.0208,1.0207,1.0207,1.021,1.021,1.0193,1.1069,0.0,0.0,0.0,0.0,0.0,0.0,0.0,0.0,0.0,0.0,0.0,0.0255,0.1082,0.1235,0.1235,0.0,0.2241,0.0,0.0,0.0,0.8293,0.8293,0.8293,0.8396,0.0,0.0,0.9109,0.9109,0.9109,0.9109,0.9109,0.7988,0.7027,0.6284,0.6826,0.7609,0.8585,0.9331,0.9698,0.9698,0.9703,0.9728,0.9784,0.9717,0.9698,0.0,0.0,0.0,1.0096,1.0096,1.0096,1.0096,1.0095,1.0104,1.0104,1.0104,1.0104,1.0112,1.0138,1.0175,1.0195,1.0195,1.0195,1.0195,1.0195,1.023,1.024,1.0202,1.0195,1.0195,1.0195,1.0195,1.0195,1.0195,1.0195,1.0195,1.0195,1.0195,1.0195,1.0195,1.0195,1.0195,1.0195,1.0195,1.0195,1.0195,1.0163,1.0133,1.0105,1.0093,1.0094,1.0094,1.0133,1.0154,1.0196,1.0196,1.019,1.0147,1.0186,1.0196,1.0196,1.0196,1.0196,1.0196,1.0208,1.0202,1.0195,1.0195,1.0195,1.0234,1.1807,1.306,0.0,0.0,0.0,0.0,0.0,0.0,0.0,0.0,0.0,0.0,0.0,0.0,0.0,0.263,0.0,0.0,0.0,0.0,0.7752,0.8187,0.8187,0.8187,0.8253,0.0,0.9039,0.9109,0.9099,0.906,0.9099,0.9057,0.8947,0.8128,0.7753,0.794,0.747,0.7305,0.7475,0.8787,0.954,0.9706,0.9706,0.9766,0.9888,0.9798,0.9768,0.9768,0.0,0.0,1.0105,1.0105,1.0105,1.011,1.0101,1.0094,1.0098,1.0121,1.0131,1.0128,1.0102,1.0151,1.0226,1.0226,1.0226,1.0226,1.0226,1.0248,1.0282,1.0236,1.02,1.0195,1.0195,1.0195,1.0195,1.0195,1.0195,1.0195,1.0195,1.0195,1.0198,1.0205,1.0226,1.0226,1.0226,1.0226,1.0226,1.0226,1.0167,1.0116,1.011,1.0097,1.0094,1.0094,1.0154,1.0196,1.0196,1.0196,1.0199,1.0202,1.0199,1.0196,1.0196,1.0202,1.0205,1.0205,1.0205,1.0195,1.0195,1.0195,1.0467,1.105,1.3959,1.5351,0.0,0.0,0.0,0.0,0.0,0.0,0.0,0.0,0.0,0.0,0.0,0.0,0.0,0.2369,0.3977,0.0,0.0,0.7507,0.0,0.0,0.7709,0.7709,0.0,0.851,0.9039,0.9109,0.905,0.8936,0.9028,0.8835,0.8206,0.7512,0.7159,0.7242,0.7269,0.7621,0.831,0.834,0.8794,0.971,0.9695,0.975,0.9817,0.9971,1.0044,1.0044,0.0,1.0061,1.0105,1.0105,1.0105,1.0105,1.0094,1.0094,1.011,1.0232,1.0275,1.0247,1.0141,1.018,1.028,1.028,1.028,1.028,1.028,1.0283,1.0305,1.0281,1.0243,1.0195,1.0195,1.0195,1.0195,1.0195,1.0195,1.0195,1.0195,1.0195,1.0226,1.0276,1.028,1.028,1.028,1.028,1.028,1.028,1.0275,1.023,1.0106,1.009,1.0094,1.0094,1.0154,1.0196,1.0196,1.0196,1.0208,1.0207,1.0211,1.0196,1.0196,1.02,1.021,1.021,1.0193,1.0195,1.0195,1.0195,1.1691,1.4533,1.5108,1.5398,0.0,0.0,0.0,0.0,0.0,0.0,0.0,0.0,0.0,0.0,0.0,0.0,0.0,0.0,0.4602,0.5831,0.0,0.8227,0.8009,0.7982,0.7982,0.0,0.0,0.8835,0.9088,0.9109,0.906,0.9018,0.9123,0.9056,0.8717,0.851,0.8424,0.8446,0.8554,0.8778,0.9155,0.903,0.9208,0.9695,0.9733,0.9793,0.9856,0.9984,1.0067,1.0094,0.0,1.0094,1.0094,1.0094,1.0094,1.0094,1.0094,1.0145,1.0226,1.0278,1.0305,1.0282,1.0234,1.0245,1.0305,1.0305,1.0305,1.0305,1.0305,1.0305,1.0305,1.0305,1.0278,1.0248,1.0248,1.0248,1.0248,1.0248,1.0248,1.0248,1.0248,1.0248,1.0253,1.0283,1.0305,1.0305,1.0305,1.0305,1.0278,1.0198,1.0188,1.0169,1.0106,1.0094,1.0106,1.0147,1.0186,1.0196,1.0196,1.0191,1.0202,1.0193,1.0205,1.02,1.02,1.021,1.0195,1.0195,1.0195,1.0195,1.0195,1.204,1.3773,1.5358,1.5395,1.5402,0.0,0.0,0.0,0.0,0.0,0.0175,0.0827,0.0,0.0,0.0,0.0,0.0,0.0,0.4198,0.0,0.7462,0.816,0.8399,0.8399,0.8399,0.8399,0.8399,0.8812,0.9109,0.9109,0.9143,0.9164,0.9143,0.9263,0.926,0.91,0.9227,0.9325,0.9367,0.9422,0.9532,0.9717,0.9717,0.9724,0.972,0.9768,0.985,0.9925,0.9965,1.0044,1.0094,1.0094,1.0094,1.0094,1.0094,1.0094,1.0098,1.0135,1.0205,1.0307,1.0254,1.0279,1.0308,1.0308,1.0308,1.0308,1.0308,1.0308,1.0308,1.0308,1.0308,1.0308,1.0305,1.0306,1.0308,1.0305,1.0305,1.0305,1.0305,1.0305,1.0305,1.0305,1.0305,1.0305,1.0305,1.0305,1.0282,1.025,1.0271,1.0236,1.0147,1.0102,1.0094,1.0094,1.0106,1.0143,1.0193,1.0196,1.0199,1.0205,1.0205,1.0195,1.0195,1.0195,1.0195,1.0195,1.0195,1.0195,1.0195,1.0226,1.0226,1.0215,1.3653,1.5355,1.5402,1.5402,1.5402,0.0,0.0,0.0,0.0,0.0,0.0,0.3307,0.1876,0.0,0.3514,0.0,0.0,0.0,0.4166,0.5319,0.8157,0.8657,0.8681,0.8681,0.0,0.8681,0.8681,0.8919,0.9109,0.9109,0.9266,0.9359,0.9293,0.9359,0.9122,0.8501,0.8479,0.8546,0.8675,0.8687,0.904,0.9782,0.9801,0.9791,0.9788,0.9794,0.9875,1.0001,1.0001,1.0044,1.0094,1.0094,1.0094,1.0094,1.0094,1.0094,1.011,1.0238,1.0288,1.0272,1.0153,1.0187,1.0293,1.0293,1.0293,1.0293,1.0293,1.0293,1.0293,1.0293,1.0293,1.0293,1.0307,1.029,1.0293,1.0307,1.0305,1.0305,1.0305,1.0305,1.0305,1.0305,1.0305,1.0305,1.0305,1.0305,1.0251,1.0138,1.0164,1.0205,1.0196,1.014,1.0094,1.0094,1.015,1.0193,1.0196,1.0196,1.0208,1.019,1.0193,1.0195,1.0195,1.0195,1.0195,1.0195,1.0195,1.0195,1.0195,1.0251,1.0251,1.0215,1.3691,1.5401,1.5402,1.5402,1.5402,0.0,0.0,0.0,0.0,0.0,0.0,0.0,0.3497,0.3048,0.418,0.4396,0.0,0.0,0.0,0.4551,0.5922,0.7587,0.8771,0.899,0.9022,0.9022,0.9022,0.9106,0.9157,0.9157,0.9228,0.9304,0.9368,0.9385,0.9319,0.915,0.9217,0.9303,0.9337,0.9337,0.9485,0.9801,0.9837,0.9888,0.9923,0.9923,0.9959,1.0006,1.0035,1.0085,1.0094,1.0094,1.0094,1.0094,1.0094,1.0094,1.011,1.0245,1.0307,1.0287,1.02,1.0215,1.0293,1.0293,1.0293,1.0293,1.0293,1.0293,1.0293,1.0293,1.0293,1.0293,1.0292,1.0293,1.0293,1.0292,1.0292,1.0292,1.0292,1.0292,1.0292,1.0292,1.0292,1.0291,1.0306,1.0266,1.021,1.0164,1.0186,1.0196,1.0196,1.0186,1.0157,1.0157,1.019,1.0196,1.0196,1.0191,1.0205,1.0193,0.8255,0.7033,0.7033,0.903,1.0228,1.0251,1.0211,1.0195,1.0195,1.0274,1.1336,1.3437,1.4754,1.5402,1.5402,1.5402,1.5402,0.0,0.0,0.0216,0.1149,0.0,0.0,0.36,0.4331,0.4396,0.4396,0.4396,0.0,0.0,0.0,0.0,0.0,0.6808,0.7824,0.9037,0.9189,0.9189,0.9189,0.9189,0.9247,0.9368,0.9386,0.9421,0.9514,0.9522,0.9573,0.9661,0.9754,0.9789,0.9801,0.9817,0.983,0.9823,0.99,0.9971,1.0024,1.0024,1.0029,1.0039,1.0089,1.0094,1.0094,1.011,1.0136,1.0136,1.0102,1.0112,1.0163,1.0211,1.0243,1.0266,1.0234,1.0258,1.0293,1.0293,1.0293,1.0293,1.0293,1.0293,1.0293,1.0293,1.0293,1.0293,1.0293,1.0293,1.0293,1.0293,1.0293,1.0293,1.0293,1.0293,1.0293,1.0266,1.0264,1.0262,1.0271,1.0237,1.0196,1.0196,1.0196,1.0196,1.0196,1.0196,1.0196,1.0196,1.0196,0.9793,0.8697,0.8595,0.8586,0.8586,0.7439,0.6728,0.6741,0.8936,1.0247,1.0305,1.0268,1.0744,1.1821,1.1899,1.2531,1.3781,1.4875,1.5402,1.5402,1.5402,1.5402,0.0,0.0,0.0716,0.0,0.0,0.0,0.3315,0.4159,0.4396,0.4396,0.0,0.4443,0.4619,0.0,0.0,0.9139,0.6639,0.5704,0.8768,0.9199,0.9199,0.9199,0.9199,0.9359,0.9754,0.9801,0.9801,0.9801,0.9801,0.9801,0.9801,0.9803,0.9803,0.9808,0.9863,0.99,0.9906,0.9976,1.002,1.0095,1.0095,1.0093,1.0094,1.0094,1.0094,1.0098,1.0161,1.0196,1.0196,1.0136,1.0178,1.0292,1.015,1.0143,1.0213,1.0287,1.0293,1.0293,1.0293,1.0293,1.0312,1.0332,1.0352,1.0332,1.0312,1.0293,1.0312,1.0332,1.0352,1.0352,1.0352,1.0352,1.0332,1.0312,1.0293,1.0289,1.0202,1.0196,1.0196,1.0196,1.0196,1.0196,1.0196,1.0196,1.0199,1.0199,1.0199,1.0199,1.0196,1.0199,0.8888,0.5459,0.5093,0.5112,0.5151,0.8255,1.0234,1.0304,1.0305,1.0305,1.0305,1.0305,1.1906,1.5324,1.5402,1.3722,1.0363,1.3742,1.5402,1.5402,1.5402,1.5402,0.0,0.0,0.0,0.3664,0.0,0.0,0.0,0.4337,0.0,0.0,0.4535,0.5142,0.7132,0.0,0.0,0.9179,0.8435,0.8154,0.9066,0.9456,0.9623,0.9623,0.9623,0.9661,0.9794,0.9801,0.9801,0.9801,0.9801,0.9801,0.9801,0.9798,0.9811,0.9867,0.9838,0.985,0.9906,0.9916,0.9952,1.0024,1.0129,1.0144,1.0094,1.0094,1.0133,1.0161,1.0193,1.0196,1.0202,1.0224,1.0269,1.0293,1.0265,1.0242,1.0266,1.0292,1.0293,1.0293,1.0293,1.0293,1.0703,1.3105,1.3887,1.3437,1.1035,1.0293,1.0801,1.3203,1.3848,1.3827,1.3827,1.3827,1.3208,1.0807,1.0226,1.0219,1.0205,1.0196,1.0196,1.0196,1.0196,1.0196,1.0196,1.0196,1.0205,1.0202,1.0205,1.02,1.0199,1.0194,0.8888,0.5461,0.5093,0.6083,0.8488,0.9613,1.0234,1.0304,1.0305,1.0305,1.0305,1.0305,1.1906,1.5324,1.5402,1.4894,1.3898,1.4914,1.5402,1.5402,1.5402,1.5402,0.0,0.089,0.0,0.4034,0.4482,0.4482,0.4482,0.0,0.0,0.0,0.0,0.5486,0.837,0.9057,0.0,0.9403,0.9447,0.9447,0.9447,0.9646,0.9801,0.9801,0.9801,0.9801,0.9801,0.9801,0.9801,0.9801,0.9801,0.9815,0.983,0.9838,0.9863,0.9906,0.9894,0.9887,0.9904,0.9981,1.0034,1.0078,1.0163,1.0173,1.014,1.0102,1.0129,1.0154,1.019,1.0196,1.0208,1.0266,1.0293,1.0293,1.0293,1.1133,1.2168,1.0801,1.0293,1.0293,1.0293,1.0293,1.0859,1.4297,1.5391,1.5019,1.2949,1.2318,1.2727,1.4781,1.5323,1.5289,1.5306,1.5291,1.4783,1.2719,1.2231,1.2231,1.2231,1.1163,1.0196,1.0196,1.0196,1.0196,1.0196,1.0205,1.02,1.0193,1.0195,1.021,1.0194,1.0205,0.9419,0.7342,0.713,0.7964,1.0021,1.0195,1.0234,1.0304,1.0305,1.091,1.2278,1.2336,1.3293,1.5363,1.5402,1.5402,1.5402,1.5402,1.5402,1.5402,1.5402,1.5402,0.0,0.0,0.0,0.4592,0.4592,0.0,0.4592,0.4515,0.4454,0.4567,0.0,0.5459,0.8259,0.8785,0.8895,0.9275,0.959,0.9794,0.9747,0.9787,0.9801,0.9801,0.9801,0.9801,0.9801,0.9801,0.9801,0.9801,0.9801,0.9817,0.9888,0.99,0.9907,0.9894,0.9954,0.9968,0.9908,1.008,1.0178,1.0192,1.0209,1.0196,1.0196,1.014,1.0102,1.0102,1.0164,1.0196,1.0208,1.0266,1.0293,1.0293,1.0293,1.2187,1.4551,1.1445,1.0508,1.0762,1.0762,1.0762,1.1289,1.4374,1.5389,1.5389,1.5389,1.5353,1.5303,1.5303,1.5308,1.5302,1.5299,1.5306,1.5299,1.5302,1.5293,1.5293,1.5293,1.285,1.0563,1.0254,1.0196,1.0296,1.0608,1.0668,1.0564,1.0254,1.0467,1.0545,1.0234,1.0195,1.0195,1.0195,1.0195,1.0195,1.0195,1.0219,1.0238,1.0304,1.0597,1.2161,1.5265,1.5402,1.5402,1.5402,1.5402,1.5402,1.5402,1.5402,1.5402,1.5402,1.5402,1.5402,0.0,0.2252,0.0,0.0,0.4592,0.4592,0.4592,0.4572,0.4561,0.4587,0.4592,0.4807,0.5477,0.5582,0.5612,0.5697,0.8008,0.9684,0.9368,0.9607,0.9801,0.9801,0.9801,0.9801,0.9801,0.9801,0.9801,0.9801,0.9801,0.9808,0.9828,0.9869,0.99,0.9894,0.9919,0.9933,0.9973,0.996,1.0039,0.0,1.0196,1.0196,1.0196,1.019,1.0186,1.0186,1.0193,1.0196,1.0208,1.0266,1.0293,1.0293,1.0242,1.0703,1.1309,1.0566,1.1992,1.4297,1.4297,1.4297,1.4413,1.5101,1.5322,1.5322,1.5322,1.5319,1.5303,1.5303,1.5291,1.5299,1.5306,1.5306,1.5306,1.5299,1.5295,1.5295,1.5295,1.471,1.3407,1.0718,1.0196,1.1041,1.3743,1.4196,1.3286,1.0603,1.249,1.3228,1.0545,1.0195,1.0195,1.0195,1.0195,1.0195,1.0195,1.0245,1.028,1.0305,1.2824,1.4621,1.5363,1.5402,1.5402,1.5402,1.5402,1.5402,1.5402,1.5402,1.5402,1.5402,1.5402,1.5402,0.0,0.0,0.0,0.4592,0.0,0.4622,0.4724,0.467,0.4627,0.4728,0.4746,0.4715,0.4612,0.4592,0.4592,0.4592,0.7519,0.9171,0.7396,0.8681,0.9822,0.9837,0.9828,0.9801,0.9801,0.9801,0.9801,0.9801,0.9801,0.9822,0.9843,0.9882,0.9906,0.9906,0.9906,0.9918,0.996,1.0006,1.0097,1.0196,1.0196,1.0196,1.0196,1.0196,1.0196,1.0196,1.0196,1.0196,1.0202,1.0236,1.0251,1.0251,1.0248,1.0265,1.0488,1.2105,1.2787,1.3133,1.4788,1.5352,1.5346,1.5306,1.5299,1.5299,1.5299,1.5299,1.5299,1.5299,1.5292,1.5306,1.5306,1.5306,1.5306,1.5306,1.5306,1.5306,1.5306,1.5292,1.4776,1.2995,1.2646,1.3215,1.4995,1.5306,1.4704,1.2917,1.2762,1.2215,1.0428,1.0195,1.0195,1.0195,1.0195,1.0195,1.0195,1.0236,1.0958,1.2648,1.4406,1.5402,1.5402,1.5402,1.5402,1.5402,1.5402,1.5402,1.5402,1.5402,1.5402,1.5402,1.5391,1.5408,0.0,0.0,0.3806,0.3806,0.3806,0.0,0.4742,0.4324,0.3859,0.402,0.4511,0.4842,0.4683,0.466,0.4647,0.4647,0.7561,0.886,0.6147,0.8097,0.983,0.9894,0.985,0.9822,0.9822,0.9822,0.9822,0.9822,0.9822,0.9837,0.99,0.9906,0.9906,0.9906,0.9906,0.9925,0.9952,1.0117,1.0196,1.0196,1.0196,1.0196,1.0196,1.0196,1.0196,1.0196,1.0196,1.0196,1.0196,1.0196,1.0196,1.0269,1.0912,1.08,1.0696,1.4066,1.3136,1.0681,1.4102,1.5306,1.5306,1.5306,1.5306,1.5306,1.5306,1.5306,1.5306,1.5306,1.5306,1.5306,1.5306,1.5306,1.5306,1.5306,1.5306,1.5306,1.5306,1.5306,1.5306,1.5306,1.5306,1.5306,1.5306,1.5306,1.5306,1.5306,1.2898,1.1089,1.1089,1.1089,1.1089,1.1089,1.1089,1.1089,1.1089,1.1082,1.2333,1.5225,1.5402,1.5402,1.5402,1.5406,1.5408,1.5408,1.5408,1.5408,1.5408,1.5405,1.5405,1.5409,1.5395,1.539,0.0,0.0,0.0612,0.0,0.0612,0.1364,0.0,0.0,0.062,0.0,0.2914,0.4897,0.4872,0.486,0.4865,0.4865,0.7678,0.9738,0.9293,0.9613,0.9894,0.99,0.9894,0.9888,0.9888,0.9888,0.9888,0.9888,0.9888,0.9894,0.9906,0.9906,0.9906,0.9906,0.9906,0.9984,1.017,1.019,1.0196,1.0196,1.0196,1.0196,1.0196,1.0196,1.0196,1.0196,1.0196,1.0196,1.0196,1.0196,1.0196,1.0504,1.355,1.2861,1.0626,1.4035,1.3136,1.0681,1.4102,1.5306,1.5306,1.5306,1.5306,1.5306,1.5306,1.5306,1.5306,1.5306,1.5306,1.5306,1.5306,1.5306,1.5306,1.5306,1.5306,1.5306,1.5306,1.5306,1.5306,1.5306,1.5306,1.5306,1.5306,1.5306,1.5306,1.5306,1.4918,1.4626,1.4626,1.4626,1.4626,1.4626,1.4626,1.4626,1.4626,1.4676,1.4892,1.5363,1.5402,1.5402,1.5402,1.5405,1.5405,1.5405,1.5405,1.5405,1.5405,1.5391,1.5391,1.5405,1.5394,1.539,0.0,0.0,0.0,0.0,0.0,0.0371,0.1819,0.0,0.0,0.0,0.2617,0.4897,0.4897,0.4891,0.49,0.49,0.7702,0.9906,0.9906,0.9906,0.9906,0.9906,0.9906,0.9906,0.9906,0.9906,0.9906,0.9906,0.9906,0.9906,0.9906,0.9906,0.9906,0.9906,0.9906,1.0,1.0196,1.0196,1.0196,1.0196,1.0196,1.0196,1.0196,1.0196,1.0196,1.0196,1.0196,1.0196,1.0196,1.0196,1.0196,1.0534,1.4009,1.3248,1.0607,1.4043,1.4341,1.3267,1.4782,1.5306,1.5306,1.5306,1.5306,1.5306,1.5306,1.5306,1.5306,1.5306,1.5306,1.5306,1.5306,1.5306,1.5306,1.5306,1.5306,1.5306,1.5306,1.5306,1.5306,1.5306,1.5306,1.5306,1.5306,1.5306,1.5306,1.5306,1.5306,1.5306,1.5306,1.5306,1.5306,1.5306,1.5306,1.5323,1.5358,1.5376,1.5402,1.5402,1.5402,1.5402,1.5402,1.5401,1.539,1.539,1.539,1.539,1.539,1.5397,1.5397,1.539,1.539,1.539,0.0,0.0,0.0,0.0,0.0,0.0,0.0,0.0,0.1239,0.0,0.3192,0.49,0.49,0.49,0.5185,0.603,0.8266,0.9906,0.9906,0.9906,0.9906,0.9906,0.9906,0.9906,0.9906,0.9906,0.9906,0.9906,0.9906,0.9906,0.9906,0.9906,0.9906,0.9906,0.9906,0.9974,1.0121,1.0161,1.0196,1.0196,1.0196,1.0196,1.0199,1.0205,1.0208,1.0208,1.0199,1.0196,1.0196,1.0196,1.0196,1.0547,1.3962,1.3748,1.1807,1.4354,1.5306,1.5306,1.5306,1.5306,1.5306,1.5306,1.5306,1.5306,1.5306,1.5306,1.5306,1.5306,1.5306,1.5306,1.5306,1.5306,1.5306,1.5306,1.5306,1.5306,1.5306,1.5306,1.5306,1.5306,1.5306,1.5306,1.5306,1.5306,1.5313,1.5313,1.532,1.5306,1.5306,1.5306,1.5306,1.5306,1.5306,1.5329,1.5368,1.5371,1.5374,1.5402,1.5402,1.5402,1.5402,1.5401,1.539,1.539,1.539,1.539,1.539,1.539,1.539,1.539,1.539,1.539,0.0,0.0,0.0,0.0,0.0,0.0,0.0,0.0,0.0,0.4637,0.4788,0.49,0.49,0.49,0.5936,0.9117,0.9794,0.9906,0.9906,0.9906,0.9906,0.9906,0.9906,0.9906,0.9906,0.9906,0.9906,0.9906,0.9906,0.9906,0.9906,0.9906,0.9906,0.9906,0.9906,0.9913,0.9925,1.0105,1.0196,1.0196,1.0196,1.0196,1.0199,1.0202,1.0193,1.0193,1.0208,1.0196,1.0196,1.0196,1.0196,1.0531,1.3956,1.519,1.5054,1.5229,1.5306,1.5306,1.5306,1.5306,1.5306,1.5306,1.5306,1.5306,1.5306,1.5306,1.5306,1.5306,1.5306,1.5306,1.5306,1.5306,1.5306,1.5306,1.5306,1.5306,1.5306,1.5306,1.5306,1.5306,1.5306,1.5306,1.5306,1.5306,1.531,1.5395,1.5348,1.5306,1.5306,1.5306,1.5306,1.5306,1.5306,1.531,1.5294,1.5313,1.5321,1.5401,1.5402,1.5402,1.5402,1.5401,1.539,1.539,1.539,1.539,1.539,1.539,1.539,1.539,1.539,1.539,0.0,0.0,0.0,0.0,0.0,0.0,0.0,0.0901,0.2347,0.4468,0.49,0.49,0.49,0.49,0.5993,0.9361,0.9906,0.9906,0.9906,0.9906,0.9906,0.9906,0.9906,0.9906,0.9906,0.9906,0.9906,0.9906,0.9906,0.9906,0.9906,0.9906,0.9906,0.9906,0.9906,0.9963,1.0093,1.0154,1.0196,1.0196,1.0196,1.0205,1.0202,1.019,1.0195,1.0195,1.0205,1.0202,1.0202,1.0202,1.0202,1.0319,1.1552,1.3364,1.5306,1.5306,1.5306,1.5306,1.5306,1.5306,1.5306,1.5306,1.5306,1.5306,1.5306,1.5306,1.5306,1.5306,1.5338,1.5358,1.532,1.5306,1.5306,1.5306,1.5306,1.5306,1.5306,1.5306,1.5306,1.5306,1.5306,1.5303,1.536,1.5364,1.5369,1.5401,1.5373,1.5364,1.5364,1.5364,1.5364,1.5364,1.5364,1.5364,1.5364,1.5369,1.5371,1.5403,1.5402,1.5402,1.5402,1.5401,1.539,1.539,1.539,1.539,1.539,1.539,1.539,1.5409,1.5352,1.5368,0.0,0.0,0.0,0.0,0.0,0.0,0.0,0.0,0.062,0.2797,0.413,0.49,0.49,0.5824,0.7308,0.9549,0.9906,0.9906,0.9906,0.9906,0.9906,0.9906,0.9906,0.9906,0.9906,0.9906,0.9906,0.9906,0.9906,0.0,0.9906,0.9906,0.9906,0.9906,0.9968,1.0052,1.0196,1.0196,1.0196,1.0199,1.0205,1.02,1.0195,1.0195,1.0195,1.0195,1.0195,1.0195,1.0195,1.0195,1.0195,1.0195,1.0195,1.1594,1.3733,1.4879,1.5306,1.5306,1.5306,1.5306,1.5306,1.5306,1.5306,1.5306,1.5306,1.5306,1.5294,1.5335,1.5366,1.5398,1.5351,1.5321,1.5335,1.5313,1.5306,1.5306,1.5306,1.5306,1.5306,1.5306,1.5326,1.5353,1.54,1.5402,1.5402,1.5402,1.5402,1.5402,1.5402,1.5402,1.5402,1.5402,1.5402,1.5402,1.5402,1.5403,1.5397,1.5404,1.5402,1.5406,1.5391,1.5394,1.539,1.539,1.539,1.539,1.539,1.539,1.5403,1.54,1.5358,1.5359,0.0,0.0,0.0,0.0,0.0,0.0,0.0,0.0,0.0019,0.0131,0.2685,0.49,0.49,0.7646,0.9869,0.9775,0.9831,0.9906,0.9906,0.9906,0.9906,0.9906,0.9813,0.9794,0.9888,0.9906,0.9906,0.9906,0.9906,0.9906,0.9906,0.9913,0.9919,0.9919,1.0101,1.0196,1.0196,1.0199,1.0199,1.0199,1.0205,1.0195,1.0195,1.0195,1.0195,1.0195,1.0195,1.0195,1.0195,1.0195,1.0195,1.0195,1.0195,1.0254,1.0759,1.4083,1.5306,1.5306,1.5306,1.5306,1.5306,1.5306,1.5306,1.5306,1.5306,1.531,1.5326,1.5374,1.5402,1.5402,1.5402,1.5402,1.5376,1.5326,1.529,1.529,1.529,1.529,1.529,1.529,1.536,1.5402,1.5402,1.5402,1.5402,1.5402,1.5402,1.5402,1.5402,1.5402,1.5402,1.5402,1.5402,1.5402,1.5402,1.5403,1.5398,1.5404,1.5403,1.5391,1.5394,1.539,1.539,1.539,1.539,1.539,1.539,1.539,1.5401,1.5402,1.5402,1.546,0.0,0.0,0.0,0.0,0.0,0.0,0.0,0.0,0.0,0.306,0.4262,0.49,0.49,0.7646,0.9117,0.6669,0.8322,0.9906,0.9906,0.9906,0.9906,0.9906,0.7759,0.7233,0.9662,0.9906,0.9906,0.0,0.9906,0.9906,0.9906,1.0044,1.0117,1.0117,1.0177,1.0196,1.0196,1.0197,1.0205,1.0205,1.0193,1.0195,1.0195,1.0195,1.0195,1.0195,1.0195,1.0195,1.0195,1.0195,1.0195,1.0195,1.0195,1.171,1.4005,1.4957,1.5306,1.5306,1.5306,1.5306,1.5306,1.5306,1.5306,1.5306,1.5306,1.5321,1.5371,1.538,1.5402,1.5402,1.5402,1.5402,1.5401,1.5371,1.5369,1.5369,1.5369,1.5369,1.5369,1.5369,1.5397,1.5402,1.5402,1.5402,1.5402,1.5402,1.5402,1.5402,1.5402,1.5402,1.5402,1.5402,1.5402,1.5402,1.5402,1.5408,1.5409,1.5403,1.5408,1.5409,1.5392,1.539,1.539,1.539,1.539,1.539,1.539,1.539,1.5401,1.5402,1.5402,1.6749,0.0,0.0,0.0,0.0,0.0,0.0,0.0,0.0,0.0,0.0,0.3943,0.49,0.49,0.65,0.7627,0.7082,0.7458,0.8304,0.97,0.9906,0.9906,0.9906,0.8172,0.7759,0.9719,0.9906,0.9906,0.9906,0.9906,0.9929,1.0025,1.0133,1.0196,1.0196,1.0196,1.0196,1.0196,1.0202,1.0195,1.0195,1.0195,1.0195,1.0195,1.0195,1.0195,1.0195,1.0195,1.0195,1.0312,1.173,1.1496,1.0331,1.1768,1.3558,1.5306,1.5306,1.5306,1.5306,1.5306,1.5306,1.5306,1.5306,1.5306,1.5313,1.5321,1.5368,1.5402,1.5402,1.5402,1.5402,1.5402,1.5402,1.5402,1.5402,1.5402,1.5402,1.5402,1.5402,1.5402,1.5402,1.5402,1.5402,1.5402,1.5402,1.5402,1.5402,1.5402,1.5402,1.5402,1.5402,1.5402,1.5402,1.5402,1.5402,1.5402,1.5402,1.5407,1.541,1.5406,1.5397,1.5392,1.539,1.539,1.539,1.5395,1.6127,1.7575,1.6108,1.6152,1.7569,1.7539,1.8607,0.0,0.0237,0.0,0.0,0.0,0.0,0.0,0.0,0.0,0.0,0.2328,0.4356,0.4356,0.4662,0.5887,0.8873,0.6838,0.5936,0.8929,0.9343,0.9493,0.985,0.9906,0.9906,0.9906,0.9906,0.99,0.9935,0.9906,0.999,1.019,1.0199,1.0202,1.0202,1.0202,1.0202,1.0202,1.0205,1.0195,1.0195,1.0195,1.0195,1.0195,1.0195,1.0195,1.0195,1.0195,1.0195,1.0448,1.348,1.317,1.1069,1.4102,1.5306,1.5306,1.5306,1.5306,1.5306,1.5306,1.5306,1.5306,1.5306,1.5313,1.5313,1.5374,1.5402,1.5402,1.5402,1.5402,1.5402,1.5402,1.5402,1.5402,1.5402,1.5402,1.5402,1.5402,1.5402,1.5402,1.5402,1.5402,1.5402,1.5402,1.5402,1.5402,1.5402,1.5402,1.5402,1.5402,1.5402,1.5402,1.5402,1.5402,1.5402,1.5402,1.5402,1.539,1.5405,1.5762,1.5976,1.5979,1.5977,1.5977,1.5977,1.5976,1.7491,2.0593,1.7491,1.7569,2.0594,2.0539,2.0469,0.0,0.1776,0.3045,0.0609,0.0,0.0,0.0,0.0,0.0,0.0,0.0507,0.0958,0.0958,0.3153,0.5179,0.5774,0.5335,0.5129,0.5786,0.588,0.6876,0.9587,0.9906,0.9906,0.9906,0.9906,0.9965,1.0125,0.9996,0.999,1.019,1.0197,1.0207,1.0207,1.0207,1.0207,1.0207,1.0193,1.0195,1.0195,1.0195,1.0195,1.0195,1.0195,1.0195,1.0195,1.0195,1.0195,1.0254,1.0914,1.2412,1.4374,1.5034,1.5306,1.5306,1.5306,1.5306,1.5306,1.5306,1.5306,1.5306,1.5306,1.5343,1.5376,1.5401,1.5402,1.5402,1.5402,1.5402,1.5402,1.5402,1.5402,1.5402,1.5402,1.5402,1.5402,1.5402,1.5402,1.5402,1.5402,1.5402,1.5402,1.5402,1.5402,1.5402,1.5402,1.5402,1.5402,1.5402,1.5402,1.5402,1.5402,1.5402,1.5402,1.5402,1.5402,1.5405,1.5409,1.8021,1.9551,1.9509,1.9506,1.9506,1.9506,1.9551,1.991,2.0593,1.9911,1.995,2.0594,2.0582,2.0529,0.0,0.1099,0.2283,0.237,0.0,0.0,0.0,0.1202,0.0,0.0,0.0,0.0,0.0,0.1374,0.3045,0.4678,0.4921,0.5509,0.724,0.5994,0.5523,0.7214,0.7402,0.8059,0.9737,0.9906,0.9946,1.0038,1.0046,1.0083,1.0194,1.0207,1.0195,1.0195,1.0195,1.0195,1.0195,1.0195,1.0195,1.0195,1.0195,1.0195,1.0195,1.0195,1.0195,1.0195,1.0195,1.0195,1.0195,1.0195,1.2238,1.5353,1.5303,1.5306,1.5306,1.5306,1.5306,1.5306,1.5306,1.531,1.5355,1.5355,1.5369,1.5402,1.5402,1.5402,1.5402,1.5402,1.5402,1.5402,1.5402,1.5402,1.5402,1.5402,1.5402,1.5402,1.5402,1.5402,1.5402,1.5402,1.5402,1.5402,1.5402,1.5402,1.5402,1.5402,1.5402,1.5402,1.5402,1.5402,1.5402,1.5402,1.5402,1.6105,1.7842,1.7998,1.7998,1.7998,1.9638,2.0582,2.0544,2.0544,2.0544,2.0544,2.0583,2.0593,2.0593,2.0593,2.0593,2.0593,2.0593,2.0544,0.0,0.0,0.0,0.0,0.0,0.1679,0.0,0.0,0.0,0.0134,0.0515,0.0,0.0,0.0,0.0,0.0,0.0,0.0,0.0,0.6692,0.0,0.4918,0.4909,0.5955,0.8679,0.9554,0.9942,0.9942,1.0094,1.0195,1.0195,1.0195,1.0195,1.0195,1.0195,1.0195,1.0195,1.0195,1.0195,1.0195,1.0195,1.0195,1.0195,1.0195,1.0195,1.0195,1.0195,1.0195,1.0254,1.0928,1.2867,1.54,1.5335,1.5306,1.5306,1.5306,1.5306,1.5306,1.5306,1.5331,1.5402,1.5402,1.5402,1.5402,1.5402,1.5402,1.5402,1.5402,1.5402,1.5402,1.5402,1.5402,1.5402,1.5402,1.5402,1.5402,1.5402,1.5402,1.5402,1.5402,1.5402,1.5402,1.5402,1.5402,1.5402,1.5402,1.5402,1.5402,1.5402,1.5402,1.5402,1.5402,1.5402,1.6807,2.03,2.0593,2.0593,2.0593,2.0593,2.0593,2.0593,2.0593,2.0593,2.0593,2.0593,2.0593,2.0593,2.0593,2.0593,2.0594,2.0582,2.0544,0.0,0.0,0.0,0.0,0.4703,0.0,0.0,0.0,0.3587,0.061,0.0,0.0,0.0,0.0,0.0,0.0,0.0,0.0,0.5513,0.5241,0.4991,0.4991,0.4932,0.5054,0.5429,0.8274,1.0078,1.0078,1.0141,1.0195,1.0195,1.0195,1.0195,1.0195,1.0195,1.0195,1.0195,1.0195,1.0195,1.0195,1.0195,1.0195,1.0195,1.0195,1.0195,1.0195,1.0195,1.0195,1.0433,1.3536,1.5049,1.54,1.5335,1.5306,1.5306,1.5306,1.5306,1.5306,1.5306,1.5331,1.5402,1.5402,1.5402,1.5402,1.5402,1.5402,1.5402,1.5402,1.5402,1.5402,1.5402,1.5402,1.5402,1.5402,1.5402,1.5402,1.5402,1.5402,1.5402,1.5402,1.5402,1.5402,1.5402,1.5402,1.5402,1.5402,1.5402,1.5402,1.5402,1.5402,1.5402,1.5402,1.5402,1.6807,2.03,2.0593,2.0593,2.0593,2.0593,2.0593,2.0593,2.0593,2.0593,2.0593,2.0593,2.0593,2.0593,2.0593,2.0593,2.0594,2.0539,2.0509,0.0,0.0,0.0,0.0,0.0,0.0,0.4998,0.0,0.4598,0.0,0.0,0.0,0.0,0.0,0.0,0.0,0.4968,0.0,0.0,0.0,0.4998,0.0,0.0,0.0,0.7613,0.7403,0.6324,0.4379,0.7944,1.0195,1.0195,1.0195,1.0195,1.0195,1.0195,1.0195,1.0195,1.0195,1.0195,1.0195,1.0195,1.0195,1.0195,1.0195,1.0228,1.0269,1.0269,1.0269,1.0368,1.1844,1.3605,1.5401,1.5368,1.536,1.536,1.536,1.536,1.536,1.536,1.5371,1.5402,1.5402,1.5402,1.5402,1.5402,1.5402,1.5402,1.5402,1.5402,1.5402,1.5402,1.5402,1.5402,1.5402,1.5402,1.5402,1.5402,1.5402,1.5402,1.5402,1.5402,1.5402,1.5402,1.5402,1.5402,1.5402,1.5402,1.5402,1.5402,1.5402,1.5402,1.5402,1.5402,1.6807,2.03,2.0593,2.0593,2.0593,2.0593,2.0597,2.0603,2.0603,2.0603,2.0603,2.0603,2.0601,2.0593,2.0601,2.0603,2.0604,2.0566,2.0566,0.4998,0.0,0.0,0.0,0.0,0.0,0.0,0.0,0.0,0.0,0.0,0.0,0.0,0.0,0.0,0.0,0.0,0.0,0.0,0.0,0.0,0.0,0.0,0.0,0.0,0.6403,0.3606,0.0248,0.0,0.9205,1.0157,1.0195,1.0195,1.0195,1.0195,1.0195,1.0195,1.0195,1.0195,1.0195,1.0195,1.0195,1.0195,1.0228,1.0248,1.0305,1.0305,1.0305,1.0363,1.1301,1.3156,1.5402,1.5402,1.5402,1.5402,1.5402,1.5402,1.5402,1.5402,1.5402,1.5402,1.5402,1.5402,1.5402,1.5402,1.5402,1.5402,1.5402,1.5402,1.5402,1.5402,1.5402,1.5402,1.5402,1.5402,1.5402,1.5402,1.5402,1.5402,1.5402,1.5402,1.5402,1.5402,1.5402,1.5402,1.5402,1.5402,1.5402,1.5402,1.6222,1.6827,1.6827,1.683,1.7847,2.0385,2.0596,2.0596,2.0599,2.0599,2.0602,2.0605,2.0605,2.0605,2.0605,2.0605,2.0605,2.0599,2.0605,2.0605,2.0605,2.0599,2.0593,0.0,0.0,0.0,0.6079,0.0,0.0,0.0,0.0,0.4998,0.0,0.0,0.0,0.0,0.0,0.0,0.0,0.0,0.0,0.0,0.0,0.0,0.0,0.0,0.0,0.0,0.5099,0.3606,0.0,0.3265,0.6703,1.0021,1.0195,1.0195,1.0195,1.0195,1.0195,1.0195,1.0195,1.0195,1.0195,1.0195,1.0195,1.0195,1.0274,1.0305,1.0305,1.0305,1.0305,1.0558,1.3878,1.5304,1.5402,1.5402,1.5402,1.5402,1.5402,1.5402,1.5402,1.5402,1.5402,1.5402,1.5402,1.5402,1.5402,1.5402,1.5402,1.5402,1.5402,1.5402,1.5402,1.5402,1.5402,1.5402,1.5402,1.5402,1.5402,1.5402,1.5402,1.5402,1.5402,1.5402,1.5402,1.5402,1.5402,1.5402,1.5402,1.5402,1.5402,1.5402,1.835,2.0437,2.0437,2.0428,2.0488,2.0586,2.0601,2.0599,2.0605,2.0605,2.0605,2.0605,2.0605,2.0605,2.0605,2.0605,2.0605,2.0605,2.0605,2.0605,2.0605,2.0599,2.0593,0.0,0.0,0.9833,0.8692,0.0,0.0,0.0,0.0,0.0,0.0,0.0,0.0,0.0,0.0,0.0,0.0,0.0,0.0,0.0,0.0,0.0,0.0,0.0,0.0,0.0,0.0,0.0,0.0,0.3168,0.0,0.6761,0.8972,1.0195,1.0195,1.0195,1.0195,1.0195,1.0195,1.0195,1.0195,1.0243,1.0274,1.0274,1.0282,1.0305,1.0305,1.0305,1.1574,1.3761,1.4914,1.5402,1.5402,1.5402,1.5402,1.5402,1.5402,1.5402,1.5402,1.5402,1.5402,1.5402,1.5402,1.5402,1.5402,1.5402,1.5402,1.5402,1.5402,1.5402,1.5402,1.5402,1.5402,1.5402,1.5402,1.5402,1.5402,1.5402,1.5402,1.5404,1.5409,1.5406,1.5404,1.5409,1.5409,1.5408,1.5403,1.5407,1.6229,1.8534,1.9862,2.0604,2.0604,2.0605,2.0605,2.0605,2.0605,2.0605,2.0605,2.0605,2.0605,2.0605,2.0605,2.0605,2.0605,2.0605,2.0605,2.0605,2.0605,2.0605,2.0605,2.0605,2.0604,0.7517,0.8488,0.0,1.0144,0.7544,0.0,0.4998,0.0,0.0,0.0,0.0,0.0,0.0,0.0,0.0,0.0,0.0,0.0,0.0,0.4998,0.0,0.0,0.0,0.0,0.0,0.0,0.2327,0.0172,0.3168,0.0,0.0,0.9011,1.0195,1.0195,1.0195,1.0202,1.0238,1.0238,1.0238,1.0238,1.0279,1.0305,1.0305,1.0305,1.0305,1.0363,1.1594,1.3351,1.5402,1.5402,1.5402,1.5402,1.5402,1.5402,1.5402,1.5402,1.5402,1.5402,1.5402,1.5402,1.5402,1.5402,1.5402,1.5402,1.5402,1.5402,1.5402,1.5402,1.5402,1.5402,1.5402,1.5402,1.5402,1.5402,1.5402,1.5402,1.5402,1.5405,1.5408,1.5391,1.6405,1.7244,1.7246,1.7246,1.7246,1.7243,1.7245,1.8066,2.0312,2.0605,2.0605,2.0605,2.0605,2.0605,2.0605,2.0605,2.0605,2.0605,2.0605,2.0605,2.0605,2.0605,2.0605,2.0605,2.0605,2.0605,2.0605,2.0605,2.0605,2.0605,2.0605,2.0605]}]]